Wetterdaten: Donnerstag, 16.06.2016
Datum Zeit Temp. A. Feuchte A. Luftdruck Regen Wind Richtung Richtung Sonnenschein ET UV Solar Taupunkt Windchill Windben Empfang
16.06.2016 00:00 15,5 C 85 % 1004,6 hPa 0,0 l/m 4,3 km/h (1 Bft) S-SW 209 0 min 0,000 mm 0,0 UV-I 0 W/m 13,0 C 15,5 C 6,4 km/h (2 Bft) 100,00 %
16.06.2016 00:02 15,5 C 85 % 1004,6 hPa 0,0 l/m 4,7 km/h (1 Bft) S-SW 211 0 min 0,000 mm 0,0 UV-I 0 W/m 13,0 C 15,5 C 6,4 km/h (2 Bft) 100,00 %
16.06.2016 00:03 15,5 C 85 % 1004,6 hPa 0,0 l/m 2,2 km/h (1 Bft) S-SW 213 0 min 0,000 mm 0,0 UV-I 0 W/m 13,0 C 15,5 C 3,2 km/h (1 Bft) 100,00 %
16.06.2016 00:04 15,5 C 85 % 1004,6 hPa 0,0 l/m 2,7 km/h (1 Bft) S-SW 212 0 min 0,000 mm 0,0 UV-I 0 W/m 13,0 C 15,5 C 3,2 km/h (1 Bft) 100,00 %
16.06.2016 00:05 15,4 C 85 % 1004,6 hPa 0,0 l/m 3,9 km/h (1 Bft) S-SW 201 0 min 0,000 mm 0,0 UV-I 0 W/m 12,9 C 15,4 C 6,4 km/h (2 Bft) 100,00 %
16.06.2016 00:06 15,4 C 85 % 1004,6 hPa 0,0 l/m 2,0 km/h (1 Bft) S-SW 201 0 min 0,000 mm 0,0 UV-I 0 W/m 12,9 C 15,4 C 4,8 km/h (1 Bft) 100,00 %
16.06.2016 00:07 15,4 C 85 % 1004,6 hPa 0,0 l/m 3,6 km/h (1 Bft) S-SW 201 0 min 0,000 mm 0,0 UV-I 0 W/m 12,9 C 15,4 C 6,4 km/h (2 Bft) 100,00 %
16.06.2016 00:08 15,4 C 86 % 1004,5 hPa 0,0 l/m 2,8 km/h (1 Bft) S-SW 201 0 min 0,000 mm 0,0 UV-I 0 W/m 13,1 C 15,4 C 4,8 km/h (1 Bft) 100,00 %
16.06.2016 00:09 15,4 C 86 % 1004,4 hPa 0,0 l/m 1,8 km/h (1 Bft) S-SW 201 0 min 0,000 mm 0,0 UV-I 0 W/m 13,1 C 15,4 C 4,8 km/h (1 Bft) 100,00 %
16.06.2016 00:10 15,4 C 86 % 1004,3 hPa 0,0 l/m 1,7 km/h (1 Bft) S-SW 201 0 min 0,000 mm 0,0 UV-I 0 W/m 13,1 C 15,4 C 3,2 km/h (1 Bft) 100,00 %
16.06.2016 00:11 15,4 C 86 % 1004,3 hPa 0,0 l/m 0,4 km/h (0 Bft) S-SW 201 0 min 0,000 mm 0,0 UV-I 0 W/m 13,1 C 15,4 C 1,6 km/h (1 Bft) 95,83 %
16.06.2016 00:12 15,4 C 86 % 1004,3 hPa 0,0 l/m 0,0 km/h (0 Bft) S-SW 201 0 min 0,000 mm 0,0 UV-I 0 W/m 13,1 C 15,4 C 0,0 km/h (0 Bft) 100,00 %
16.06.2016 00:13 15,4 C 86 % 1004,2 hPa 0,0 l/m 0,0 km/h (0 Bft) S-SW 201 0 min 0,000 mm 0,0 UV-I 0 W/m 13,1 C 15,4 C 0,0 km/h (0 Bft) 100,00 %
16.06.2016 00:14 15,4 C 86 % 1004,2 hPa 0,0 l/m 0,1 km/h (0 Bft) S-SW 201 0 min 0,000 mm 0,0 UV-I 0 W/m 13,1 C 15,4 C 1,6 km/h (1 Bft) 100,00 %
16.06.2016 00:15 15,3 C 86 % 1004,2 hPa 0,0 l/m 0,8 km/h (0 Bft) S-SW 201 0 min 0,000 mm 0,0 UV-I 0 W/m 13,0 C 15,3 C 3,2 km/h (1 Bft) 100,00 %
16.06.2016 00:16 15,3 C 86 % 1004,2 hPa 0,0 l/m 2,6 km/h (1 Bft) S-SW 201 0 min 0,000 mm 0,0 UV-I 0 W/m 13,0 C 15,3 C 4,8 km/h (1 Bft) 100,00 %
16.06.2016 00:17 15,3 C 86 % 1004,2 hPa 0,0 l/m 3,2 km/h (1 Bft) S-SW 201 0 min 0,000 mm 0,0 UV-I 0 W/m 13,0 C 15,3 C 4,8 km/h (1 Bft) 100,00 %
16.06.2016 00:18 15,3 C 86 % 1004,3 hPa 0,0 l/m 2,9 km/h (1 Bft) S-SW 201 0 min 0,000 mm 0,0 UV-I 0 W/m 13,0 C 15,3 C 3,2 km/h (1 Bft) 99,75 %
16.06.2016 00:19 15,2 C 86 % 1004,3 hPa 0,0 l/m 3,4 km/h (1 Bft) S-SW 201 0 min 0,000 mm 0,0 UV-I 0 W/m 12,9 C 15,2 C 4,8 km/h (1 Bft) 100,00 %
16.06.2016 00:20 15,2 C 86 % 1004,3 hPa 0,0 l/m 4,1 km/h (1 Bft) S-SW 201 0 min 0,000 mm 0,0 UV-I 0 W/m 12,9 C 15,2 C 4,8 km/h (1 Bft) 100,00 %
16.06.2016 00:21 15,2 C 86 % 1004,3 hPa 0,0 l/m 3,4 km/h (1 Bft) S-SW 201 0 min 0,000 mm 0,0 UV-I 0 W/m 12,9 C 15,2 C 4,8 km/h (1 Bft) 100,00 %
16.06.2016 00:22 15,2 C 87 % 1004,3 hPa 0,0 l/m 2,3 km/h (1 Bft) S-SW 201 0 min 0,000 mm 0,0 UV-I 0 W/m 13,0 C 15,2 C 3,2 km/h (1 Bft) 100,00 %
16.06.2016 00:23 15,1 C 87 % 1004,3 hPa 0,0 l/m 2,1 km/h (1 Bft) S-SW 201 0 min 0,000 mm 0,0 UV-I 0 W/m 13,0 C 15,1 C 3,2 km/h (1 Bft) 100,00 %
16.06.2016 00:24 15,1 C 87 % 1004,3 hPa 0,0 l/m 1,9 km/h (1 Bft) S-SW 201 0 min 0,000 mm 0,0 UV-I 0 W/m 13,0 C 15,1 C 3,2 km/h (1 Bft) 100,00 %
16.06.2016 00:25 15,0 C 87 % 1004,3 hPa 0,0 l/m 1,5 km/h (1 Bft) S-SW 201 0 min 0,000 mm 0,0 UV-I 0 W/m 12,9 C 15,0 C 1,6 km/h (1 Bft) 100,00 %
16.06.2016 00:26 14,9 C 88 % 1004,4 hPa 0,0 l/m 1,2 km/h (1 Bft) S-SW 201 0 min 0,000 mm 0,0 UV-I 0 W/m 12,9 C 14,9 C 1,6 km/h (1 Bft) 100,00 %
16.06.2016 00:27 14,9 C 88 % 1004,4 hPa 0,0 l/m 2,6 km/h (1 Bft) S-SW 198 0 min 0,000 mm 0,0 UV-I 0 W/m 12,9 C 14,9 C 4,8 km/h (1 Bft) 96,15 %
16.06.2016 00:28 14,8 C 88 % 1004,4 hPa 0,0 l/m 1,9 km/h (1 Bft) S-SW 197 0 min 0,000 mm 0,0 UV-I 0 W/m 12,8 C 14,8 C 3,2 km/h (1 Bft) 100,00 %
16.06.2016 00:29 14,8 C 88 % 1004,5 hPa 0,0 l/m 3,1 km/h (1 Bft) S-SW 197 0 min 0,000 mm 0,0 UV-I 0 W/m 12,8 C 14,8 C 4,8 km/h (1 Bft) 100,00 %
16.06.2016 00:30 14,7 C 88 % 1004,5 hPa 0,0 l/m 3,9 km/h (1 Bft) S-SW 197 0 min 0,000 mm 0,0 UV-I 0 W/m 12,7 C 14,7 C 4,8 km/h (1 Bft) 100,00 %
16.06.2016 00:31 14,7 C 88 % 1004,5 hPa 0,0 l/m 4,3 km/h (1 Bft) S-SW 198 0 min 0,000 mm 0,0 UV-I 0 W/m 12,7 C 14,7 C 4,8 km/h (1 Bft) 100,00 %
16.06.2016 00:32 14,7 C 88 % 1004,5 hPa 0,0 l/m 2,9 km/h (1 Bft) S-SW 198 0 min 0,000 mm 0,0 UV-I 0 W/m 12,7 C 14,7 C 4,8 km/h (1 Bft) 100,00 %
16.06.2016 00:33 14,6 C 89 % 1004,5 hPa 0,0 l/m 3,8 km/h (1 Bft) S-SW 193 0 min 0,000 mm 0,0 UV-I 0 W/m 12,8 C 14,6 C 4,8 km/h (1 Bft) 100,00 %
16.06.2016 00:34 14,6 C 89 % 1004,5 hPa 0,0 l/m 3,4 km/h (1 Bft) S-SW 193 0 min 0,000 mm 0,0 UV-I 0 W/m 12,8 C 14,6 C 6,4 km/h (2 Bft) 100,00 %
16.06.2016 00:35 14,6 C 89 % 1004,6 hPa 0,0 l/m 4,7 km/h (1 Bft) S-SW 209 0 min 0,000 mm 0,0 UV-I 0 W/m 12,8 C 14,6 C 4,8 km/h (1 Bft) 100,00 %
16.06.2016 00:36 14,6 C 89 % 1004,6 hPa 0,0 l/m 4,0 km/h (1 Bft) S-SW 209 0 min 0,000 mm 0,0 UV-I 0 W/m 12,8 C 14,6 C 6,4 km/h (2 Bft) 100,00 %
16.06.2016 00:37 14,6 C 89 % 1004,6 hPa 0,0 l/m 5,0 km/h (1 Bft) S-SW 201 0 min 0,000 mm 0,0 UV-I 0 W/m 12,8 C 14,6 C 6,4 km/h (2 Bft) 100,00 %
16.06.2016 00:38 14,6 C 89 % 1004,6 hPa 0,0 l/m 3,9 km/h (1 Bft) S-SW 197 0 min 0,000 mm 0,0 UV-I 0 W/m 12,8 C 14,6 C 6,4 km/h (2 Bft) 95,83 %
16.06.2016 00:39 14,6 C 89 % 1004,6 hPa 0,0 l/m 2,9 km/h (1 Bft) S-SW 197 0 min 0,000 mm 0,0 UV-I 0 W/m 12,8 C 14,6 C 4,8 km/h (1 Bft) 100,00 %
16.06.2016 00:40 14,6 C 89 % 1004,6 hPa 0,0 l/m 4,3 km/h (1 Bft) S-SW 199 0 min 0,000 mm 0,0 UV-I 0 W/m 12,8 C 14,6 C 6,4 km/h (2 Bft) 100,00 %
16.06.2016 00:41 14,6 C 89 % 1004,6 hPa 0,0 l/m 5,9 km/h (2 Bft) SW 215 0 min 0,000 mm 0,0 UV-I 0 W/m 12,8 C 14,6 C 9,7 km/h (2 Bft) 100,00 %
16.06.2016 00:42 14,7 C 89 % 1004,6 hPa 0,0 l/m 4,3 km/h (1 Bft) S-SW 213 0 min 0,000 mm 0,0 UV-I 0 W/m 12,9 C 14,7 C 4,8 km/h (1 Bft) 100,00 %
16.06.2016 00:43 14,7 C 89 % 1004,6 hPa 0,0 l/m 2,3 km/h (1 Bft) S-SW 213 0 min 0,000 mm 0,0 UV-I 0 W/m 12,9 C 14,7 C 3,2 km/h (1 Bft) 100,00 %
16.06.2016 00:44 14,7 C 89 % 1004,6 hPa 0,0 l/m 5,1 km/h (1 Bft) S-SW 196 0 min 0,000 mm 0,0 UV-I 0 W/m 12,9 C 14,7 C 6,4 km/h (2 Bft) 100,00 %
16.06.2016 00:45 14,7 C 89 % 1004,6 hPa 0,0 l/m 6,2 km/h (2 Bft) S-SW 198 0 min 0,000 mm 0,0 UV-I 0 W/m 12,9 C 14,7 C 8,0 km/h (2 Bft) 100,00 %
16.06.2016 00:46 14,7 C 89 % 1004,6 hPa 0,0 l/m 5,6 km/h (1 Bft) S-SW 202 0 min 0,000 mm 0,0 UV-I 0 W/m 12,9 C 14,7 C 6,4 km/h (2 Bft) 100,00 %
16.06.2016 00:47 14,7 C 89 % 1004,6 hPa 0,0 l/m 6,4 km/h (2 Bft) S-SW 197 0 min 0,000 mm 0,0 UV-I 0 W/m 12,9 C 14,7 C 8,0 km/h (2 Bft) 100,00 %
16.06.2016 00:48 14,7 C 89 % 1004,7 hPa 0,0 l/m 5,6 km/h (1 Bft) S 188 0 min 0,000 mm 0,0 UV-I 0 W/m 12,9 C 14,7 C 6,4 km/h (2 Bft) 100,00 %
16.06.2016 00:49 14,7 C 89 % 1004,7 hPa 0,0 l/m 5,0 km/h (1 Bft) S-SW 195 0 min 0,000 mm 0,0 UV-I 0 W/m 12,9 C 14,7 C 6,4 km/h (2 Bft) 100,00 %
16.06.2016 00:50 14,7 C 89 % 1004,7 hPa 0,0 l/m 4,8 km/h (1 Bft) S-SW 193 0 min 0,000 mm 0,0 UV-I 0 W/m 12,9 C 14,7 C 6,4 km/h (2 Bft) 95,65 %
16.06.2016 00:51 14,6 C 89 % 1004,7 hPa 0,0 l/m 6,0 km/h (2 Bft) S-SW 211 0 min 0,000 mm 0,0 UV-I 0 W/m 12,8 C 14,6 C 8,0 km/h (2 Bft) 100,00 %
16.06.2016 00:52 14,6 C 89 % 1004,7 hPa 0,0 l/m 6,5 km/h (2 Bft) S-SW 195 0 min 0,000 mm 0,0 UV-I 0 W/m 12,8 C 14,6 C 8,0 km/h (2 Bft) 95,65 %
16.06.2016 00:53 14,6 C 89 % 1004,7 hPa 0,0 l/m 4,8 km/h (1 Bft) SW 232 0 min 0,000 mm 0,0 UV-I 0 W/m 12,8 C 14,6 C 6,4 km/h (2 Bft) 100,00 %
16.06.2016 00:54 14,6 C 89 % 1004,7 hPa 0,0 l/m 3,8 km/h (1 Bft) SW 232 0 min 0,000 mm 0,0 UV-I 0 W/m 12,8 C 14,6 C 6,4 km/h (2 Bft) 95,65 %
16.06.2016 00:55 14,6 C 89 % 1004,6 hPa 0,0 l/m 5,5 km/h (1 Bft) SW 234 0 min 0,000 mm 0,0 UV-I 0 W/m 12,8 C 14,6 C 8,0 km/h (2 Bft) 91,67 %
16.06.2016 00:56 14,5 C 89 % 1004,7 hPa 0,0 l/m 5,0 km/h (1 Bft) W-SW 256 0 min 0,000 mm 0,0 UV-I 0 W/m 12,7 C 14,5 C 6,4 km/h (2 Bft) 100,00 %
16.06.2016 00:57 14,5 C 89 % 1004,6 hPa 0,0 l/m 3,5 km/h (1 Bft) W-SW 256 0 min 0,000 mm 0,0 UV-I 0 W/m 12,7 C 14,5 C 4,8 km/h (1 Bft) 96,30 %
16.06.2016 00:58 14,5 C 89 % 1004,6 hPa 0,0 l/m 0,2 km/h (0 Bft) W-SW 256 0 min 0,000 mm 0,0 UV-I 0 W/m 12,7 C 14,5 C 1,6 km/h (1 Bft) 100,00 %
16.06.2016 00:59 14,4 C 89 % 1004,6 hPa 0,0 l/m 0,0 km/h (0 Bft) W-SW 256 0 min 0,000 mm 0,0 UV-I 0 W/m 12,6 C 14,4 C 0,0 km/h (0 Bft) 95,65 %
16.06.2016 01:00 14,4 C 89 % 1004,6 hPa 0,0 l/m 1,8 km/h (1 Bft) W-SW 256 0 min 0,000 mm 0,0 UV-I 0 W/m 12,6 C 14,4 C 4,8 km/h (1 Bft) 100,00 %
16.06.2016 01:02 14,3 C 90 % 1004,6 hPa 0,0 l/m 1,0 km/h (0 Bft) W-SW 256 0 min 0,000 mm 0,0 UV-I 0 W/m 12,7 C 14,3 C 3,2 km/h (1 Bft) 97,30 %
16.06.2016 01:03 14,3 C 90 % 1004,5 hPa 0,0 l/m 1,4 km/h (1 Bft) W-SW 256 0 min 0,000 mm 0,0 UV-I 0 W/m 12,7 C 14,3 C 3,2 km/h (1 Bft) 97,56 %
16.06.2016 01:04 14,2 C 90 % 1004,5 hPa 0,0 l/m 0,2 km/h (0 Bft) W-SW 256 0 min 0,000 mm 0,0 UV-I 0 W/m 12,6 C 14,2 C 1,6 km/h (1 Bft) 100,00 %
16.06.2016 01:05 14,2 C 90 % 1004,5 hPa 0,0 l/m 1,4 km/h (1 Bft) W-SW 256 0 min 0,000 mm 0,0 UV-I 0 W/m 12,6 C 14,2 C 3,2 km/h (1 Bft) 95,65 %
16.06.2016 01:06 14,2 C 90 % 1004,4 hPa 0,0 l/m 0,3 km/h (0 Bft) W-SW 256 0 min 0,000 mm 0,0 UV-I 0 W/m 12,6 C 14,2 C 1,6 km/h (1 Bft) 91,67 %
16.06.2016 01:07 14,2 C 90 % 1004,5 hPa 0,0 l/m 0,4 km/h (0 Bft) W-SW 256 0 min 0,000 mm 0,0 UV-I 0 W/m 12,6 C 14,2 C 1,6 km/h (1 Bft) 100,00 %
16.06.2016 01:08 14,2 C 90 % 1004,5 hPa 0,0 l/m 1,3 km/h (1 Bft) W-SW 256 0 min 0,000 mm 0,0 UV-I 0 W/m 12,6 C 14,2 C 3,2 km/h (1 Bft) 95,83 %
16.06.2016 01:09 14,1 C 90 % 1004,6 hPa 0,0 l/m 2,4 km/h (1 Bft) W-SW 256 0 min 0,000 mm 0,0 UV-I 0 W/m 12,5 C 14,1 C 3,2 km/h (1 Bft) 100,00 %
16.06.2016 01:10 14,1 C 90 % 1004,7 hPa 0,0 l/m 2,6 km/h (1 Bft) W-SW 254 0 min 0,000 mm 0,0 UV-I 0 W/m 12,5 C 14,1 C 3,2 km/h (1 Bft) 95,83 %
16.06.2016 01:11 14,1 C 90 % 1004,7 hPa 0,0 l/m 3,3 km/h (1 Bft) W-SW 254 0 min 0,000 mm 0,0 UV-I 0 W/m 12,5 C 14,1 C 4,8 km/h (1 Bft) 100,00 %
16.06.2016 01:12 14,1 C 90 % 1004,6 hPa 0,0 l/m 3,8 km/h (1 Bft) W-SW 238 0 min 0,000 mm 0,0 UV-I 0 W/m 12,5 C 14,1 C 4,8 km/h (1 Bft) 95,83 %
16.06.2016 01:13 14,1 C 90 % 1004,8 hPa 0,0 l/m 4,6 km/h (1 Bft) S 175 0 min 0,000 mm 0,0 UV-I 0 W/m 12,5 C 14,1 C 6,4 km/h (2 Bft) 96,15 %
16.06.2016 01:14 14,1 C 90 % 1004,8 hPa 0,0 l/m 4,8 km/h (1 Bft) S 175 0 min 0,000 mm 0,0 UV-I 0 W/m 12,5 C 14,1 C 6,4 km/h (2 Bft) 100,00 %
16.06.2016 01:15 14,1 C 90 % 1004,8 hPa 0,0 l/m 3,2 km/h (1 Bft) S 176 0 min 0,000 mm 0,0 UV-I 0 W/m 12,5 C 14,1 C 4,8 km/h (1 Bft) 96,55 %
16.06.2016 01:16 14,1 C 91 % 1004,8 hPa 0,0 l/m 4,2 km/h (1 Bft) S 178 0 min 0,000 mm 0,0 UV-I 0 W/m 12,7 C 14,1 C 6,4 km/h (2 Bft) 100,00 %
16.06.2016 01:17 14,1 C 91 % 1004,7 hPa 0,0 l/m 3,1 km/h (1 Bft) S 175 0 min 0,000 mm 0,0 UV-I 0 W/m 12,7 C 14,1 C 4,8 km/h (1 Bft) 93,33 %
16.06.2016 01:18 14,1 C 91 % 1004,7 hPa 0,0 l/m 5,1 km/h (1 Bft) S-SW 205 0 min 0,000 mm 0,0 UV-I 0 W/m 12,7 C 14,1 C 6,4 km/h (2 Bft) 96,15 %
16.06.2016 01:19 14,1 C 91 % 1004,7 hPa 0,0 l/m 4,2 km/h (1 Bft) S-SW 207 0 min 0,000 mm 0,0 UV-I 0 W/m 12,7 C 14,1 C 6,4 km/h (2 Bft) 95,83 %
16.06.2016 01:20 14,1 C 91 % 1004,7 hPa 0,0 l/m 2,7 km/h (1 Bft) S-SW 207 0 min 0,000 mm 0,0 UV-I 0 W/m 12,7 C 14,1 C 4,8 km/h (1 Bft) 91,30 %
16.06.2016 01:21 14,1 C 91 % 1004,7 hPa 0,0 l/m 2,9 km/h (1 Bft) S-SW 207 0 min 0,000 mm 0,0 UV-I 0 W/m 12,7 C 14,1 C 4,8 km/h (1 Bft) 100,00 %
16.06.2016 01:22 14,1 C 91 % 1004,6 hPa 0,0 l/m 3,4 km/h (1 Bft) S-SW 207 0 min 0,000 mm 0,0 UV-I 0 W/m 12,7 C 14,1 C 4,8 km/h (1 Bft) 100,00 %
16.06.2016 01:23 14,1 C 91 % 1004,6 hPa 0,0 l/m 2,6 km/h (1 Bft) S-SW 207 0 min 0,000 mm 0,0 UV-I 0 W/m 12,7 C 14,1 C 3,2 km/h (1 Bft) 96,30 %
16.06.2016 01:24 14,1 C 91 % 1004,6 hPa 0,0 l/m 4,2 km/h (1 Bft) S-SW 207 0 min 0,000 mm 0,0 UV-I 0 W/m 12,7 C 14,1 C 6,4 km/h (2 Bft) 100,00 %
16.06.2016 01:25 14,1 C 91 % 1004,6 hPa 0,0 l/m 4,6 km/h (1 Bft) S-SW 209 0 min 0,000 mm 0,0 UV-I 0 W/m 12,7 C 14,1 C 6,4 km/h (2 Bft) 100,00 %
16.06.2016 01:26 14,1 C 91 % 1004,6 hPa 0,0 l/m 5,5 km/h (1 Bft) S-SW 209 0 min 0,000 mm 0,0 UV-I 0 W/m 12,7 C 14,1 C 8,0 km/h (2 Bft) 95,65 %
16.06.2016 01:27 14,1 C 91 % 1004,7 hPa 0,0 l/m 4,7 km/h (1 Bft) S-SW 205 0 min 0,000 mm 0,0 UV-I 0 W/m 12,7 C 14,1 C 6,4 km/h (2 Bft) 100,00 %
16.06.2016 01:28 14,1 C 91 % 1004,7 hPa 0,0 l/m 3,8 km/h (1 Bft) S 184 0 min 0,000 mm 0,0 UV-I 0 W/m 12,7 C 14,1 C 4,8 km/h (1 Bft) 100,00 %
16.06.2016 01:29 14,1 C 91 % 1004,6 hPa 0,0 l/m 2,8 km/h (1 Bft) S 183 0 min 0,000 mm 0,0 UV-I 0 W/m 12,7 C 14,1 C 6,4 km/h (2 Bft) 100,00 %
16.06.2016 01:30 14,1 C 91 % 1004,6 hPa 0,0 l/m 2,5 km/h (1 Bft) S 183 0 min 0,000 mm 0,0 UV-I 0 W/m 12,7 C 14,1 C 4,8 km/h (1 Bft) 100,00 %
16.06.2016 01:31 14,1 C 91 % 1004,6 hPa 0,0 l/m 0,6 km/h (0 Bft) S 183 0 min 0,000 mm 0,0 UV-I 0 W/m 12,7 C 14,1 C 1,6 km/h (1 Bft) 100,00 %
16.06.2016 01:32 14,1 C 91 % 1004,5 hPa 0,0 l/m 1,6 km/h (1 Bft) S 183 0 min 0,000 mm 0,0 UV-I 0 W/m 12,7 C 14,1 C 3,2 km/h (1 Bft) 96,30 %
16.06.2016 01:33 14,1 C 91 % 1004,5 hPa 0,0 l/m 1,1 km/h (1 Bft) S 183 0 min 0,000 mm 0,0 UV-I 0 W/m 12,7 C 14,1 C 3,2 km/h (1 Bft) 100,00 %
16.06.2016 01:34 14,1 C 91 % 1004,5 hPa 0,0 l/m 0,5 km/h (0 Bft) S 183 0 min 0,000 mm 0,0 UV-I 0 W/m 12,7 C 14,1 C 1,6 km/h (1 Bft) 100,00 %
16.06.2016 01:35 14,1 C 91 % 1004,5 hPa 0,0 l/m 0,8 km/h (0 Bft) S 183 0 min 0,000 mm 0,0 UV-I 0 W/m 12,7 C 14,1 C 1,6 km/h (1 Bft) 95,83 %
16.06.2016 01:36 14,1 C 91 % 1004,5 hPa 0,0 l/m 0,3 km/h (0 Bft) S 183 0 min 0,000 mm 0,0 UV-I 0 W/m 12,7 C 14,1 C 1,6 km/h (1 Bft) 100,00 %
16.06.2016 01:37 14,1 C 91 % 1004,6 hPa 0,0 l/m 1,2 km/h (1 Bft) S 183 0 min 0,000 mm 0,0 UV-I 0 W/m 12,7 C 14,1 C 3,2 km/h (1 Bft) 100,00 %
16.06.2016 01:38 14,1 C 91 % 1004,5 hPa 0,0 l/m 1,2 km/h (1 Bft) S 183 0 min 0,000 mm 0,0 UV-I 0 W/m 12,7 C 14,1 C 3,2 km/h (1 Bft) 100,00 %
16.06.2016 01:39 14,1 C 91 % 1004,5 hPa 0,0 l/m 1,5 km/h (1 Bft) S 183 0 min 0,000 mm 0,0 UV-I 0 W/m 12,7 C 14,1 C 3,2 km/h (1 Bft) 100,00 %
16.06.2016 01:40 14,0 C 91 % 1004,5 hPa 0,0 l/m 3,0 km/h (1 Bft) S 183 0 min 0,000 mm 0,0 UV-I 0 W/m 12,6 C 14,0 C 4,8 km/h (1 Bft) 100,00 %
16.06.2016 01:41 14,0 C 91 % 1004,5 hPa 0,0 l/m 2,5 km/h (1 Bft) S 183 0 min 0,000 mm 0,0 UV-I 0 W/m 12,6 C 14,0 C 3,2 km/h (1 Bft) 100,00 %
16.06.2016 01:42 14,0 C 91 % 1004,4 hPa 0,0 l/m 3,2 km/h (1 Bft) S 183 0 min 0,000 mm 0,0 UV-I 0 W/m 12,6 C 14,0 C 4,8 km/h (1 Bft) 100,00 %
16.06.2016 01:43 14,0 C 91 % 1004,4 hPa 0,0 l/m 3,1 km/h (1 Bft) S 183 0 min 0,000 mm 0,0 UV-I 0 W/m 12,6 C 14,0 C 4,8 km/h (1 Bft) 100,00 %
16.06.2016 01:44 13,9 C 91 % 1004,4 hPa 0,0 l/m 1,1 km/h (1 Bft) S 183 0 min 0,000 mm 0,0 UV-I 0 W/m 12,5 C 13,9 C 1,6 km/h (1 Bft) 100,00 %
16.06.2016 01:45 13,9 C 91 % 1004,3 hPa 0,0 l/m 0,9 km/h (0 Bft) S 183 0 min 0,000 mm 0,0 UV-I 0 W/m 12,5 C 13,9 C 3,2 km/h (1 Bft) 96,15 %
16.06.2016 01:46 13,9 C 91 % 1004,3 hPa 0,0 l/m 0,1 km/h (0 Bft) S 183 0 min 0,000 mm 0,0 UV-I 0 W/m 12,5 C 13,9 C 1,6 km/h (1 Bft) 100,00 %
16.06.2016 01:47 13,9 C 91 % 1004,3 hPa 0,0 l/m 1,2 km/h (1 Bft) S 183 0 min 0,000 mm 0,0 UV-I 0 W/m 12,5 C 13,9 C 1,6 km/h (1 Bft) 100,00 %
16.06.2016 01:48 13,9 C 91 % 1004,2 hPa 0,0 l/m 1,1 km/h (1 Bft) S 183 0 min 0,000 mm 0,0 UV-I 0 W/m 12,5 C 13,9 C 3,2 km/h (1 Bft) 100,00 %
16.06.2016 01:49 13,9 C 91 % 1004,2 hPa 0,0 l/m 0,8 km/h (0 Bft) S 183 0 min 0,000 mm 0,0 UV-I 0 W/m 12,5 C 13,9 C 1,6 km/h (1 Bft) 100,00 %
16.06.2016 01:50 13,9 C 91 % 1004,3 hPa 0,0 l/m 0,0 km/h (0 Bft) S 183 0 min 0,000 mm 0,0 UV-I 0 W/m 12,5 C 13,9 C 0,0 km/h (0 Bft) 100,00 %
16.06.2016 01:51 13,9 C 91 % 1004,3 hPa 0,0 l/m 0,0 km/h (0 Bft) S 183 0 min 0,000 mm 0,0 UV-I 0 W/m 12,5 C 13,9 C 0,0 km/h (0 Bft) 100,00 %
16.06.2016 01:52 13,9 C 91 % 1004,3 hPa 0,0 l/m 0,1 km/h (0 Bft) S 183 0 min 0,000 mm 0,0 UV-I 0 W/m 12,5 C 13,9 C 1,6 km/h (1 Bft) 100,00 %
16.06.2016 01:53 13,8 C 91 % 1004,3 hPa 0,0 l/m 0,0 km/h (0 Bft) S 183 0 min 0,000 mm 0,0 UV-I 0 W/m 12,4 C 13,8 C 0,0 km/h (0 Bft) 100,00 %
16.06.2016 01:54 13,9 C 91 % 1004,3 hPa 0,0 l/m 0,0 km/h (0 Bft) S 183 0 min 0,000 mm 0,0 UV-I 0 W/m 12,5 C 13,9 C 0,0 km/h (0 Bft) 100,00 %
16.06.2016 01:55 13,8 C 92 % 1004,3 hPa 0,0 l/m 0,3 km/h (0 Bft) S 183 0 min 0,000 mm 0,0 UV-I 0 W/m 12,5 C 13,8 C 1,6 km/h (1 Bft) 96,30 %
16.06.2016 01:56 13,9 C 92 % 1004,3 hPa 0,0 l/m 0,1 km/h (0 Bft) S 183 0 min 0,000 mm 0,0 UV-I 0 W/m 12,6 C 13,9 C 1,6 km/h (1 Bft) 100,00 %
16.06.2016 01:57 13,8 C 91 % 1004,2 hPa 0,0 l/m 0,0 km/h (0 Bft) S 183 0 min 0,000 mm 0,0 UV-I 0 W/m 12,4 C 13,8 C 0,0 km/h (0 Bft) 100,00 %
16.06.2016 01:58 13,8 C 91 % 1004,1 hPa 0,0 l/m 0,0 km/h (0 Bft) S 183 0 min 0,000 mm 0,0 UV-I 0 W/m 12,4 C 13,8 C 0,0 km/h (0 Bft) 100,00 %
16.06.2016 01:59 13,8 C 91 % 1004,1 hPa 0,0 l/m 1,0 km/h (0 Bft) S 183 0 min 0,000 mm 0,0 UV-I 0 W/m 12,4 C 13,8 C 3,2 km/h (1 Bft) 95,83 %
16.06.2016 02:00 13,8 C 91 % 1004,1 hPa 0,0 l/m 1,7 km/h (1 Bft) S 183 0 min 0,000 mm 0,0 UV-I 0 W/m 12,4 C 13,8 C 3,2 km/h (1 Bft) 100,00 %
16.06.2016 02:02 13,7 C 91 % 1004,0 hPa 0,0 l/m 0,9 km/h (0 Bft) S 183 0 min 0,000 mm 0,0 UV-I 0 W/m 12,3 C 13,7 C 3,2 km/h (1 Bft) 100,00 %
16.06.2016 02:03 13,7 C 91 % 1004,1 hPa 0,0 l/m 0,0 km/h (0 Bft) S 183 0 min 0,000 mm 0,0 UV-I 0 W/m 12,3 C 13,7 C 0,0 km/h (0 Bft) 100,00 %
16.06.2016 02:04 13,6 C 92 % 1004,1 hPa 0,0 l/m 0,0 km/h (0 Bft) S 183 0 min 0,000 mm 0,0 UV-I 0 W/m 12,3 C 13,6 C 0,0 km/h (0 Bft) 100,00 %
16.06.2016 02:05 13,6 C 92 % 1004,1 hPa 0,0 l/m 0,1 km/h (0 Bft) S 183 0 min 0,000 mm 0,0 UV-I 0 W/m 12,3 C 13,6 C 1,6 km/h (1 Bft) 100,00 %
16.06.2016 02:06 13,5 C 92 % 1004,1 hPa 0,0 l/m 0,4 km/h (0 Bft) S 183 0 min 0,000 mm 0,0 UV-I 0 W/m 12,2 C 13,5 C 1,6 km/h (1 Bft) 100,00 %
16.06.2016 02:07 13,5 C 92 % 1004,1 hPa 0,0 l/m 0,5 km/h (0 Bft) S 183 0 min 0,000 mm 0,0 UV-I 0 W/m 12,2 C 13,5 C 1,6 km/h (1 Bft) 100,00 %
16.06.2016 02:08 13,5 C 92 % 1004,1 hPa 0,0 l/m 0,1 km/h (0 Bft) S 183 0 min 0,000 mm 0,0 UV-I 0 W/m 12,2 C 13,5 C 1,6 km/h (1 Bft) 95,65 %
16.06.2016 02:09 13,4 C 93 % 1004,1 hPa 0,0 l/m 0,3 km/h (0 Bft) S 183 0 min 0,000 mm 0,0 UV-I 0 W/m 12,3 C 13,4 C 1,6 km/h (1 Bft) 100,00 %
16.06.2016 02:10 13,4 C 92 % 1004,1 hPa 0,0 l/m 0,2 km/h (0 Bft) S 183 0 min 0,000 mm 0,0 UV-I 0 W/m 12,1 C 13,4 C 1,6 km/h (1 Bft) 100,00 %
16.06.2016 02:11 13,4 C 92 % 1004,1 hPa 0,0 l/m 0,7 km/h (0 Bft) S 183 0 min 0,000 mm 0,0 UV-I 0 W/m 12,1 C 13,4 C 1,6 km/h (1 Bft) 100,00 %
16.06.2016 02:12 13,4 C 92 % 1004,1 hPa 0,0 l/m 0,9 km/h (0 Bft) S 183 0 min 0,000 mm 0,0 UV-I 0 W/m 12,1 C 13,4 C 1,6 km/h (1 Bft) 100,00 %
16.06.2016 02:13 13,4 C 92 % 1004,1 hPa 0,0 l/m 0,7 km/h (0 Bft) S 183 0 min 0,000 mm 0,0 UV-I 0 W/m 12,1 C 13,4 C 1,6 km/h (1 Bft) 100,00 %
16.06.2016 02:14 13,4 C 92 % 1004,1 hPa 0,0 l/m 0,9 km/h (0 Bft) S 183 0 min 0,000 mm 0,0 UV-I 0 W/m 12,1 C 13,4 C 1,6 km/h (1 Bft) 100,00 %
16.06.2016 02:15 13,4 C 92 % 1004,2 hPa 0,0 l/m 0,9 km/h (0 Bft) S 183 0 min 0,000 mm 0,0 UV-I 0 W/m 12,1 C 13,4 C 1,6 km/h (1 Bft) 100,00 %
16.06.2016 02:16 13,3 C 92 % 1004,2 hPa 0,0 l/m 0,7 km/h (0 Bft) S 183 0 min 0,000 mm 0,0 UV-I 0 W/m 12,0 C 13,3 C 1,6 km/h (1 Bft) 100,00 %
16.06.2016 02:17 13,3 C 93 % 1004,2 hPa 0,0 l/m 0,6 km/h (0 Bft) S 183 0 min 0,000 mm 0,0 UV-I 0 W/m 12,2 C 13,3 C 1,6 km/h (1 Bft) 100,00 %
16.06.2016 02:18 13,3 C 93 % 1004,2 hPa 0,0 l/m 0,7 km/h (0 Bft) S 183 0 min 0,000 mm 0,0 UV-I 0 W/m 12,2 C 13,3 C 1,6 km/h (1 Bft) 100,00 %
16.06.2016 02:19 13,3 C 93 % 1004,2 hPa 0,0 l/m 1,2 km/h (1 Bft) S 183 0 min 0,000 mm 0,0 UV-I 0 W/m 12,2 C 13,3 C 1,6 km/h (1 Bft) 100,00 %
16.06.2016 02:20 13,3 C 93 % 1004,3 hPa 0,0 l/m 2,7 km/h (1 Bft) S 183 0 min 0,000 mm 0,0 UV-I 0 W/m 12,2 C 13,3 C 4,8 km/h (1 Bft) 96,30 %
16.06.2016 02:21 13,4 C 93 % 1004,3 hPa 0,0 l/m 1,9 km/h (1 Bft) S 183 0 min 0,000 mm 0,0 UV-I 0 W/m 12,3 C 13,4 C 3,2 km/h (1 Bft) 95,65 %
16.06.2016 02:22 13,4 C 93 % 1004,3 hPa 0,0 l/m 1,8 km/h (1 Bft) S 183 0 min 0,000 mm 0,0 UV-I 0 W/m 12,3 C 13,4 C 3,2 km/h (1 Bft) 100,00 %
16.06.2016 02:23 13,4 C 93 % 1004,3 hPa 0,0 l/m 1,4 km/h (1 Bft) S 183 0 min 0,000 mm 0,0 UV-I 0 W/m 12,3 C 13,4 C 1,6 km/h (1 Bft) 100,00 %
16.06.2016 02:24 13,4 C 93 % 1004,3 hPa 0,0 l/m 1,8 km/h (1 Bft) S 183 0 min 0,000 mm 0,0 UV-I 0 W/m 12,3 C 13,4 C 3,2 km/h (1 Bft) 100,00 %
16.06.2016 02:25 13,4 C 93 % 1004,2 hPa 0,0 l/m 1,1 km/h (1 Bft) S 183 0 min 0,000 mm 0,0 UV-I 0 W/m 12,3 C 13,4 C 3,2 km/h (1 Bft) 100,00 %
16.06.2016 02:26 13,4 C 93 % 1004,2 hPa 0,0 l/m 1,0 km/h (0 Bft) S 183 0 min 0,000 mm 0,0 UV-I 0 W/m 12,3 C 13,4 C 1,6 km/h (1 Bft) 100,00 %
16.06.2016 02:27 13,4 C 93 % 1004,2 hPa 0,0 l/m 0,8 km/h (0 Bft) S 183 0 min 0,000 mm 0,0 UV-I 0 W/m 12,3 C 13,4 C 1,6 km/h (1 Bft) 95,65 %
16.06.2016 02:28 13,4 C 93 % 1004,2 hPa 0,0 l/m 1,5 km/h (1 Bft) S 183 0 min 0,000 mm 0,0 UV-I 0 W/m 12,3 C 13,4 C 3,2 km/h (1 Bft) 100,00 %
16.06.2016 02:29 13,4 C 93 % 1004,2 hPa 0,0 l/m 1,9 km/h (1 Bft) S 183 0 min 0,000 mm 0,0 UV-I 0 W/m 12,3 C 13,4 C 3,2 km/h (1 Bft) 100,00 %
16.06.2016 02:30 13,4 C 93 % 1004,2 hPa 0,0 l/m 1,5 km/h (1 Bft) S 183 0 min 0,000 mm 0,0 UV-I 0 W/m 12,3 C 13,4 C 3,2 km/h (1 Bft) 100,00 %
16.06.2016 02:31 13,4 C 93 % 1004,2 hPa 0,0 l/m 1,3 km/h (1 Bft) S 183 0 min 0,000 mm 0,0 UV-I 0 W/m 12,3 C 13,4 C 3,2 km/h (1 Bft) 100,00 %
16.06.2016 02:32 13,4 C 93 % 1004,1 hPa 0,0 l/m 0,8 km/h (0 Bft) S 183 0 min 0,000 mm 0,0 UV-I 0 W/m 12,3 C 13,4 C 1,6 km/h (1 Bft) 100,00 %
16.06.2016 02:33 13,4 C 93 % 1004,1 hPa 0,0 l/m 0,5 km/h (0 Bft) S 183 0 min 0,000 mm 0,0 UV-I 0 W/m 12,3 C 13,4 C 1,6 km/h (1 Bft) 100,00 %
16.06.2016 02:34 13,4 C 93 % 1004,1 hPa 0,0 l/m 0,7 km/h (0 Bft) S 183 0 min 0,000 mm 0,0 UV-I 0 W/m 12,3 C 13,4 C 3,2 km/h (1 Bft) 95,65 %
16.06.2016 02:35 13,4 C 93 % 1004,1 hPa 0,0 l/m 1,4 km/h (1 Bft) S 183 0 min 0,000 mm 0,0 UV-I 0 W/m 12,3 C 13,4 C 3,2 km/h (1 Bft) 100,00 %
16.06.2016 02:36 13,4 C 93 % 1004,1 hPa 0,0 l/m 2,2 km/h (1 Bft) S 183 0 min 0,000 mm 0,0 UV-I 0 W/m 12,3 C 13,4 C 3,2 km/h (1 Bft) 100,00 %
16.06.2016 02:37 13,4 C 93 % 1004,1 hPa 0,0 l/m 1,5 km/h (1 Bft) S 183 0 min 0,000 mm 0,0 UV-I 0 W/m 12,3 C 13,4 C 1,6 km/h (1 Bft) 100,00 %
16.06.2016 02:38 13,4 C 93 % 1004,1 hPa 0,0 l/m 1,1 km/h (1 Bft) S 183 0 min 0,000 mm 0,0 UV-I 0 W/m 12,3 C 13,4 C 1,6 km/h (1 Bft) 95,65 %
16.06.2016 02:39 13,4 C 93 % 1004,1 hPa 0,0 l/m 0,8 km/h (0 Bft) S 183 0 min 0,000 mm 0,0 UV-I 0 W/m 12,3 C 13,4 C 3,2 km/h (1 Bft) 100,00 %
16.06.2016 02:40 13,4 C 93 % 1004,0 hPa 0,0 l/m 1,2 km/h (1 Bft) S 183 0 min 0,000 mm 0,0 UV-I 0 W/m 12,3 C 13,4 C 3,2 km/h (1 Bft) 96,15 %
16.06.2016 02:41 13,4 C 93 % 1004,0 hPa 0,0 l/m 1,1 km/h (1 Bft) S 183 0 min 0,000 mm 0,0 UV-I 0 W/m 12,3 C 13,4 C 1,6 km/h (1 Bft) 100,00 %
16.06.2016 02:42 13,4 C 93 % 1004,0 hPa 0,0 l/m 1,5 km/h (1 Bft) S 183 0 min 0,000 mm 0,0 UV-I 0 W/m 12,3 C 13,4 C 1,6 km/h (1 Bft) 100,00 %
16.06.2016 02:43 13,4 C 93 % 1003,9 hPa 0,0 l/m 1,6 km/h (1 Bft) S 183 0 min 0,000 mm 0,0 UV-I 0 W/m 12,3 C 13,4 C 3,2 km/h (1 Bft) 100,00 %
16.06.2016 02:44 13,4 C 93 % 1003,9 hPa 0,0 l/m 1,8 km/h (1 Bft) S 183 0 min 0,000 mm 0,0 UV-I 0 W/m 12,3 C 13,4 C 3,2 km/h (1 Bft) 100,00 %
16.06.2016 02:45 13,4 C 93 % 1003,9 hPa 0,0 l/m 1,8 km/h (1 Bft) S 183 0 min 0,000 mm 0,0 UV-I 0 W/m 12,3 C 13,4 C 3,2 km/h (1 Bft) 100,00 %
16.06.2016 02:46 13,4 C 93 % 1003,9 hPa 0,0 l/m 1,4 km/h (1 Bft) S 183 0 min 0,000 mm 0,0 UV-I 0 W/m 12,3 C 13,4 C 3,2 km/h (1 Bft) 100,00 %
16.06.2016 02:47 13,4 C 93 % 1003,9 hPa 0,0 l/m 2,3 km/h (1 Bft) S 183 0 min 0,000 mm 0,0 UV-I 0 W/m 12,3 C 13,4 C 3,2 km/h (1 Bft) 100,00 %
16.06.2016 02:48 13,5 C 93 % 1003,9 hPa 0,0 l/m 2,0 km/h (1 Bft) S 183 0 min 0,000 mm 0,0 UV-I 0 W/m 12,4 C 13,5 C 3,2 km/h (1 Bft) 95,65 %
16.06.2016 02:49 13,5 C 93 % 1004,0 hPa 0,0 l/m 2,3 km/h (1 Bft) S 171 0 min 0,000 mm 0,0 UV-I 0 W/m 12,4 C 13,5 C 4,8 km/h (1 Bft) 100,00 %
16.06.2016 02:50 13,5 C 93 % 1004,0 hPa 0,0 l/m 4,4 km/h (1 Bft) S 187 0 min 0,000 mm 0,0 UV-I 0 W/m 12,4 C 13,5 C 8,0 km/h (2 Bft) 91,30 %
16.06.2016 02:51 13,5 C 93 % 1004,1 hPa 0,0 l/m 4,5 km/h (1 Bft) S 186 0 min 0,000 mm 0,0 UV-I 0 W/m 12,4 C 13,5 C 6,4 km/h (2 Bft) 100,00 %
16.06.2016 02:52 13,5 C 93 % 1004,1 hPa 0,0 l/m 5,6 km/h (1 Bft) S 179 0 min 0,000 mm 0,0 UV-I 0 W/m 12,4 C 13,5 C 6,4 km/h (2 Bft) 91,67 %
16.06.2016 02:53 13,5 C 93 % 1004,1 hPa 0,0 l/m 4,5 km/h (1 Bft) S 179 0 min 0,000 mm 0,0 UV-I 0 W/m 12,4 C 13,5 C 6,4 km/h (2 Bft) 100,00 %
16.06.2016 02:54 13,5 C 93 % 1004,0 hPa 0,0 l/m 4,0 km/h (1 Bft) S 179 0 min 0,000 mm 0,0 UV-I 0 W/m 12,4 C 13,5 C 4,8 km/h (1 Bft) 91,67 %
16.06.2016 02:55 13,5 C 93 % 1004,0 hPa 0,0 l/m 3,6 km/h (1 Bft) S 179 0 min 0,000 mm 0,0 UV-I 0 W/m 12,4 C 13,5 C 4,8 km/h (1 Bft) 100,00 %
16.06.2016 02:56 13,4 C 93 % 1004,0 hPa 0,0 l/m 3,5 km/h (1 Bft) S 179 0 min 0,000 mm 0,0 UV-I 0 W/m 12,3 C 13,4 C 4,8 km/h (1 Bft) 92,59 %
16.06.2016 02:57 13,5 C 93 % 1004,0 hPa 0,0 l/m 3,1 km/h (1 Bft) S 179 0 min 0,000 mm 0,0 UV-I 0 W/m 12,4 C 13,5 C 4,8 km/h (1 Bft) 96,15 %
16.06.2016 02:58 13,4 C 93 % 1004,0 hPa 0,0 l/m 3,9 km/h (1 Bft) S 179 0 min 0,000 mm 0,0 UV-I 0 W/m 12,3 C 13,4 C 4,8 km/h (1 Bft) 100,00 %
16.06.2016 02:59 13,4 C 93 % 1004,0 hPa 0,0 l/m 3,5 km/h (1 Bft) S 179 0 min 0,000 mm 0,0 UV-I 0 W/m 12,3 C 13,4 C 4,8 km/h (1 Bft) 96,15 %
16.06.2016 03:00 13,4 C 93 % 1004,0 hPa 0,0 l/m 3,1 km/h (1 Bft) S 179 0 min 0,000 mm 0,0 UV-I 0 W/m 12,3 C 13,4 C 4,8 km/h (1 Bft) 100,00 %
16.06.2016 03:02 13,4 C 93 % 1004,1 hPa 0,0 l/m 3,0 km/h (1 Bft) S 179 0 min 0,000 mm 0,0 UV-I 0 W/m 12,3 C 13,4 C 4,8 km/h (1 Bft) 98,00 %
16.06.2016 03:03 13,4 C 93 % 1004,1 hPa 0,0 l/m 2,7 km/h (1 Bft) S 179 0 min 0,000 mm 0,0 UV-I 0 W/m 12,3 C 13,4 C 4,8 km/h (1 Bft) 86,96 %
16.06.2016 03:04 13,3 C 93 % 1004,1 hPa 0,0 l/m 2,4 km/h (1 Bft) S 179 0 min 0,000 mm 0,0 UV-I 0 W/m 12,2 C 13,3 C 3,2 km/h (1 Bft) 100,00 %
16.06.2016 03:05 13,3 C 93 % 1004,1 hPa 0,0 l/m 1,9 km/h (1 Bft) S 179 0 min 0,000 mm 0,0 UV-I 0 W/m 12,2 C 13,3 C 3,2 km/h (1 Bft) 96,15 %
16.06.2016 03:06 13,3 C 93 % 1004,0 hPa 0,0 l/m 2,3 km/h (1 Bft) S 179 0 min 0,000 mm 0,0 UV-I 0 W/m 12,2 C 13,3 C 3,2 km/h (1 Bft) 94,44 %
16.06.2016 03:07 13,3 C 93 % 1004,1 hPa 0,0 l/m 2,3 km/h (1 Bft) S 179 0 min 0,000 mm 0,0 UV-I 0 W/m 12,2 C 13,3 C 3,2 km/h (1 Bft) 100,00 %
16.06.2016 03:08 13,3 C 93 % 1004,1 hPa 0,0 l/m 3,5 km/h (1 Bft) S 179 0 min 0,000 mm 0,0 UV-I 0 W/m 12,2 C 13,3 C 4,8 km/h (1 Bft) 95,83 %
16.06.2016 03:09 13,3 C 93 % 1004,1 hPa 0,0 l/m 3,5 km/h (1 Bft) S 179 0 min 0,000 mm 0,0 UV-I 0 W/m 12,2 C 13,3 C 4,8 km/h (1 Bft) 100,00 %
16.06.2016 03:10 13,3 C 93 % 1004,0 hPa 0,0 l/m 3,1 km/h (1 Bft) S 179 0 min 0,000 mm 0,0 UV-I 0 W/m 12,2 C 13,3 C 3,2 km/h (1 Bft) 96,30 %
16.06.2016 03:11 13,3 C 93 % 1004,0 hPa 0,0 l/m 3,3 km/h (1 Bft) S 179 0 min 0,000 mm 0,0 UV-I 0 W/m 12,2 C 13,3 C 4,8 km/h (1 Bft) 100,00 %
16.06.2016 03:12 13,3 C 94 % 1004,0 hPa 0,0 l/m 2,4 km/h (1 Bft) S 179 0 min 0,000 mm 0,0 UV-I 0 W/m 12,4 C 13,3 C 3,2 km/h (1 Bft) 96,15 %
16.06.2016 03:13 13,3 C 94 % 1004,0 hPa 0,0 l/m 3,1 km/h (1 Bft) S 179 0 min 0,000 mm 0,0 UV-I 0 W/m 12,4 C 13,3 C 3,2 km/h (1 Bft) 100,00 %
16.06.2016 03:14 13,3 C 94 % 1004,0 hPa 0,0 l/m 1,7 km/h (1 Bft) S 179 0 min 0,000 mm 0,0 UV-I 0 W/m 12,4 C 13,3 C 3,2 km/h (1 Bft) 96,55 %
16.06.2016 03:15 13,3 C 94 % 1004,0 hPa 0,0 l/m 3,6 km/h (1 Bft) S 179 0 min 0,000 mm 0,0 UV-I 0 W/m 12,4 C 13,3 C 4,8 km/h (1 Bft) 100,00 %
16.06.2016 03:16 13,3 C 94 % 1004,0 hPa 0,0 l/m 2,8 km/h (1 Bft) S 179 0 min 0,000 mm 0,0 UV-I 0 W/m 12,4 C 13,3 C 3,2 km/h (1 Bft) 100,00 %
16.06.2016 03:17 13,3 C 94 % 1004,0 hPa 0,0 l/m 1,9 km/h (1 Bft) S 179 0 min 0,000 mm 0,0 UV-I 0 W/m 12,4 C 13,3 C 3,2 km/h (1 Bft) 95,83 %
16.06.2016 03:18 13,3 C 94 % 1004,0 hPa 0,0 l/m 2,7 km/h (1 Bft) S 179 0 min 0,000 mm 0,0 UV-I 0 W/m 12,4 C 13,3 C 3,2 km/h (1 Bft) 100,00 %
16.06.2016 03:19 13,4 C 94 % 1004,1 hPa 0,0 l/m 2,5 km/h (1 Bft) S 179 0 min 0,000 mm 0,0 UV-I 0 W/m 12,5 C 13,4 C 3,2 km/h (1 Bft) 95,83 %
16.06.2016 03:20 13,4 C 94 % 1004,1 hPa 0,0 l/m 3,1 km/h (1 Bft) S 179 0 min 0,000 mm 0,0 UV-I 0 W/m 12,5 C 13,4 C 4,8 km/h (1 Bft) 100,00 %
16.06.2016 03:21 13,4 C 94 % 1004,0 hPa 0,0 l/m 0,7 km/h (0 Bft) S 179 0 min 0,000 mm 0,0 UV-I 0 W/m 12,5 C 13,4 C 1,6 km/h (1 Bft) 96,30 %
16.06.2016 03:22 13,4 C 94 % 1004,1 hPa 0,0 l/m 1,9 km/h (1 Bft) S 179 0 min 0,000 mm 0,0 UV-I 0 W/m 12,5 C 13,4 C 4,8 km/h (1 Bft) 95,65 %
16.06.2016 03:23 13,4 C 94 % 1004,1 hPa 0,0 l/m 1,1 km/h (1 Bft) S 179 0 min 0,000 mm 0,0 UV-I 0 W/m 12,5 C 13,4 C 1,6 km/h (1 Bft) 95,83 %
16.06.2016 03:24 13,4 C 94 % 1004,1 hPa 0,0 l/m 0,4 km/h (0 Bft) S 179 0 min 0,000 mm 0,0 UV-I 0 W/m 12,5 C 13,4 C 1,6 km/h (1 Bft) 100,00 %
16.06.2016 03:25 13,4 C 94 % 1004,1 hPa 0,0 l/m 0,0 km/h (0 Bft) S 179 0 min 0,000 mm 0,0 UV-I 0 W/m 12,5 C 13,4 C 0,0 km/h (0 Bft) 100,00 %
16.06.2016 03:26 13,4 C 94 % 1004,1 hPa 0,0 l/m 0,3 km/h (0 Bft) S 179 0 min 0,000 mm 0,0 UV-I 0 W/m 12,5 C 13,4 C 1,6 km/h (1 Bft) 100,00 %
16.06.2016 03:27 13,4 C 93 % 1004,1 hPa 0,0 l/m 0,4 km/h (0 Bft) S 179 0 min 0,000 mm 0,0 UV-I 0 W/m 12,3 C 13,4 C 1,6 km/h (1 Bft) 100,00 %
16.06.2016 03:28 13,4 C 93 % 1004,1 hPa 0,0 l/m 0,8 km/h (0 Bft) S 179 0 min 0,000 mm 0,0 UV-I 0 W/m 12,3 C 13,4 C 1,6 km/h (1 Bft) 96,15 %
16.06.2016 03:29 13,4 C 93 % 1004,1 hPa 0,0 l/m 0,2 km/h (0 Bft) S 179 0 min 0,000 mm 0,0 UV-I 0 W/m 12,3 C 13,4 C 1,6 km/h (1 Bft) 100,00 %
16.06.2016 03:30 13,4 C 93 % 1004,0 hPa 0,0 l/m 0,2 km/h (0 Bft) S 179 0 min 0,000 mm 0,0 UV-I 0 W/m 12,3 C 13,4 C 1,6 km/h (1 Bft) 100,00 %
16.06.2016 03:31 13,4 C 93 % 1004,0 hPa 0,0 l/m 0,6 km/h (0 Bft) S 179 0 min 0,000 mm 0,0 UV-I 0 W/m 12,3 C 13,4 C 1,6 km/h (1 Bft) 100,00 %
16.06.2016 03:32 13,4 C 93 % 1003,9 hPa 0,0 l/m 0,8 km/h (0 Bft) S 179 0 min 0,000 mm 0,0 UV-I 0 W/m 12,3 C 13,4 C 1,6 km/h (1 Bft) 95,83 %
16.06.2016 03:33 13,4 C 93 % 1003,9 hPa 0,0 l/m 0,6 km/h (0 Bft) S 179 0 min 0,000 mm 0,0 UV-I 0 W/m 12,3 C 13,4 C 1,6 km/h (1 Bft) 100,00 %
16.06.2016 03:34 13,4 C 93 % 1003,9 hPa 0,0 l/m 0,1 km/h (0 Bft) S 179 0 min 0,000 mm 0,0 UV-I 0 W/m 12,3 C 13,4 C 1,6 km/h (1 Bft) 100,00 %
16.06.2016 03:35 13,4 C 93 % 1003,9 hPa 0,0 l/m 0,2 km/h (0 Bft) S 179 0 min 0,000 mm 0,0 UV-I 0 W/m 12,3 C 13,4 C 1,6 km/h (1 Bft) 96,15 %
16.06.2016 03:36 13,5 C 93 % 1003,8 hPa 0,0 l/m 0,0 km/h (0 Bft) S 179 0 min 0,000 mm 0,0 UV-I 0 W/m 12,4 C 13,5 C 0,0 km/h (0 Bft) 100,00 %
16.06.2016 03:37 13,4 C 93 % 1003,8 hPa 0,0 l/m 0,0 km/h (0 Bft) S 179 0 min 0,000 mm 0,0 UV-I 0 W/m 12,3 C 13,4 C 0,0 km/h (0 Bft) 100,00 %
16.06.2016 03:38 13,5 C 93 % 1003,8 hPa 0,0 l/m 0,0 km/h (0 Bft) S 179 0 min 0,000 mm 0,0 UV-I 0 W/m 12,4 C 13,5 C 0,0 km/h (0 Bft) 100,00 %
16.06.2016 03:39 13,5 C 93 % 1003,8 hPa 0,0 l/m 0,1 km/h (0 Bft) S 179 0 min 0,000 mm 0,0 UV-I 0 W/m 12,4 C 13,5 C 1,6 km/h (1 Bft) 100,00 %
16.06.2016 03:40 13,5 C 93 % 1003,7 hPa 0,0 l/m 0,2 km/h (0 Bft) S 179 0 min 0,000 mm 0,0 UV-I 0 W/m 12,4 C 13,5 C 1,6 km/h (1 Bft) 100,00 %
16.06.2016 03:41 13,4 C 93 % 1003,7 hPa 0,0 l/m 0,4 km/h (0 Bft) S 179 0 min 0,000 mm 0,0 UV-I 0 W/m 12,3 C 13,4 C 1,6 km/h (1 Bft) 100,00 %
16.06.2016 03:42 13,4 C 93 % 1003,7 hPa 0,0 l/m 0,3 km/h (0 Bft) S 179 0 min 0,000 mm 0,0 UV-I 0 W/m 12,3 C 13,4 C 1,6 km/h (1 Bft) 100,00 %
16.06.2016 03:43 13,4 C 93 % 1003,7 hPa 0,0 l/m 1,9 km/h (1 Bft) S 179 0 min 0,000 mm 0,0 UV-I 0 W/m 12,3 C 13,4 C 3,2 km/h (1 Bft) 100,00 %
16.06.2016 03:44 13,4 C 93 % 1003,7 hPa 0,0 l/m 0,0 km/h (0 Bft) S 179 0 min 0,000 mm 0,0 UV-I 0 W/m 12,3 C 13,4 C 0,0 km/h (0 Bft) 95,83 %
16.06.2016 03:45 13,3 C 93 % 1003,7 hPa 0,0 l/m 0,0 km/h (0 Bft) S 179 0 min 0,000 mm 0,0 UV-I 0 W/m 12,2 C 13,3 C 0,0 km/h (0 Bft) 100,00 %
16.06.2016 03:46 13,3 C 93 % 1003,7 hPa 0,0 l/m 0,1 km/h (0 Bft) S 179 0 min 0,000 mm 0,0 UV-I 0 W/m 12,2 C 13,3 C 1,6 km/h (1 Bft) 100,00 %
16.06.2016 03:47 13,3 C 93 % 1003,7 hPa 0,0 l/m 0,0 km/h (0 Bft) S 179 0 min 0,000 mm 0,0 UV-I 0 W/m 12,2 C 13,3 C 0,0 km/h (0 Bft) 100,00 %
16.06.2016 03:48 13,3 C 93 % 1003,7 hPa 0,0 l/m 0,0 km/h (0 Bft) S 179 0 min 0,000 mm 0,0 UV-I 0 W/m 12,2 C 13,3 C 0,0 km/h (0 Bft) 100,00 %
16.06.2016 03:49 13,2 C 93 % 1003,7 hPa 0,0 l/m 0,0 km/h (0 Bft) S 179 0 min 0,000 mm 0,0 UV-I 0 W/m 12,1 C 13,2 C 0,0 km/h (0 Bft) 100,00 %
16.06.2016 03:50 13,2 C 94 % 1003,7 hPa 0,0 l/m 0,0 km/h (0 Bft) S 179 0 min 0,000 mm 0,0 UV-I 0 W/m 12,3 C 13,2 C 0,0 km/h (0 Bft) 100,00 %
16.06.2016 03:51 13,2 C 94 % 1003,7 hPa 0,0 l/m 0,0 km/h (0 Bft) S 179 0 min 0,000 mm 0,0 UV-I 0 W/m 12,3 C 13,2 C 0,0 km/h (0 Bft) 100,00 %
16.06.2016 03:52 13,2 C 94 % 1003,7 hPa 0,0 l/m 0,0 km/h (0 Bft) S 179 0 min 0,000 mm 0,0 UV-I 0 W/m 12,3 C 13,2 C 0,0 km/h (0 Bft) 95,65 %
16.06.2016 03:53 13,2 C 94 % 1003,7 hPa 0,0 l/m 0,0 km/h (0 Bft) S 179 0 min 0,000 mm 0,0 UV-I 0 W/m 12,3 C 13,2 C 0,0 km/h (0 Bft) 100,00 %
16.06.2016 03:54 13,2 C 94 % 1003,7 hPa 0,0 l/m 0,0 km/h (0 Bft) S 179 0 min 0,000 mm 0,0 UV-I 0 W/m 12,3 C 13,2 C 0,0 km/h (0 Bft) 100,00 %
16.06.2016 03:55 13,2 C 94 % 1003,7 hPa 0,0 l/m 0,0 km/h (0 Bft) S 179 0 min 0,000 mm 0,0 UV-I 0 W/m 12,3 C 13,2 C 0,0 km/h (0 Bft) 100,00 %
16.06.2016 03:56 13,2 C 94 % 1003,7 hPa 0,0 l/m 0,0 km/h (0 Bft) S 179 0 min 0,000 mm 0,0 UV-I 0 W/m 12,3 C 13,2 C 0,0 km/h (0 Bft) 100,00 %
16.06.2016 03:57 13,2 C 94 % 1003,7 hPa 0,0 l/m 0,0 km/h (0 Bft) S 179 0 min 0,000 mm 0,0 UV-I 0 W/m 12,3 C 13,2 C 0,0 km/h (0 Bft) 100,00 %
16.06.2016 03:58 13,2 C 94 % 1003,7 hPa 0,0 l/m 0,0 km/h (0 Bft) S 179 0 min 0,000 mm 0,0 UV-I 0 W/m 12,3 C 13,2 C 0,0 km/h (0 Bft) 100,00 %
16.06.2016 03:59 13,2 C 94 % 1003,6 hPa 0,0 l/m 0,5 km/h (0 Bft) S 179 0 min 0,000 mm 0,0 UV-I 0 W/m 12,3 C 13,2 C 1,6 km/h (1 Bft) 100,00 %
16.06.2016 04:00 13,2 C 94 % 1003,6 hPa 0,0 l/m 1,4 km/h (1 Bft) S 179 0 min 0,000 mm 0,0 UV-I 0 W/m 12,3 C 13,2 C 1,6 km/h (1 Bft) 100,00 %
16.06.2016 04:02 13,2 C 94 % 1003,6 hPa 0,0 l/m 1,7 km/h (1 Bft) S 179 0 min 0,000 mm 0,0 UV-I 0 W/m 12,3 C 13,2 C 3,2 km/h (1 Bft) 100,00 %
16.06.2016 04:03 13,2 C 94 % 1003,6 hPa 0,0 l/m 2,4 km/h (1 Bft) S 179 0 min 0,000 mm 0,0 UV-I 0 W/m 12,3 C 13,2 C 3,2 km/h (1 Bft) 100,00 %
16.06.2016 04:04 13,2 C 94 % 1003,6 hPa 0,0 l/m 3,1 km/h (1 Bft) S 179 0 min 0,000 mm 0,0 UV-I 0 W/m 12,3 C 13,2 C 4,8 km/h (1 Bft) 100,00 %
16.06.2016 04:05 13,2 C 94 % 1003,6 hPa 0,0 l/m 3,0 km/h (1 Bft) S 178 0 min 0,000 mm 0,0 UV-I 0 W/m 12,3 C 13,2 C 4,8 km/h (1 Bft) 100,00 %
16.06.2016 04:06 13,2 C 94 % 1003,6 hPa 0,0 l/m 4,5 km/h (1 Bft) S-SO 161 0 min 0,000 mm 0,0 UV-I 0 W/m 12,3 C 13,2 C 6,4 km/h (2 Bft) 95,00 %
16.06.2016 04:07 13,2 C 94 % 1003,6 hPa 0,0 l/m 3,9 km/h (1 Bft) S-SO 161 0 min 0,000 mm 0,0 UV-I 0 W/m 12,3 C 13,2 C 6,4 km/h (2 Bft) 100,00 %
16.06.2016 04:08 13,2 C 94 % 1003,6 hPa 0,0 l/m 4,0 km/h (1 Bft) S-SO 159 0 min 0,000 mm 0,0 UV-I 0 W/m 12,3 C 13,2 C 6,4 km/h (2 Bft) 100,00 %
16.06.2016 04:09 13,2 C 94 % 1003,6 hPa 0,0 l/m 3,5 km/h (1 Bft) S-SO 148 0 min 0,000 mm 0,0 UV-I 0 W/m 12,3 C 13,2 C 4,8 km/h (1 Bft) 100,00 %
16.06.2016 04:10 13,3 C 94 % 1003,6 hPa 0,0 l/m 2,9 km/h (1 Bft) S-SO 148 0 min 0,000 mm 0,0 UV-I 0 W/m 12,4 C 13,3 C 4,8 km/h (1 Bft) 100,00 %
16.06.2016 04:11 13,2 C 94 % 1003,6 hPa 0,0 l/m 3,6 km/h (1 Bft) SO 146 0 min 0,000 mm 0,0 UV-I 0 W/m 12,3 C 13,2 C 4,8 km/h (1 Bft) 100,00 %
16.06.2016 04:12 13,2 C 94 % 1003,6 hPa 0,0 l/m 3,3 km/h (1 Bft) SO 136 0 min 0,000 mm 0,0 UV-I 0 W/m 12,3 C 13,2 C 4,8 km/h (1 Bft) 100,00 %
16.06.2016 04:13 13,2 C 94 % 1003,6 hPa 0,0 l/m 2,3 km/h (1 Bft) SO 136 0 min 0,000 mm 0,0 UV-I 0 W/m 12,3 C 13,2 C 3,2 km/h (1 Bft) 100,00 %
16.06.2016 04:14 13,2 C 94 % 1003,6 hPa 0,0 l/m 1,9 km/h (1 Bft) SO 136 0 min 0,000 mm 0,0 UV-I 0 W/m 12,3 C 13,2 C 3,2 km/h (1 Bft) 100,00 %
16.06.2016 04:15 13,2 C 94 % 1003,6 hPa 0,0 l/m 2,2 km/h (1 Bft) SO 136 0 min 0,000 mm 0,0 UV-I 0 W/m 12,3 C 13,2 C 3,2 km/h (1 Bft) 100,00 %
16.06.2016 04:16 13,2 C 94 % 1003,6 hPa 0,0 l/m 2,3 km/h (1 Bft) SO 136 0 min 0,000 mm 0,0 UV-I 0 W/m 12,3 C 13,2 C 3,2 km/h (1 Bft) 100,00 %
16.06.2016 04:17 13,2 C 94 % 1003,5 hPa 0,0 l/m 1,7 km/h (1 Bft) SO 136 0 min 0,000 mm 0,0 UV-I 0 W/m 12,3 C 13,2 C 3,2 km/h (1 Bft) 100,00 %
16.06.2016 04:18 13,2 C 94 % 1003,5 hPa 0,0 l/m 2,1 km/h (1 Bft) SO 136 0 min 0,000 mm 0,0 UV-I 0 W/m 12,3 C 13,2 C 3,2 km/h (1 Bft) 100,00 %
16.06.2016 04:19 13,2 C 94 % 1003,6 hPa 0,0 l/m 2,0 km/h (1 Bft) SO 136 0 min 0,000 mm 0,0 UV-I 0 W/m 12,3 C 13,2 C 3,2 km/h (1 Bft) 100,00 %
16.06.2016 04:20 13,2 C 94 % 1003,6 hPa 0,0 l/m 2,2 km/h (1 Bft) SO 136 0 min 0,000 mm 0,0 UV-I 0 W/m 12,3 C 13,2 C 3,2 km/h (1 Bft) 100,00 %
16.06.2016 04:21 13,2 C 94 % 1003,6 hPa 0,0 l/m 1,6 km/h (1 Bft) SO 136 0 min 0,000 mm 0,0 UV-I 0 W/m 12,3 C 13,2 C 3,2 km/h (1 Bft) 100,00 %
16.06.2016 04:22 13,1 C 94 % 1003,5 hPa 0,0 l/m 1,8 km/h (1 Bft) SO 136 0 min 0,000 mm 0,0 UV-I 0 W/m 12,2 C 13,1 C 3,2 km/h (1 Bft) 100,00 %
16.06.2016 04:23 13,1 C 94 % 1003,5 hPa 0,0 l/m 1,7 km/h (1 Bft) SO 136 0 min 0,000 mm 0,0 UV-I 0 W/m 12,2 C 13,1 C 3,2 km/h (1 Bft) 95,65 %
16.06.2016 04:24 13,1 C 94 % 1003,5 hPa 0,0 l/m 1,7 km/h (1 Bft) SO 136 0 min 0,000 mm 0,0 UV-I 0 W/m 12,2 C 13,1 C 3,2 km/h (1 Bft) 100,00 %
16.06.2016 04:25 13,1 C 94 % 1003,5 hPa 0,0 l/m 1,4 km/h (1 Bft) SO 136 0 min 0,000 mm 0,0 UV-I 0 W/m 12,2 C 13,1 C 3,2 km/h (1 Bft) 100,00 %
16.06.2016 04:26 13,1 C 94 % 1003,5 hPa 0,0 l/m 0,7 km/h (0 Bft) SO 136 0 min 0,000 mm 0,0 UV-I 0 W/m 12,2 C 13,1 C 1,6 km/h (1 Bft) 100,00 %
16.06.2016 04:27 13,1 C 94 % 1003,5 hPa 0,0 l/m 0,6 km/h (0 Bft) SO 136 0 min 0,000 mm 0,0 UV-I 0 W/m 12,2 C 13,1 C 1,6 km/h (1 Bft) 96,55 %
16.06.2016 04:28 13,1 C 94 % 1003,5 hPa 0,0 l/m 1,7 km/h (1 Bft) SO 136 0 min 0,000 mm 0,0 UV-I 0 W/m 12,2 C 13,1 C 3,2 km/h (1 Bft) 100,00 %
16.06.2016 04:29 13,1 C 94 % 1003,5 hPa 0,0 l/m 1,5 km/h (1 Bft) SO 136 0 min 0,000 mm 0,0 UV-I 0 W/m 12,2 C 13,1 C 3,2 km/h (1 Bft) 95,65 %
16.06.2016 04:30 13,1 C 94 % 1003,5 hPa 0,0 l/m 0,3 km/h (0 Bft) SO 136 0 min 0,000 mm 0,0 UV-I 0 W/m 12,2 C 13,1 C 1,6 km/h (1 Bft) 100,00 %
16.06.2016 04:31 13,1 C 94 % 1003,5 hPa 0,0 l/m 2,5 km/h (1 Bft) SO 136 0 min 0,000 mm 0,0 UV-I 0 W/m 12,2 C 13,1 C 3,2 km/h (1 Bft) 100,00 %
16.06.2016 04:32 13,1 C 94 % 1003,5 hPa 0,0 l/m 1,9 km/h (1 Bft) SO 136 0 min 0,000 mm 0,0 UV-I 0 W/m 12,2 C 13,1 C 3,2 km/h (1 Bft) 100,00 %
16.06.2016 04:33 13,1 C 94 % 1003,5 hPa 0,0 l/m 2,3 km/h (1 Bft) SO 136 0 min 0,000 mm 0,0 UV-I 0 W/m 12,2 C 13,1 C 3,2 km/h (1 Bft) 100,00 %
16.06.2016 04:34 13,1 C 94 % 1003,5 hPa 0,0 l/m 2,7 km/h (1 Bft) SO 136 0 min 0,000 mm 0,0 UV-I 0 W/m 12,2 C 13,1 C 3,2 km/h (1 Bft) 100,00 %
16.06.2016 04:35 13,0 C 94 % 1003,5 hPa 0,0 l/m 1,2 km/h (1 Bft) SO 136 0 min 0,000 mm 0,0 UV-I 0 W/m 12,1 C 13,0 C 1,6 km/h (1 Bft) 100,00 %
16.06.2016 04:36 13,0 C 94 % 1003,5 hPa 0,0 l/m 1,7 km/h (1 Bft) SO 136 0 min 0,000 mm 0,0 UV-I 0 W/m 12,1 C 13,0 C 3,2 km/h (1 Bft) 100,00 %
16.06.2016 04:37 13,0 C 94 % 1003,5 hPa 0,0 l/m 3,7 km/h (1 Bft) SO 134 0 min 0,000 mm 0,0 UV-I 0 W/m 12,1 C 13,0 C 4,8 km/h (1 Bft) 100,00 %
16.06.2016 04:38 13,0 C 94 % 1003,5 hPa 0,0 l/m 3,6 km/h (1 Bft) SO 134 0 min 0,000 mm 0,0 UV-I 0 W/m 12,1 C 13,0 C 4,8 km/h (1 Bft) 100,00 %
16.06.2016 04:39 13,0 C 94 % 1003,5 hPa 0,0 l/m 2,5 km/h (1 Bft) SO 134 0 min 0,000 mm 0,0 UV-I 0 W/m 12,1 C 13,0 C 3,2 km/h (1 Bft) 100,00 %
16.06.2016 04:40 12,9 C 94 % 1003,5 hPa 0,0 l/m 3,3 km/h (1 Bft) SO 134 0 min 0,000 mm 0,0 UV-I 0 W/m 12,0 C 12,9 C 4,8 km/h (1 Bft) 100,00 %
16.06.2016 04:41 12,9 C 93 % 1003,6 hPa 0,0 l/m 2,3 km/h (1 Bft) SO 134 0 min 0,000 mm 0,0 UV-I 0 W/m 11,8 C 12,9 C 3,2 km/h (1 Bft) 100,00 %
16.06.2016 04:42 12,9 C 93 % 1003,6 hPa 0,0 l/m 2,7 km/h (1 Bft) SO 134 0 min 0,000 mm 0,0 UV-I 0 W/m 11,8 C 12,9 C 4,8 km/h (1 Bft) 100,00 %
16.06.2016 04:43 12,9 C 94 % 1003,5 hPa 0,0 l/m 2,4 km/h (1 Bft) SO 134 0 min 0,000 mm 0,0 UV-I 0 W/m 12,0 C 12,9 C 3,2 km/h (1 Bft) 100,00 %
16.06.2016 04:44 12,9 C 94 % 1003,5 hPa 0,0 l/m 3,4 km/h (1 Bft) SO 134 0 min 0,000 mm 0,0 UV-I 0 W/m 12,0 C 12,9 C 4,8 km/h (1 Bft) 100,00 %
16.06.2016 04:45 12,9 C 94 % 1003,5 hPa 0,0 l/m 3,4 km/h (1 Bft) SO 134 0 min 0,000 mm 0,0 UV-I 0 W/m 12,0 C 12,9 C 4,8 km/h (1 Bft) 95,83 %
16.06.2016 04:46 12,9 C 94 % 1003,5 hPa 0,0 l/m 2,5 km/h (1 Bft) SO 134 0 min 0,000 mm 0,0 UV-I 0 W/m 12,0 C 12,9 C 3,2 km/h (1 Bft) 100,00 %
16.06.2016 04:47 12,9 C 94 % 1003,6 hPa 0,0 l/m 3,1 km/h (1 Bft) SO 134 0 min 0,000 mm 0,0 UV-I 0 W/m 12,0 C 12,9 C 4,8 km/h (1 Bft) 100,00 %
16.06.2016 04:48 12,9 C 94 % 1003,5 hPa 0,0 l/m 3,4 km/h (1 Bft) SO 134 0 min 0,000 mm 0,0 UV-I 0 W/m 12,0 C 12,9 C 4,8 km/h (1 Bft) 96,15 %
16.06.2016 04:49 12,9 C 94 % 1003,5 hPa 0,0 l/m 2,4 km/h (1 Bft) SO 134 0 min 0,000 mm 0,0 UV-I 0 W/m 12,0 C 12,9 C 3,2 km/h (1 Bft) 95,83 %
16.06.2016 04:50 12,9 C 94 % 1003,4 hPa 0,0 l/m 2,7 km/h (1 Bft) SO 134 0 min 0,000 mm 0,0 UV-I 0 W/m 12,0 C 12,9 C 4,8 km/h (1 Bft) 92,31 %
16.06.2016 04:51 12,8 C 94 % 1003,4 hPa 0,0 l/m 1,8 km/h (1 Bft) SO 134 0 min 0,000 mm 0,0 UV-I 0 W/m 11,9 C 12,8 C 3,2 km/h (1 Bft) 100,00 %
16.06.2016 04:52 12,8 C 94 % 1003,4 hPa 0,0 l/m 2,5 km/h (1 Bft) SO 134 0 min 0,000 mm 0,0 UV-I 0 W/m 11,9 C 12,8 C 3,2 km/h (1 Bft) 96,15 %
16.06.2016 04:53 12,8 C 94 % 1003,3 hPa 0,0 l/m 2,3 km/h (1 Bft) SO 134 0 min 0,000 mm 0,0 UV-I 0 W/m 11,9 C 12,8 C 3,2 km/h (1 Bft) 100,00 %
16.06.2016 04:54 12,8 C 93 % 1003,3 hPa 0,0 l/m 3,1 km/h (1 Bft) SO 134 0 min 0,000 mm 0,0 UV-I 0 W/m 11,7 C 12,8 C 4,8 km/h (1 Bft) 96,30 %
16.06.2016 04:55 12,7 C 93 % 1003,3 hPa 0,0 l/m 3,1 km/h (1 Bft) SO 134 0 min 0,000 mm 0,0 UV-I 0 W/m 11,6 C 12,7 C 4,8 km/h (1 Bft) 100,00 %
16.06.2016 04:56 12,7 C 93 % 1003,3 hPa 0,0 l/m 3,6 km/h (1 Bft) SO 133 0 min 0,000 mm 0,0 UV-I 0 W/m 11,6 C 12,7 C 4,8 km/h (1 Bft) 95,83 %
16.06.2016 04:57 12,7 C 93 % 1003,3 hPa 0,0 l/m 4,0 km/h (1 Bft) SO 132 0 min 0,000 mm 0,0 UV-I 0 W/m 11,6 C 12,7 C 4,8 km/h (1 Bft) 100,00 %
16.06.2016 04:58 12,7 C 93 % 1003,2 hPa 0,0 l/m 3,5 km/h (1 Bft) SO 132 0 min 0,000 mm 0,0 UV-I 0 W/m 11,6 C 12,7 C 4,8 km/h (1 Bft) 95,83 %
16.06.2016 04:59 12,6 C 94 % 1003,2 hPa 0,0 l/m 3,1 km/h (1 Bft) O-SO 122 0 min 0,000 mm 0,0 UV-I 0 W/m 11,7 C 12,6 C 3,2 km/h (1 Bft) 100,00 %
16.06.2016 05:00 12,6 C 94 % 1003,2 hPa 0,0 l/m 3,5 km/h (1 Bft) O 92 0 min 0,000 mm 0,0 UV-I 0 W/m 11,7 C 12,6 C 4,8 km/h (1 Bft) 96,67 %
16.06.2016 05:02 12,5 C 94 % 1003,2 hPa 0,0 l/m 3,8 km/h (1 Bft) O-NO 74 0 min 0,000 mm 0,0 UV-I 0 W/m 11,6 C 12,5 C 4,8 km/h (1 Bft) 98,11 %
16.06.2016 05:03 12,4 C 94 % 1003,2 hPa 0,0 l/m 3,4 km/h (1 Bft) O-NO 74 0 min 0,000 mm 0,0 UV-I 0 W/m 11,5 C 12,4 C 4,8 km/h (1 Bft) 95,65 %
16.06.2016 05:04 12,4 C 94 % 1003,2 hPa 0,0 l/m 3,6 km/h (1 Bft) O-NO 74 0 min 0,000 mm 0,0 UV-I 0 W/m 11,5 C 12,4 C 4,8 km/h (1 Bft) 100,00 %
16.06.2016 05:05 12,4 C 94 % 1003,2 hPa 0,0 l/m 3,7 km/h (1 Bft) O-NO 70 0 min 0,000 mm 0,0 UV-I 1 W/m 11,5 C 12,4 C 4,8 km/h (1 Bft) 95,65 %
16.06.2016 05:06 12,4 C 94 % 1003,1 hPa 0,0 l/m 4,5 km/h (1 Bft) O-NO 57 0 min 0,000 mm 0,0 UV-I 5 W/m 11,5 C 12,4 C 4,8 km/h (1 Bft) 96,30 %
16.06.2016 05:07 12,3 C 94 % 1003,1 hPa 0,0 l/m 4,1 km/h (1 Bft) O-NO 57 0 min 0,000 mm 0,0 UV-I 5 W/m 11,4 C 12,3 C 4,8 km/h (1 Bft) 100,00 %
16.06.2016 05:08 12,3 C 94 % 1003,1 hPa 0,0 l/m 3,2 km/h (1 Bft) O-NO 57 0 min 0,000 mm 0,0 UV-I 5 W/m 11,4 C 12,3 C 4,8 km/h (1 Bft) 95,83 %
16.06.2016 05:09 12,3 C 94 % 1003,1 hPa 0,0 l/m 3,3 km/h (1 Bft) O-NO 57 0 min 0,000 mm 0,0 UV-I 5 W/m 11,4 C 12,3 C 4,8 km/h (1 Bft) 100,00 %
16.06.2016 05:10 12,4 C 95 % 1003,1 hPa 0,0 l/m 3,5 km/h (1 Bft) O-NO 57 0 min 0,000 mm 0,0 UV-I 5 W/m 11,6 C 12,4 C 4,8 km/h (1 Bft) 95,83 %
16.06.2016 05:11 12,4 C 95 % 1003,1 hPa 0,0 l/m 3,5 km/h (1 Bft) O-NO 57 0 min 0,000 mm 0,0 UV-I 7 W/m 11,6 C 12,4 C 4,8 km/h (1 Bft) 100,00 %
16.06.2016 05:12 12,4 C 95 % 1003,1 hPa 0,0 l/m 3,1 km/h (1 Bft) O-NO 57 0 min 0,000 mm 0,0 UV-I 7 W/m 11,6 C 12,4 C 4,8 km/h (1 Bft) 95,83 %
16.06.2016 05:13 12,4 C 95 % 1003,1 hPa 0,0 l/m 2,7 km/h (1 Bft) O-NO 57 0 min 0,000 mm 0,0 UV-I 8 W/m 11,6 C 12,4 C 3,2 km/h (1 Bft) 100,00 %
16.06.2016 05:14 12,4 C 95 % 1003,1 hPa 0,0 l/m 2,8 km/h (1 Bft) O-NO 57 0 min 0,000 mm 0,0 UV-I 9 W/m 11,6 C 12,4 C 3,2 km/h (1 Bft) 96,88 %
16.06.2016 05:15 12,4 C 95 % 1003,1 hPa 0,0 l/m 2,8 km/h (1 Bft) O-NO 57 0 min 0,000 mm 0,0 UV-I 11 W/m 11,6 C 12,4 C 4,8 km/h (1 Bft) 96,30 %
16.06.2016 05:16 12,5 C 95 % 1003,1 hPa 0,0 l/m 3,0 km/h (1 Bft) O-NO 57 1 min 0,000 mm 0,0 UV-I 11 W/m 11,7 C 12,5 C 3,2 km/h (1 Bft) 100,00 %
16.06.2016 05:17 12,5 C 95 % 1003,1 hPa 0,0 l/m 3,5 km/h (1 Bft) O-NO 57 1 min 0,000 mm 0,0 UV-I 12 W/m 11,7 C 12,5 C 4,8 km/h (1 Bft) 100,00 %
16.06.2016 05:18 12,5 C 95 % 1003,0 hPa 0,0 l/m 3,6 km/h (1 Bft) O-NO 57 1 min 0,000 mm 0,0 UV-I 12 W/m 11,7 C 12,5 C 4,8 km/h (1 Bft) 95,65 %
16.06.2016 05:19 12,5 C 95 % 1003,0 hPa 0,0 l/m 3,5 km/h (1 Bft) O-NO 57 0 min 0,000 mm 0,0 UV-I 12 W/m 11,7 C 12,5 C 4,8 km/h (1 Bft) 95,83 %
16.06.2016 05:20 12,5 C 95 % 1003,0 hPa 0,0 l/m 3,2 km/h (1 Bft) O-NO 57 0 min 0,000 mm 0,0 UV-I 12 W/m 11,7 C 12,5 C 3,2 km/h (1 Bft) 100,00 %
16.06.2016 05:21 12,5 C 95 % 1003,0 hPa 0,0 l/m 3,4 km/h (1 Bft) O-NO 57 0 min 0,000 mm 0,0 UV-I 14 W/m 11,7 C 12,5 C 4,8 km/h (1 Bft) 95,83 %
16.06.2016 05:22 12,4 C 95 % 1003,0 hPa 0,0 l/m 3,6 km/h (1 Bft) O-NO 57 0 min 0,000 mm 0,0 UV-I 14 W/m 11,6 C 12,4 C 4,8 km/h (1 Bft) 100,00 %
16.06.2016 05:23 12,4 C 95 % 1003,0 hPa 0,0 l/m 3,8 km/h (1 Bft) O-NO 57 0 min 0,000 mm 0,0 UV-I 14 W/m 11,6 C 12,4 C 4,8 km/h (1 Bft) 100,00 %
16.06.2016 05:24 12,5 C 95 % 1003,0 hPa 0,0 l/m 4,2 km/h (1 Bft) O-NO 57 0 min 0,000 mm 0,0 UV-I 14 W/m 11,7 C 12,5 C 4,8 km/h (1 Bft) 100,00 %
16.06.2016 05:25 12,4 C 95 % 1002,9 hPa 0,0 l/m 3,4 km/h (1 Bft) O-NO 57 0 min 0,000 mm 0,0 UV-I 14 W/m 11,6 C 12,4 C 4,8 km/h (1 Bft) 100,00 %
16.06.2016 05:26 12,4 C 95 % 1002,9 hPa 0,0 l/m 4,6 km/h (1 Bft) O-NO 57 0 min 0,000 mm 0,0 UV-I 15 W/m 11,6 C 12,4 C 6,4 km/h (2 Bft) 96,15 %
16.06.2016 05:27 12,4 C 95 % 1002,9 hPa 0,0 l/m 3,4 km/h (1 Bft) O-NO 57 0 min 0,000 mm 0,0 UV-I 16 W/m 11,6 C 12,4 C 4,8 km/h (1 Bft) 100,00 %
16.06.2016 05:28 12,4 C 95 % 1003,0 hPa 0,0 l/m 3,6 km/h (1 Bft) O-NO 57 0 min 0,000 mm 0,0 UV-I 16 W/m 11,6 C 12,4 C 4,8 km/h (1 Bft) 96,15 %
16.06.2016 05:29 12,4 C 95 % 1003,0 hPa 0,0 l/m 3,7 km/h (1 Bft) O-NO 57 0 min 0,000 mm 0,0 UV-I 17 W/m 11,6 C 12,4 C 4,8 km/h (1 Bft) 100,00 %
16.06.2016 05:30 12,5 C 95 % 1003,0 hPa 0,0 l/m 3,8 km/h (1 Bft) O-NO 57 0 min 0,000 mm 0,0 UV-I 18 W/m 11,7 C 12,5 C 4,8 km/h (1 Bft) 100,00 %
16.06.2016 05:31 12,5 C 95 % 1003,0 hPa 0,0 l/m 3,8 km/h (1 Bft) O-NO 57 0 min 0,000 mm 0,0 UV-I 18 W/m 11,7 C 12,5 C 4,8 km/h (1 Bft) 100,00 %
16.06.2016 05:32 12,5 C 95 % 1003,0 hPa 0,0 l/m 3,1 km/h (1 Bft) O-NO 57 0 min 0,000 mm 0,0 UV-I 18 W/m 11,7 C 12,5 C 4,8 km/h (1 Bft) 100,00 %
16.06.2016 05:33 12,5 C 95 % 1002,9 hPa 0,0 l/m 3,4 km/h (1 Bft) O-NO 57 0 min 0,000 mm 0,0 UV-I 18 W/m 11,7 C 12,5 C 4,8 km/h (1 Bft) 100,00 %
16.06.2016 05:34 12,5 C 96 % 1002,8 hPa 0,0 l/m 3,2 km/h (1 Bft) O-NO 57 0 min 0,000 mm 0,0 UV-I 18 W/m 11,9 C 12,5 C 4,8 km/h (1 Bft) 100,00 %
16.06.2016 05:35 12,6 C 95 % 1002,8 hPa 0,0 l/m 2,8 km/h (1 Bft) O-NO 57 0 min 0,000 mm 0,0 UV-I 18 W/m 11,8 C 12,6 C 3,2 km/h (1 Bft) 100,00 %
16.06.2016 05:36 12,6 C 96 % 1002,9 hPa 0,0 l/m 3,5 km/h (1 Bft) O-NO 57 0 min 0,000 mm 0,0 UV-I 18 W/m 12,0 C 12,6 C 4,8 km/h (1 Bft) 100,00 %
16.06.2016 05:37 12,6 C 96 % 1002,9 hPa 0,0 l/m 3,2 km/h (1 Bft) O-NO 57 0 min 0,000 mm 0,0 UV-I 18 W/m 12,0 C 12,6 C 4,8 km/h (1 Bft) 100,00 %
16.06.2016 05:38 12,6 C 96 % 1002,9 hPa 0,0 l/m 2,9 km/h (1 Bft) O-NO 57 0 min 0,000 mm 0,0 UV-I 18 W/m 12,0 C 12,6 C 3,2 km/h (1 Bft) 100,00 %
16.06.2016 05:39 12,6 C 96 % 1002,8 hPa 0,0 l/m 1,7 km/h (1 Bft) O-NO 57 0 min 0,000 mm 0,0 UV-I 19 W/m 12,0 C 12,6 C 3,2 km/h (1 Bft) 100,00 %
16.06.2016 05:40 12,6 C 96 % 1002,9 hPa 0,0 l/m 2,5 km/h (1 Bft) O-NO 57 0 min 0,000 mm 0,0 UV-I 19 W/m 12,0 C 12,6 C 3,2 km/h (1 Bft) 100,00 %
16.06.2016 05:41 12,6 C 96 % 1002,9 hPa 0,0 l/m 0,7 km/h (0 Bft) O-NO 57 0 min 0,000 mm 0,0 UV-I 20 W/m 12,0 C 12,6 C 1,6 km/h (1 Bft) 100,00 %
16.06.2016 05:42 12,6 C 96 % 1002,9 hPa 0,0 l/m 1,4 km/h (1 Bft) O-NO 57 0 min 0,000 mm 0,0 UV-I 22 W/m 12,0 C 12,6 C 3,2 km/h (1 Bft) 100,00 %
16.06.2016 05:43 12,6 C 96 % 1003,0 hPa 0,0 l/m 0,5 km/h (0 Bft) O-NO 57 0 min 0,000 mm 0,0 UV-I 24 W/m 12,0 C 12,6 C 1,6 km/h (1 Bft) 100,00 %
16.06.2016 05:44 12,6 C 96 % 1003,0 hPa 0,0 l/m 0,6 km/h (0 Bft) O-NO 57 0 min 0,000 mm 0,0 UV-I 27 W/m 12,0 C 12,6 C 1,6 km/h (1 Bft) 100,00 %
16.06.2016 05:45 12,7 C 96 % 1003,0 hPa 0,0 l/m 2,5 km/h (1 Bft) O-NO 57 0 min 0,000 mm 0,0 UV-I 30 W/m 12,1 C 12,7 C 4,8 km/h (1 Bft) 100,00 %
16.06.2016 05:46 12,7 C 96 % 1003,0 hPa 0,0 l/m 4,1 km/h (1 Bft) O-NO 69 0 min 0,000 mm 0,0 UV-I 35 W/m 12,1 C 12,7 C 4,8 km/h (1 Bft) 100,00 %
16.06.2016 05:47 12,7 C 96 % 1003,0 hPa 0,0 l/m 2,7 km/h (1 Bft) O-NO 69 0 min 0,000 mm 0,0 UV-I 39 W/m 12,1 C 12,7 C 3,2 km/h (1 Bft) 100,00 %
16.06.2016 05:48 12,7 C 96 % 1002,9 hPa 0,0 l/m 1,9 km/h (1 Bft) O-NO 69 0 min 0,000 mm 0,0 UV-I 44 W/m 12,1 C 12,7 C 3,2 km/h (1 Bft) 100,00 %
16.06.2016 05:49 12,7 C 96 % 1003,0 hPa 0,0 l/m 2,6 km/h (1 Bft) O-NO 69 0 min 0,000 mm 0,0 UV-I 47 W/m 12,1 C 12,7 C 3,2 km/h (1 Bft) 100,00 %
16.06.2016 05:50 12,7 C 96 % 1003,0 hPa 0,0 l/m 2,8 km/h (1 Bft) O-NO 69 0 min 0,000 mm 0,0 UV-I 50 W/m 12,1 C 12,7 C 3,2 km/h (1 Bft) 91,30 %
16.06.2016 05:51 12,8 C 95 % 1002,9 hPa 0,0 l/m 3,1 km/h (1 Bft) O-NO 69 0 min 0,000 mm 0,0 UV-I 53 W/m 12,0 C 12,8 C 4,8 km/h (1 Bft) 100,00 %
16.06.2016 05:52 12,8 C 95 % 1002,8 hPa 0,0 l/m 4,4 km/h (1 Bft) O-NO 69 0 min 0,000 mm 0,0 UV-I 54 W/m 12,0 C 12,8 C 4,8 km/h (1 Bft) 100,00 %
16.06.2016 05:53 12,8 C 95 % 1002,7 hPa 0,0 l/m 4,1 km/h (1 Bft) O-NO 69 0 min 0,000 mm 0,0 UV-I 55 W/m 12,0 C 12,8 C 6,4 km/h (2 Bft) 100,00 %
16.06.2016 05:54 12,8 C 95 % 1002,7 hPa 0,0 l/m 4,4 km/h (1 Bft) O-NO 69 0 min 0,000 mm 0,0 UV-I 59 W/m 12,0 C 12,8 C 6,4 km/h (2 Bft) 96,15 %
16.06.2016 05:55 12,8 C 95 % 1002,7 hPa 0,0 l/m 5,1 km/h (1 Bft) O-NO 67 1 min 0,000 mm 0,0 UV-I 62 W/m 12,0 C 12,8 C 6,4 km/h (2 Bft) 100,00 %
16.06.2016 05:56 12,9 C 95 % 1002,7 hPa 0,0 l/m 4,5 km/h (1 Bft) O-NO 67 1 min 0,000 mm 0,0 UV-I 65 W/m 12,1 C 12,9 C 4,8 km/h (1 Bft) 100,00 %
16.06.2016 05:57 12,9 C 95 % 1002,7 hPa 0,0 l/m 5,4 km/h (1 Bft) O-NO 63 1 min 0,000 mm 0,0 UV-I 65 W/m 12,1 C 12,9 C 8,0 km/h (2 Bft) 100,00 %
16.06.2016 05:58 12,9 C 95 % 1002,7 hPa 0,0 l/m 5,4 km/h (1 Bft) O-NO 71 0 min 0,000 mm 0,0 UV-I 62 W/m 12,1 C 12,9 C 6,4 km/h (2 Bft) 100,00 %
16.06.2016 05:59 12,9 C 95 % 1002,7 hPa 0,0 l/m 5,6 km/h (1 Bft) O-NO 62 0 min 0,000 mm 0,0 UV-I 58 W/m 12,1 C 12,9 C 8,0 km/h (2 Bft) 100,00 %
16.06.2016 06:00 12,9 C 95 % 1002,7 hPa 0,0 l/m 5,9 km/h (2 Bft) O-NO 63 0 min 0,025 mm 0,0 UV-I 53 W/m 12,1 C 12,9 C 8,0 km/h (2 Bft) 100,00 %
16.06.2016 06:02 12,9 C 95 % 1002,8 hPa 0,0 l/m 5,4 km/h (1 Bft) O-NO 71 0 min 0,000 mm 0,0 UV-I 46 W/m 12,1 C 12,9 C 8,0 km/h (2 Bft) 100,00 %
16.06.2016 06:03 13,0 C 95 % 1002,7 hPa 0,0 l/m 5,8 km/h (2 Bft) O-NO 78 0 min 0,000 mm 0,0 UV-I 40 W/m 12,2 C 13,0 C 8,0 km/h (2 Bft) 100,00 %
16.06.2016 06:04 13,0 C 95 % 1002,7 hPa 0,0 l/m 5,6 km/h (1 Bft) NO 49 0 min 0,000 mm 0,0 UV-I 38 W/m 12,2 C 13,0 C 8,0 km/h (2 Bft) 100,00 %
16.06.2016 06:05 13,0 C 95 % 1002,7 hPa 0,0 l/m 7,1 km/h (2 Bft) O-NO 65 0 min 0,000 mm 0,0 UV-I 36 W/m 12,2 C 12,6 C 8,0 km/h (2 Bft) 100,00 %
16.06.2016 06:06 13,0 C 95 % 1002,7 hPa 0,0 l/m 7,8 km/h (2 Bft) O-NO 73 0 min 0,000 mm 0,0 UV-I 34 W/m 12,2 C 12,1 C 11,3 km/h (2 Bft) 100,00 %
16.06.2016 06:07 13,0 C 95 % 1002,7 hPa 0,0 l/m 7,6 km/h (2 Bft) O-NO 66 0 min 0,000 mm 0,0 UV-I 33 W/m 12,2 C 12,2 C 9,7 km/h (2 Bft) 96,15 %
16.06.2016 06:08 13,0 C 95 % 1002,8 hPa 0,0 l/m 7,5 km/h (2 Bft) O-NO 63 0 min 0,000 mm 0,0 UV-I 35 W/m 12,2 C 12,3 C 11,3 km/h (2 Bft) 100,00 %
16.06.2016 06:09 13,0 C 95 % 1002,8 hPa 0,0 l/m 7,4 km/h (2 Bft) O-NO 76 0 min 0,000 mm 0,0 UV-I 35 W/m 12,2 C 12,4 C 9,7 km/h (2 Bft) 100,00 %
16.06.2016 06:10 13,0 C 95 % 1002,8 hPa 0,0 l/m 7,7 km/h (2 Bft) O-NO 66 0 min 0,000 mm 0,0 UV-I 35 W/m 12,2 C 12,2 C 9,7 km/h (2 Bft) 100,00 %
16.06.2016 06:11 13,0 C 95 % 1002,7 hPa 0,0 l/m 7,3 km/h (2 Bft) O-NO 74 0 min 0,000 mm 0,0 UV-I 37 W/m 12,2 C 12,4 C 11,3 km/h (2 Bft) 100,00 %
16.06.2016 06:12 13,0 C 95 % 1002,7 hPa 0,0 l/m 6,2 km/h (2 Bft) O-NO 74 0 min 0,000 mm 0,0 UV-I 38 W/m 12,2 C 13,0 C 8,0 km/h (2 Bft) 100,00 %
16.06.2016 06:13 12,9 C 95 % 1002,7 hPa 0,0 l/m 4,2 km/h (1 Bft) O-NO 64 0 min 0,000 mm 0,0 UV-I 40 W/m 12,1 C 12,9 C 6,4 km/h (2 Bft) 100,00 %
16.06.2016 06:14 12,9 C 95 % 1002,7 hPa 0,0 l/m 3,8 km/h (1 Bft) O-NO 64 0 min 0,000 mm 0,0 UV-I 42 W/m 12,1 C 12,9 C 4,8 km/h (1 Bft) 100,00 %
16.06.2016 06:15 12,9 C 95 % 1002,7 hPa 0,0 l/m 4,8 km/h (1 Bft) O-NO 62 0 min 0,000 mm 0,0 UV-I 42 W/m 12,1 C 12,9 C 8,0 km/h (2 Bft) 100,00 %
16.06.2016 06:16 12,9 C 95 % 1002,7 hPa 0,0 l/m 5,2 km/h (1 Bft) O 82 0 min 0,000 mm 0,0 UV-I 45 W/m 12,1 C 12,9 C 6,4 km/h (2 Bft) 100,00 %
16.06.2016 06:17 12,9 C 94 % 1002,7 hPa 0,0 l/m 4,6 km/h (1 Bft) O-NO 78 0 min 0,000 mm 0,0 UV-I 46 W/m 12,0 C 12,9 C 6,4 km/h (2 Bft) 100,00 %
16.06.2016 06:18 12,9 C 94 % 1002,7 hPa 0,0 l/m 4,8 km/h (1 Bft) O-NO 70 0 min 0,000 mm 0,0 UV-I 47 W/m 12,0 C 12,9 C 6,4 km/h (2 Bft) 100,00 %
16.06.2016 06:19 12,9 C 94 % 1002,7 hPa 0,0 l/m 3,5 km/h (1 Bft) O-NO 70 0 min 0,000 mm 0,0 UV-I 49 W/m 12,0 C 12,9 C 4,8 km/h (1 Bft) 92,86 %
16.06.2016 06:20 12,9 C 94 % 1002,7 hPa 0,0 l/m 6,0 km/h (2 Bft) O-NO 60 0 min 0,000 mm 0,0 UV-I 51 W/m 12,0 C 12,9 C 9,7 km/h (2 Bft) 100,00 %
16.06.2016 06:21 12,9 C 94 % 1002,7 hPa 0,0 l/m 4,9 km/h (1 Bft) O-NO 61 0 min 0,000 mm 0,0 UV-I 51 W/m 12,0 C 12,9 C 6,4 km/h (2 Bft) 100,00 %
16.06.2016 06:22 12,9 C 94 % 1002,7 hPa 0,0 l/m 5,6 km/h (1 Bft) O-NO 68 0 min 0,000 mm 0,0 UV-I 53 W/m 12,0 C 12,9 C 8,0 km/h (2 Bft) 100,00 %
16.06.2016 06:23 12,9 C 94 % 1002,7 hPa 0,0 l/m 6,2 km/h (2 Bft) O 81 0 min 0,000 mm 0,0 UV-I 53 W/m 12,0 C 12,9 C 8,0 km/h (2 Bft) 100,00 %
16.06.2016 06:24 12,9 C 94 % 1002,7 hPa 0,0 l/m 9,3 km/h (2 Bft) O-NO 76 0 min 0,000 mm 0,0 UV-I 54 W/m 12,0 C 11,2 C 12,9 km/h (3 Bft) 100,00 %
16.06.2016 06:25 12,9 C 94 % 1002,7 hPa 0,0 l/m 6,2 km/h (2 Bft) O 88 0 min 0,000 mm 0,0 UV-I 54 W/m 12,0 C 12,9 C 11,3 km/h (2 Bft) 96,15 %
16.06.2016 06:26 12,9 C 94 % 1002,7 hPa 0,0 l/m 4,7 km/h (1 Bft) O-NO 72 0 min 0,000 mm 0,0 UV-I 54 W/m 12,0 C 12,9 C 8,0 km/h (2 Bft) 100,00 %
16.06.2016 06:27 12,9 C 94 % 1002,7 hPa 0,0 l/m 2,9 km/h (1 Bft) O-NO 72 0 min 0,000 mm 0,0 UV-I 54 W/m 12,0 C 12,9 C 4,8 km/h (1 Bft) 100,00 %
16.06.2016 06:28 12,9 C 94 % 1002,7 hPa 0,0 l/m 3,6 km/h (1 Bft) O-NO 71 0 min 0,000 mm 0,0 UV-I 54 W/m 12,0 C 12,9 C 4,8 km/h (1 Bft) 100,00 %
16.06.2016 06:29 12,9 C 94 % 1002,7 hPa 0,0 l/m 5,6 km/h (1 Bft) O-SO 106 0 min 0,000 mm 0,0 UV-I 53 W/m 12,0 C 12,9 C 8,0 km/h (2 Bft) 100,00 %
16.06.2016 06:30 12,9 C 94 % 1002,7 hPa 0,0 l/m 4,6 km/h (1 Bft) O-NO 76 0 min 0,000 mm 0,0 UV-I 52 W/m 12,0 C 12,9 C 6,4 km/h (2 Bft) 95,83 %
16.06.2016 06:31 12,9 C 94 % 1002,7 hPa 0,0 l/m 3,9 km/h (1 Bft) O 84 0 min 0,000 mm 0,0 UV-I 53 W/m 12,0 C 12,9 C 8,0 km/h (2 Bft) 100,00 %
16.06.2016 06:32 12,9 C 94 % 1002,7 hPa 0,0 l/m 6,4 km/h (2 Bft) NO 53 0 min 0,000 mm 0,0 UV-I 57 W/m 12,0 C 12,9 C 9,7 km/h (2 Bft) 91,30 %
16.06.2016 06:33 13,0 C 94 % 1002,6 hPa 0,0 l/m 6,7 km/h (2 Bft) O-NO 76 0 min 0,000 mm 0,0 UV-I 53 W/m 12,1 C 12,8 C 12,9 km/h (3 Bft) 100,00 %
16.06.2016 06:34 13,0 C 94 % 1002,6 hPa 0,0 l/m 8,9 km/h (2 Bft) O-NO 61 0 min 0,000 mm 0,0 UV-I 41 W/m 12,1 C 11,5 C 12,9 km/h (3 Bft) 100,00 %
16.06.2016 06:35 13,0 C 94 % 1002,5 hPa 0,0 l/m 8,4 km/h (2 Bft) O-NO 74 0 min 0,000 mm 0,0 UV-I 42 W/m 12,1 C 11,8 C 12,9 km/h (3 Bft) 100,00 %
16.06.2016 06:36 13,0 C 94 % 1002,5 hPa 0,0 l/m 5,5 km/h (1 Bft) O 83 0 min 0,000 mm 0,0 UV-I 49 W/m 12,1 C 13,0 C 6,4 km/h (2 Bft) 100,00 %
16.06.2016 06:37 13,0 C 94 % 1002,5 hPa 0,0 l/m 6,7 km/h (2 Bft) O 92 0 min 0,000 mm 0,0 UV-I 37 W/m 12,1 C 12,8 C 11,3 km/h (2 Bft) 100,00 %
16.06.2016 06:38 13,0 C 94 % 1002,5 hPa 0,0 l/m 6,4 km/h (2 Bft) O-NO 75 0 min 0,000 mm 0,0 UV-I 33 W/m 12,1 C 13,0 C 8,0 km/h (2 Bft) 95,65 %
16.06.2016 06:39 13,0 C 94 % 1002,5 hPa 0,0 l/m 8,3 km/h (2 Bft) O-NO 69 0 min 0,000 mm 0,0 UV-I 33 W/m 12,1 C 11,8 C 11,3 km/h (2 Bft) 100,00 %
16.06.2016 06:40 13,0 C 94 % 1002,5 hPa 0,0 l/m 6,3 km/h (2 Bft) O-NO 67 0 min 0,000 mm 0,0 UV-I 33 W/m 12,1 C 13,0 C 8,0 km/h (2 Bft) 100,00 %
16.06.2016 06:41 13,0 C 94 % 1002,5 hPa 0,0 l/m 6,4 km/h (2 Bft) O-NO 67 0 min 0,000 mm 0,0 UV-I 34 W/m 12,1 C 13,0 C 8,0 km/h (2 Bft) 100,00 %
16.06.2016 06:42 13,0 C 94 % 1002,5 hPa 0,0 l/m 6,6 km/h (2 Bft) O 81 0 min 0,000 mm 0,0 UV-I 70 W/m 12,1 C 12,9 C 11,3 km/h (2 Bft) 100,00 %
16.06.2016 06:43 13,0 C 94 % 1002,5 hPa 0,0 l/m 7,1 km/h (2 Bft) O 95 0 min 0,000 mm 0,0 UV-I 115 W/m 12,1 C 12,6 C 12,9 km/h (3 Bft) 100,00 %
16.06.2016 06:44 13,0 C 94 % 1002,6 hPa 0,0 l/m 5,4 km/h (1 Bft) O 98 0 min 0,000 mm 0,0 UV-I 49 W/m 12,1 C 13,0 C 6,4 km/h (2 Bft) 95,65 %
16.06.2016 06:45 13,0 C 94 % 1002,5 hPa 0,0 l/m 4,6 km/h (1 Bft) O-NO 78 0 min 0,000 mm 0,0 UV-I 81 W/m 12,1 C 13,0 C 6,4 km/h (2 Bft) 100,00 %
16.06.2016 06:46 13,1 C 94 % 1002,5 hPa 0,0 l/m 4,9 km/h (1 Bft) O-NO 64 0 min 0,000 mm 0,0 UV-I 124 W/m 12,2 C 13,1 C 6,4 km/h (2 Bft) 100,00 %
16.06.2016 06:47 13,1 C 94 % 1002,5 hPa 0,0 l/m 5,7 km/h (1 Bft) NO 49 0 min 0,000 mm 0,0 UV-I 127 W/m 12,2 C 13,1 C 8,0 km/h (2 Bft) 100,00 %
16.06.2016 06:48 13,1 C 94 % 1002,5 hPa 0,0 l/m 5,9 km/h (2 Bft) NO 49 0 min 0,000 mm 0,0 UV-I 131 W/m 12,2 C 13,1 C 6,4 km/h (2 Bft) 100,00 %
16.06.2016 06:49 13,2 C 93 % 1002,4 hPa 0,0 l/m 4,5 km/h (1 Bft) O-NO 57 0 min 0,000 mm 0,0 UV-I 136 W/m 12,1 C 13,2 C 6,4 km/h (2 Bft) 100,00 %
16.06.2016 06:50 13,2 C 94 % 1002,5 hPa 0,0 l/m 4,0 km/h (1 Bft) NO 43 1 min 0,000 mm 0,0 UV-I 141 W/m 12,3 C 13,2 C 6,4 km/h (2 Bft) 92,59 %
16.06.2016 06:51 13,2 C 94 % 1002,4 hPa 0,0 l/m 6,3 km/h (2 Bft) NO 46 0 min 0,000 mm 0,0 UV-I 121 W/m 12,3 C 13,2 C 8,0 km/h (2 Bft) 100,00 %
16.06.2016 06:52 13,3 C 94 % 1002,5 hPa 0,0 l/m 7,4 km/h (2 Bft) NO 40 0 min 0,000 mm 0,0 UV-I 42 W/m 12,4 C 12,7 C 9,7 km/h (2 Bft) 100,00 %
16.06.2016 06:53 13,3 C 94 % 1002,5 hPa 0,0 l/m 5,7 km/h (1 Bft) NO 51 0 min 0,000 mm 0,0 UV-I 42 W/m 12,4 C 13,3 C 8,0 km/h (2 Bft) 96,15 %
16.06.2016 06:54 13,3 C 94 % 1002,5 hPa 0,0 l/m 4,7 km/h (1 Bft) O-NO 78 0 min 0,000 mm 0,0 UV-I 120 W/m 12,4 C 13,3 C 8,0 km/h (2 Bft) 93,33 %
16.06.2016 06:55 13,4 C 94 % 1002,5 hPa 0,0 l/m 3,5 km/h (1 Bft) O-NO 57 1 min 0,000 mm 0,0 UV-I 168 W/m 12,5 C 13,4 C 8,0 km/h (2 Bft) 100,00 %
16.06.2016 06:56 13,4 C 94 % 1002,5 hPa 0,0 l/m 6,9 km/h (2 Bft) O-NO 59 1 min 0,000 mm 0,0 UV-I 166 W/m 12,5 C 13,1 C 9,7 km/h (2 Bft) 95,83 %
16.06.2016 06:57 13,4 C 93 % 1002,4 hPa 0,0 l/m 6,9 km/h (2 Bft) N-NO 25 1 min 0,000 mm 0,0 UV-I 173 W/m 12,3 C 13,1 C 9,7 km/h (2 Bft) 92,86 %
16.06.2016 06:58 13,4 C 93 % 1002,4 hPa 0,0 l/m 7,9 km/h (2 Bft) N-NO 28 1 min 0,000 mm 0,0 UV-I 177 W/m 12,3 C 12,5 C 12,9 km/h (3 Bft) 95,83 %
16.06.2016 06:59 13,5 C 93 % 1002,4 hPa 0,0 l/m 6,6 km/h (2 Bft) NO 48 1 min 0,000 mm 0,0 UV-I 180 W/m 12,4 C 13,4 C 9,7 km/h (2 Bft) 96,55 %
16.06.2016 07:00 13,5 C 93 % 1002,3 hPa 0,0 l/m 10,9 km/h (2 Bft) NO 38 1 min 0,051 mm 0,0 UV-I 181 W/m 12,4 C 11,0 C 16,1 km/h (3 Bft) 100,00 %
16.06.2016 07:01 13,6 C 93 % 1002,3 hPa 0,0 l/m 7,6 km/h (2 Bft) O-NO 58 1 min 0,000 mm 0,0 UV-I 184 W/m 12,5 C 12,9 C 11,3 km/h (2 Bft) 96,15 %
16.06.2016 07:02 13,6 C 93 % 1002,3 hPa 0,0 l/m 6,0 km/h (2 Bft) N-NO 28 1 min 0,000 mm 0,0 UV-I 186 W/m 12,5 C 13,6 C 9,7 km/h (2 Bft) 95,83 %
16.06.2016 07:03 13,6 C 93 % 1002,3 hPa 0,0 l/m 7,5 km/h (2 Bft) N-NO 21 1 min 0,000 mm 0,0 UV-I 187 W/m 12,5 C 12,9 C 11,3 km/h (2 Bft) 96,15 %
16.06.2016 07:04 13,7 C 93 % 1002,3 hPa 0,0 l/m 6,3 km/h (2 Bft) N-NO 28 1 min 0,000 mm 0,0 UV-I 190 W/m 12,6 C 13,7 C 9,7 km/h (2 Bft) 100,00 %
16.06.2016 07:05 13,7 C 93 % 1002,3 hPa 0,0 l/m 5,0 km/h (1 Bft) NO 48 1 min 0,000 mm 0,0 UV-I 191 W/m 12,6 C 13,7 C 6,4 km/h (2 Bft) 91,67 %
16.06.2016 07:06 13,8 C 93 % 1002,3 hPa 0,0 l/m 3,8 km/h (1 Bft) N-NO 32 1 min 0,000 mm 0,0 UV-I 196 W/m 12,7 C 13,8 C 4,8 km/h (1 Bft) 100,00 %
16.06.2016 07:07 13,8 C 93 % 1002,3 hPa 0,0 l/m 9,1 km/h (2 Bft) O 82 1 min 0,000 mm 0,4 UV-I 200 W/m 12,7 C 12,2 C 12,9 km/h (3 Bft) 96,30 %
16.06.2016 07:08 13,9 C 93 % 1002,3 hPa 0,0 l/m 8,0 km/h (2 Bft) O-NO 74 1 min 0,000 mm 0,5 UV-I 204 W/m 12,8 C 12,9 C 11,3 km/h (2 Bft) 96,15 %
16.06.2016 07:09 13,9 C 93 % 1002,3 hPa 0,0 l/m 10,2 km/h (2 Bft) N-NO 30 1 min 0,000 mm 0,5 UV-I 206 W/m 12,8 C 11,8 C 14,5 km/h (3 Bft) 100,00 %
16.06.2016 07:10 14,0 C 93 % 1002,2 hPa 0,0 l/m 11,5 km/h (2 Bft) O-NO 59 1 min 0,000 mm 0,5 UV-I 207 W/m 12,9 C 11,3 C 17,7 km/h (3 Bft) 93,33 %
16.06.2016 07:11 14,0 C 92 % 1002,3 hPa 0,0 l/m 9,7 km/h (2 Bft) O-NO 70 1 min 0,000 mm 0,5 UV-I 196 W/m 12,7 C 12,2 C 14,5 km/h (3 Bft) 100,00 %
16.06.2016 07:12 14,1 C 91 % 1002,2 hPa 0,0 l/m 10,3 km/h (2 Bft) O-NO 60 1 min 0,000 mm 0,5 UV-I 209 W/m 12,7 C 12,0 C 14,5 km/h (3 Bft) 95,65 %
16.06.2016 07:13 14,1 C 91 % 1002,3 hPa 0,0 l/m 7,2 km/h (2 Bft) NO 49 1 min 0,000 mm 0,5 UV-I 216 W/m 12,7 C 13,6 C 11,3 km/h (2 Bft) 100,00 %
16.06.2016 07:14 14,1 C 91 % 1002,3 hPa 0,0 l/m 5,7 km/h (1 Bft) O-NO 57 1 min 0,000 mm 0,5 UV-I 186 W/m 12,7 C 14,1 C 12,9 km/h (3 Bft) 91,30 %
16.06.2016 07:15 14,1 C 91 % 1002,3 hPa 0,0 l/m 9,2 km/h (2 Bft) N-NO 32 1 min 0,000 mm 0,5 UV-I 185 W/m 12,7 C 12,5 C 12,9 km/h (3 Bft) 100,00 %
16.06.2016 07:16 14,2 C 91 % 1002,3 hPa 0,0 l/m 6,8 km/h (2 Bft) NO 53 1 min 0,000 mm 0,5 UV-I 226 W/m 12,8 C 14,0 C 9,7 km/h (2 Bft) 96,15 %
16.06.2016 07:17 14,2 C 91 % 1002,3 hPa 0,0 l/m 7,8 km/h (2 Bft) O-NO 58 1 min 0,000 mm 0,5 UV-I 227 W/m 12,8 C 13,4 C 9,7 km/h (2 Bft) 95,83 %
16.06.2016 07:18 14,2 C 91 % 1002,3 hPa 0,0 l/m 5,0 km/h (1 Bft) O-NO 58 1 min 0,000 mm 0,6 UV-I 229 W/m 12,8 C 14,2 C 6,4 km/h (2 Bft) 100,00 %
16.06.2016 07:19 14,3 C 91 % 1002,3 hPa 0,0 l/m 6,3 km/h (2 Bft) NO 47 1 min 0,000 mm 0,6 UV-I 232 W/m 12,8 C 14,3 C 8,0 km/h (2 Bft) 100,00 %
16.06.2016 07:20 14,3 C 91 % 1002,3 hPa 0,0 l/m 8,4 km/h (2 Bft) O-NO 57 1 min 0,000 mm 0,6 UV-I 236 W/m 12,8 C 13,1 C 11,3 km/h (2 Bft) 96,15 %
16.06.2016 07:21 14,3 C 91 % 1002,1 hPa 0,0 l/m 8,4 km/h (2 Bft) O-NO 59 1 min 0,000 mm 0,6 UV-I 237 W/m 12,8 C 13,1 C 12,9 km/h (3 Bft) 100,00 %
16.06.2016 07:22 14,4 C 90 % 1002,1 hPa 0,0 l/m 8,0 km/h (2 Bft) NO 40 1 min 0,000 mm 0,6 UV-I 241 W/m 12,8 C 13,5 C 12,9 km/h (3 Bft) 100,00 %
16.06.2016 07:23 14,4 C 90 % 1002,1 hPa 0,0 l/m 8,3 km/h (2 Bft) NO 43 1 min 0,000 mm 0,6 UV-I 246 W/m 12,8 C 13,3 C 14,5 km/h (3 Bft) 100,00 %
16.06.2016 07:24 14,4 C 91 % 1002,1 hPa 0,0 l/m 10,4 km/h (2 Bft) O-NO 63 1 min 0,000 mm 0,6 UV-I 252 W/m 12,9 C 12,3 C 14,5 km/h (3 Bft) 96,15 %
16.06.2016 07:25 14,5 C 90 % 1002,1 hPa 0,0 l/m 10,1 km/h (2 Bft) NO 49 1 min 0,000 mm 0,6 UV-I 257 W/m 12,9 C 12,5 C 14,5 km/h (3 Bft) 96,97 %
16.06.2016 07:26 14,5 C 90 % 1002,1 hPa 0,0 l/m 7,2 km/h (2 Bft) O-NO 63 1 min 0,000 mm 0,6 UV-I 259 W/m 12,9 C 14,0 C 9,7 km/h (2 Bft) 100,00 %
16.06.2016 07:27 14,6 C 89 % 1002,1 hPa 0,0 l/m 9,1 km/h (2 Bft) NO 36 1 min 0,000 mm 0,7 UV-I 263 W/m 12,8 C 13,1 C 14,5 km/h (3 Bft) 95,65 %
16.06.2016 07:28 14,6 C 89 % 1002,1 hPa 0,0 l/m 11,3 km/h (2 Bft) NO 46 1 min 0,000 mm 0,7 UV-I 268 W/m 12,8 C 12,1 C 17,7 km/h (3 Bft) 100,00 %
16.06.2016 07:29 14,6 C 90 % 1002,1 hPa 0,0 l/m 8,6 km/h (2 Bft) NO 55 1 min 0,000 mm 0,7 UV-I 271 W/m 13,0 C 13,4 C 17,7 km/h (3 Bft) 100,00 %
16.06.2016 07:30 14,7 C 90 % 1002,1 hPa 0,0 l/m 11,2 km/h (2 Bft) NO 51 1 min 0,000 mm 0,7 UV-I 274 W/m 13,1 C 12,3 C 17,7 km/h (3 Bft) 100,00 %
16.06.2016 07:31 14,7 C 89 % 1002,1 hPa 0,0 l/m 11,5 km/h (2 Bft) NO 49 1 min 0,000 mm 0,7 UV-I 276 W/m 12,9 C 12,1 C 17,7 km/h (3 Bft) 100,00 %
16.06.2016 07:32 14,7 C 89 % 1002,1 hPa 0,0 l/m 11,5 km/h (2 Bft) N-NO 31 1 min 0,000 mm 0,7 UV-I 280 W/m 12,9 C 12,1 C 16,1 km/h (3 Bft) 96,67 %
16.06.2016 07:33 14,8 C 89 % 1002,1 hPa 0,0 l/m 7,9 km/h (2 Bft) NO 53 1 min 0,000 mm 0,7 UV-I 283 W/m 13,0 C 13,9 C 11,3 km/h (2 Bft) 100,00 %
16.06.2016 07:34 14,8 C 89 % 1002,1 hPa 0,0 l/m 7,9 km/h (2 Bft) N-NO 28 1 min 0,000 mm 0,7 UV-I 288 W/m 13,0 C 13,9 C 9,7 km/h (2 Bft) 98,69 %
16.06.2016 07:35 14,8 C 89 % 1002,1 hPa 0,0 l/m 9,7 km/h (2 Bft) NO 45 1 min 0,000 mm 0,8 UV-I 292 W/m 13,0 C 13,0 C 14,5 km/h (3 Bft) 100,00 %
16.06.2016 07:36 14,8 C 89 % 1002,1 hPa 0,0 l/m 10,7 km/h (2 Bft) N-NO 26 1 min 0,000 mm 0,8 UV-I 296 W/m 13,0 C 12,6 C 17,7 km/h (3 Bft) 100,00 %
16.06.2016 07:37 14,9 C 89 % 1002,1 hPa 0,0 l/m 8,3 km/h (2 Bft) N-NO 32 1 min 0,000 mm 0,8 UV-I 302 W/m 13,1 C 13,8 C 11,3 km/h (2 Bft) 100,00 %
16.06.2016 07:38 14,9 C 89 % 1002,1 hPa 0,0 l/m 8,9 km/h (2 Bft) NO 38 1 min 0,000 mm 0,8 UV-I 307 W/m 13,1 C 13,5 C 12,9 km/h (3 Bft) 100,00 %
16.06.2016 07:39 15,0 C 89 % 1002,2 hPa 0,0 l/m 11,0 km/h (2 Bft) O-NO 75 1 min 0,000 mm 0,8 UV-I 310 W/m 13,2 C 12,7 C 14,5 km/h (3 Bft) 100,00 %
16.06.2016 07:40 15,1 C 88 % 1002,1 hPa 0,0 l/m 11,1 km/h (2 Bft) NO 45 1 min 0,000 mm 0,8 UV-I 313 W/m 13,1 C 12,8 C 17,7 km/h (3 Bft) 100,00 %
16.06.2016 07:41 15,1 C 87 % 1002,1 hPa 0,0 l/m 10,9 km/h (2 Bft) NO 55 1 min 0,000 mm 0,8 UV-I 316 W/m 13,0 C 12,8 C 16,1 km/h (3 Bft) 100,00 %
16.06.2016 07:42 15,1 C 87 % 1002,1 hPa 0,0 l/m 8,9 km/h (2 Bft) NO 46 1 min 0,000 mm 0,9 UV-I 320 W/m 13,0 C 13,7 C 16,1 km/h (3 Bft) 100,00 %
16.06.2016 07:43 15,1 C 87 % 1002,1 hPa 0,0 l/m 10,2 km/h (2 Bft) O 88 1 min 0,000 mm 0,9 UV-I 324 W/m 13,0 C 13,1 C 17,7 km/h (3 Bft) 95,65 %
16.06.2016 07:44 15,1 C 87 % 1002,1 hPa 0,0 l/m 9,4 km/h (2 Bft) O-NO 62 1 min 0,000 mm 0,9 UV-I 328 W/m 13,0 C 13,5 C 17,7 km/h (3 Bft) 100,00 %
16.06.2016 07:45 15,2 C 87 % 1002,1 hPa 0,0 l/m 13,2 km/h (3 Bft) O-NO 60 1 min 0,000 mm 0,9 UV-I 331 W/m 13,0 C 12,1 C 19,3 km/h (3 Bft) 100,00 %
16.06.2016 07:46 15,2 C 87 % 1002,1 hPa 0,0 l/m 14,6 km/h (3 Bft) NO 40 1 min 0,000 mm 0,9 UV-I 335 W/m 13,0 C 11,6 C 19,3 km/h (3 Bft) 100,00 %
16.06.2016 07:47 15,2 C 87 % 1002,1 hPa 0,0 l/m 9,2 km/h (2 Bft) N-NO 26 1 min 0,000 mm 0,9 UV-I 341 W/m 13,0 C 13,7 C 14,5 km/h (3 Bft) 100,00 %
16.06.2016 07:48 15,2 C 87 % 1002,0 hPa 0,0 l/m 7,8 km/h (2 Bft) NO 49 1 min 0,000 mm 0,9 UV-I 344 W/m 13,0 C 14,4 C 12,9 km/h (3 Bft) 100,00 %
16.06.2016 07:49 15,2 C 87 % 1002,0 hPa 0,0 l/m 10,2 km/h (2 Bft) O-NO 57 1 min 0,000 mm 0,9 UV-I 348 W/m 13,0 C 13,2 C 14,5 km/h (3 Bft) 100,00 %
16.06.2016 07:50 15,3 C 87 % 1002,0 hPa 0,0 l/m 12,9 km/h (3 Bft) O-NO 71 1 min 0,000 mm 1,0 UV-I 354 W/m 13,1 C 12,3 C 17,7 km/h (3 Bft) 100,00 %
16.06.2016 07:51 15,3 C 86 % 1002,1 hPa 0,0 l/m 10,1 km/h (2 Bft) O-NO 63 1 min 0,000 mm 1,0 UV-I 360 W/m 13,0 C 13,4 C 14,5 km/h (3 Bft) 100,00 %
16.06.2016 07:52 15,3 C 87 % 1002,1 hPa 0,0 l/m 8,7 km/h (2 Bft) O-NO 71 1 min 0,000 mm 1,0 UV-I 369 W/m 13,1 C 14,1 C 14,5 km/h (3 Bft) 93,33 %
16.06.2016 07:53 15,4 C 87 % 1002,1 hPa 0,0 l/m 8,4 km/h (2 Bft) O-NO 70 1 min 0,000 mm 1,0 UV-I 377 W/m 13,2 C 14,3 C 12,9 km/h (3 Bft) 100,00 %
16.06.2016 07:54 15,4 C 86 % 1002,1 hPa 0,0 l/m 12,5 km/h (3 Bft) NO 44 1 min 0,000 mm 1,0 UV-I 388 W/m 13,1 C 12,5 C 16,1 km/h (3 Bft) 97,37 %
16.06.2016 07:55 15,4 C 86 % 1002,1 hPa 0,0 l/m 11,6 km/h (2 Bft) O-NO 61 1 min 0,000 mm 1,1 UV-I 404 W/m 13,1 C 12,9 C 16,1 km/h (3 Bft) 100,00 %
16.06.2016 07:56 15,5 C 86 % 1002,1 hPa 0,0 l/m 16,4 km/h (3 Bft) NO 51 1 min 0,000 mm 1,1 UV-I 419 W/m 13,2 C 11,4 C 20,9 km/h (4 Bft) 100,00 %
16.06.2016 07:57 15,5 C 86 % 1002,2 hPa 0,0 l/m 12,1 km/h (2 Bft) O-NO 63 1 min 0,000 mm 1,1 UV-I 434 W/m 13,2 C 12,8 C 16,1 km/h (3 Bft) 100,00 %
16.06.2016 07:58 15,6 C 86 % 1002,1 hPa 0,0 l/m 14,6 km/h (3 Bft) O-NO 57 1 min 0,000 mm 1,2 UV-I 457 W/m 13,3 C 12,0 C 19,3 km/h (3 Bft) 100,00 %
16.06.2016 07:59 15,6 C 85 % 1002,1 hPa 0,0 l/m 10,3 km/h (2 Bft) O-NO 68 1 min 0,000 mm 1,2 UV-I 479 W/m 13,1 C 13,7 C 19,3 km/h (3 Bft) 100,00 %
16.06.2016 08:00 15,7 C 86 % 1002,1 hPa 0,0 l/m 7,2 km/h (2 Bft) O-NO 77 1 min 0,000 mm 1,2 UV-I 466 W/m 13,4 C 15,3 C 14,5 km/h (3 Bft) 100,00 %
16.06.2016 08:02 15,8 C 85 % 1002,1 hPa 0,0 l/m 11,0 km/h (2 Bft) NO 55 2 min 0,153 mm 1,1 UV-I 424 W/m 13,3 C 13,6 C 17,7 km/h (3 Bft) 100,00 %
16.06.2016 08:03 15,8 C 85 % 1002,1 hPa 0,0 l/m 14,5 km/h (3 Bft) O-NO 74 1 min 0,000 mm 1,1 UV-I 257 W/m 13,3 C 12,3 C 19,3 km/h (3 Bft) 100,00 %
16.06.2016 08:04 15,8 C 85 % 1002,0 hPa 0,0 l/m 13,8 km/h (3 Bft) O-NO 78 0 min 0,000 mm 1,0 UV-I 218 W/m 13,3 C 12,6 C 20,9 km/h (4 Bft) 100,00 %
16.06.2016 08:05 15,9 C 84 % 1002,0 hPa 0,0 l/m 18,3 km/h (3 Bft) NO 46 0 min 0,000 mm 0,9 UV-I 217 W/m 13,2 C 11,3 C 24,1 km/h (4 Bft) 100,00 %
16.06.2016 08:06 15,9 C 83 % 1002,0 hPa 0,0 l/m 17,2 km/h (3 Bft) O-NO 57 0 min 0,000 mm 0,9 UV-I 224 W/m 13,0 C 11,6 C 20,9 km/h (4 Bft) 100,00 %
16.06.2016 08:07 15,8 C 83 % 1001,9 hPa 0,0 l/m 15,8 km/h (3 Bft) O-NO 57 1 min 0,000 mm 1,0 UV-I 255 W/m 12,9 C 11,9 C 19,3 km/h (3 Bft) 100,00 %
16.06.2016 08:08 15,8 C 83 % 1001,9 hPa 0,0 l/m 11,4 km/h (2 Bft) O-NO 69 0 min 0,000 mm 1,0 UV-I 212 W/m 12,9 C 13,4 C 16,1 km/h (3 Bft) 100,00 %
16.06.2016 08:09 15,8 C 84 % 1002,0 hPa 0,0 l/m 12,1 km/h (2 Bft) NO 55 0 min 0,000 mm 1,0 UV-I 215 W/m 13,1 C 13,2 C 16,1 km/h (3 Bft) 96,15 %
16.06.2016 08:10 15,8 C 84 % 1002,0 hPa 0,0 l/m 12,2 km/h (2 Bft) O 81 1 min 0,000 mm 1,0 UV-I 277 W/m 13,1 C 13,1 C 19,3 km/h (3 Bft) 100,00 %
16.06.2016 08:11 15,8 C 84 % 1001,9 hPa 0,0 l/m 12,8 km/h (3 Bft) NO 44 1 min 0,000 mm 1,1 UV-I 258 W/m 13,1 C 12,9 C 20,9 km/h (4 Bft) 100,00 %
16.06.2016 08:12 15,8 C 84 % 1001,9 hPa 0,0 l/m 12,3 km/h (3 Bft) NO 46 0 min 0,000 mm 1,1 UV-I 222 W/m 13,1 C 13,1 C 19,3 km/h (3 Bft) 100,00 %
16.06.2016 08:13 15,8 C 84 % 1001,9 hPa 0,0 l/m 16,2 km/h (3 Bft) O-NO 78 0 min 0,000 mm 1,0 UV-I 238 W/m 13,1 C 11,8 C 20,9 km/h (4 Bft) 100,00 %
16.06.2016 08:14 15,8 C 84 % 1001,9 hPa 0,0 l/m 11,3 km/h (2 Bft) O-NO 72 1 min 0,000 mm 1,1 UV-I 316 W/m 13,1 C 13,5 C 16,1 km/h (3 Bft) 100,00 %
16.06.2016 08:15 15,9 C 84 % 1001,8 hPa 0,0 l/m 11,2 km/h (2 Bft) O-NO 64 1 min 0,000 mm 1,2 UV-I 364 W/m 13,2 C 13,6 C 14,5 km/h (3 Bft) 100,00 %
16.06.2016 08:16 15,9 C 84 % 1001,8 hPa 0,0 l/m 9,1 km/h (2 Bft) O-NO 61 1 min 0,000 mm 1,2 UV-I 303 W/m 13,2 C 14,5 C 12,9 km/h (3 Bft) 100,00 %
16.06.2016 08:17 15,9 C 84 % 1001,8 hPa 0,0 l/m 11,1 km/h (2 Bft) O-NO 68 1 min 0,000 mm 1,4 UV-I 270 W/m 13,2 C 13,7 C 16,1 km/h (3 Bft) 100,00 %
16.06.2016 08:18 16,0 C 84 % 1001,8 hPa 0,0 l/m 12,2 km/h (2 Bft) O-NO 62 1 min 0,000 mm 1,3 UV-I 277 W/m 13,3 C 13,3 C 17,7 km/h (3 Bft) 100,00 %
16.06.2016 08:19 16,1 C 83 % 1001,8 hPa 0,0 l/m 11,4 km/h (2 Bft) NO 36 1 min 0,000 mm 1,3 UV-I 350 W/m 13,2 C 13,8 C 14,5 km/h (3 Bft) 100,00 %
16.06.2016 08:20 16,1 C 84 % 1001,8 hPa 0,0 l/m 13,1 km/h (3 Bft) O-NO 65 1 min 0,000 mm 1,2 UV-I 339 W/m 13,4 C 13,1 C 24,1 km/h (4 Bft) 100,00 %
16.06.2016 08:21 16,2 C 84 % 1001,8 hPa 0,0 l/m 11,6 km/h (2 Bft) O-NO 67 1 min 0,000 mm 1,4 UV-I 339 W/m 13,5 C 13,8 C 16,1 km/h (3 Bft) 100,00 %
16.06.2016 08:22 16,3 C 84 % 1001,8 hPa 0,0 l/m 14,5 km/h (3 Bft) O-NO 73 1 min 0,000 mm 1,2 UV-I 305 W/m 13,6 C 12,9 C 17,7 km/h (3 Bft) 100,00 %
16.06.2016 08:23 16,4 C 83 % 1001,9 hPa 0,0 l/m 11,7 km/h (2 Bft) O-NO 63 1 min 0,000 mm 1,4 UV-I 296 W/m 13,5 C 14,0 C 17,7 km/h (3 Bft) 100,00 %
16.06.2016 08:24 16,4 C 83 % 1001,9 hPa 0,0 l/m 10,4 km/h (2 Bft) O-NO 68 1 min 0,000 mm 1,6 UV-I 299 W/m 13,5 C 14,5 C 14,5 km/h (3 Bft) 100,00 %
16.06.2016 08:25 16,6 C 83 % 1001,9 hPa 0,0 l/m 15,0 km/h (3 Bft) O-NO 78 1 min 0,000 mm 1,3 UV-I 299 W/m 13,7 C 13,1 C 22,5 km/h (4 Bft) 100,00 %
16.06.2016 08:26 16,6 C 82 % 1001,8 hPa 0,0 l/m 11,7 km/h (2 Bft) NO 37 1 min 0,000 mm 1,7 UV-I 430 W/m 13,5 C 14,2 C 19,3 km/h (3 Bft) 95,65 %
16.06.2016 08:27 16,7 C 82 % 1001,8 hPa 0,0 l/m 15,9 km/h (3 Bft) O-NO 75 1 min 0,000 mm 1,6 UV-I 585 W/m 13,6 C 13,0 C 19,3 km/h (3 Bft) 100,00 %
16.06.2016 08:28 16,7 C 81 % 1001,8 hPa 0,0 l/m 11,4 km/h (2 Bft) O-NO 57 1 min 0,000 mm 1,6 UV-I 398 W/m 13,4 C 14,4 C 19,3 km/h (3 Bft) 100,00 %
16.06.2016 08:29 16,8 C 81 % 1001,8 hPa 0,0 l/m 13,8 km/h (3 Bft) NO 45 1 min 0,000 mm 1,8 UV-I 382 W/m 13,5 C 13,7 C 16,1 km/h (3 Bft) 100,00 %
16.06.2016 08:30 16,8 C 82 % 1001,8 hPa 0,0 l/m 16,2 km/h (3 Bft) O-NO 61 1 min 0,000 mm 1,6 UV-I 512 W/m 13,7 C 13,0 C 19,3 km/h (3 Bft) 100,00 %
16.06.2016 08:31 16,9 C 82 % 1001,8 hPa 0,0 l/m 13,3 km/h (3 Bft) O-NO 67 1 min 0,000 mm 1,7 UV-I 558 W/m 13,8 C 14,0 C 20,9 km/h (4 Bft) 100,00 %
16.06.2016 08:32 17,1 C 82 % 1001,8 hPa 0,0 l/m 14,9 km/h (3 Bft) NO 51 1 min 0,000 mm 1,8 UV-I 530 W/m 14,0 C 13,8 C 19,3 km/h (3 Bft) 96,55 %
16.06.2016 08:33 17,2 C 82 % 1001,8 hPa 0,0 l/m 17,7 km/h (3 Bft) NO 49 1 min 0,000 mm 1,7 UV-I 522 W/m 14,1 C 13,1 C 30,6 km/h (5 Bft) 100,00 %
16.06.2016 08:34 17,2 C 79 % 1001,7 hPa 0,0 l/m 21,2 km/h (4 Bft) NO 53 1 min 0,000 mm 1,8 UV-I 557 W/m 13,5 C 12,3 C 27,4 km/h (4 Bft) 100,00 %
16.06.2016 08:35 17,3 C 79 % 1001,7 hPa 0,0 l/m 20,8 km/h (4 Bft) NO 49 1 min 0,000 mm 1,8 UV-I 562 W/m 13,6 C 12,5 C 25,7 km/h (4 Bft) 98,89 %
16.06.2016 08:36 17,3 C 79 % 1001,7 hPa 0,0 l/m 17,0 km/h (3 Bft) O 90 1 min 0,000 mm 1,9 UV-I 589 W/m 13,6 C 13,4 C 20,9 km/h (4 Bft) 97,56 %
16.06.2016 08:37 17,4 C 79 % 1001,6 hPa 0,0 l/m 17,0 km/h (3 Bft) O-NO 73 1 min 0,000 mm 1,9 UV-I 549 W/m 13,7 C 13,6 C 24,1 km/h (4 Bft) 100,00 %
16.06.2016 08:38 17,4 C 78 % 1001,6 hPa 0,0 l/m 15,6 km/h (3 Bft) O-NO 60 1 min 0,000 mm 1,9 UV-I 577 W/m 13,5 C 13,9 C 20,9 km/h (4 Bft) 95,65 %
16.06.2016 08:39 17,6 C 79 % 1001,6 hPa 0,0 l/m 15,6 km/h (3 Bft) O 82 1 min 0,000 mm 1,9 UV-I 528 W/m 13,9 C 14,2 C 22,5 km/h (4 Bft) 100,00 %
16.06.2016 08:40 17,6 C 77 % 1001,6 hPa 0,0 l/m 19,4 km/h (3 Bft) O-NO 78 1 min 0,000 mm 1,9 UV-I 536 W/m 13,5 C 13,2 C 25,7 km/h (4 Bft) 100,00 %
16.06.2016 08:41 17,7 C 77 % 1001,6 hPa 0,0 l/m 18,0 km/h (3 Bft) NO 37 1 min 0,000 mm 1,9 UV-I 534 W/m 13,6 C 13,7 C 27,4 km/h (4 Bft) 100,00 %
16.06.2016 08:42 17,7 C 77 % 1001,6 hPa 0,0 l/m 24,3 km/h (4 Bft) NO 42 1 min 0,000 mm 1,9 UV-I 526 W/m 13,6 C 12,4 C 32,2 km/h (5 Bft) 91,30 %
16.06.2016 08:43 17,7 C 77 % 1001,6 hPa 0,0 l/m 17,5 km/h (3 Bft) NO 53 1 min 0,000 mm 1,9 UV-I 520 W/m 13,6 C 13,8 C 22,5 km/h (4 Bft) 100,00 %
16.06.2016 08:44 17,7 C 77 % 1001,6 hPa 0,0 l/m 18,3 km/h (3 Bft) O 82 1 min 0,000 mm 1,9 UV-I 521 W/m 13,6 C 13,6 C 22,5 km/h (4 Bft) 95,83 %
16.06.2016 08:45 17,8 C 78 % 1001,6 hPa 0,0 l/m 19,9 km/h (4 Bft) NO 56 1 min 0,000 mm 2,0 UV-I 523 W/m 13,9 C 13,4 C 22,5 km/h (4 Bft) 96,55 %
16.06.2016 08:46 17,8 C 77 % 1001,6 hPa 0,0 l/m 14,5 km/h (3 Bft) O-NO 65 1 min 0,000 mm 2,0 UV-I 524 W/m 13,7 C 14,7 C 17,7 km/h (3 Bft) 100,00 %
16.06.2016 08:47 17,9 C 78 % 1001,6 hPa 0,0 l/m 17,9 km/h (3 Bft) O-NO 73 1 min 0,000 mm 2,0 UV-I 527 W/m 14,0 C 14,0 C 25,7 km/h (4 Bft) 96,15 %
16.06.2016 08:48 17,9 C 77 % 1001,6 hPa 0,0 l/m 16,4 km/h (3 Bft) O-NO 67 1 min 0,000 mm 2,0 UV-I 533 W/m 13,8 C 14,3 C 22,5 km/h (4 Bft) 100,00 %
16.06.2016 08:49 17,9 C 76 % 1001,6 hPa 0,0 l/m 18,1 km/h (3 Bft) O-NO 69 1 min 0,000 mm 2,0 UV-I 533 W/m 13,6 C 13,9 C 24,1 km/h (4 Bft) 92,31 %
16.06.2016 08:50 18,0 C 76 % 1001,5 hPa 0,0 l/m 17,5 km/h (3 Bft) O 81 1 min 0,000 mm 2,0 UV-I 532 W/m 13,7 C 14,2 C 22,5 km/h (4 Bft) 100,00 %
16.06.2016 08:51 18,0 C 76 % 1001,5 hPa 0,0 l/m 20,5 km/h (4 Bft) O-NO 64 1 min 0,000 mm 2,1 UV-I 516 W/m 13,7 C 13,5 C 27,4 km/h (4 Bft) 90,91 %
16.06.2016 08:52 18,0 C 77 % 1001,6 hPa 0,0 l/m 14,9 km/h (3 Bft) O-NO 68 1 min 0,000 mm 2,1 UV-I 502 W/m 13,9 C 14,9 C 22,5 km/h (4 Bft) 100,00 %
16.06.2016 08:53 18,1 C 77 % 1001,5 hPa 0,0 l/m 22,9 km/h (4 Bft) NO 46 1 min 0,000 mm 2,1 UV-I 506 W/m 14,0 C 13,2 C 30,6 km/h (5 Bft) 96,15 %
16.06.2016 08:54 18,1 C 75 % 1001,6 hPa 0,0 l/m 21,1 km/h (4 Bft) NO 53 1 min 0,000 mm 2,1 UV-I 497 W/m 13,6 C 13,5 C 30,6 km/h (5 Bft) 96,30 %
16.06.2016 08:55 18,1 C 76 % 1001,6 hPa 0,0 l/m 20,6 km/h (4 Bft) NO 55 1 min 0,000 mm 2,0 UV-I 449 W/m 13,8 C 13,6 C 29,0 km/h (5 Bft) 100,00 %
16.06.2016 08:56 18,1 C 76 % 1001,6 hPa 0,0 l/m 19,5 km/h (3 Bft) O-NO 76 1 min 0,000 mm 2,0 UV-I 439 W/m 13,8 C 13,9 C 25,7 km/h (4 Bft) 91,67 %
16.06.2016 08:57 18,1 C 76 % 1001,6 hPa 0,0 l/m 20,3 km/h (4 Bft) O-NO 60 1 min 0,000 mm 2,1 UV-I 457 W/m 13,8 C 13,7 C 27,4 km/h (4 Bft) 96,15 %
16.06.2016 08:58 18,1 C 77 % 1001,6 hPa 0,0 l/m 21,1 km/h (4 Bft) O 92 1 min 0,000 mm 2,1 UV-I 472 W/m 14,0 C 13,5 C 27,4 km/h (4 Bft) 95,83 %
16.06.2016 08:59 18,1 C 76 % 1001,6 hPa 0,0 l/m 20,6 km/h (4 Bft) O-NO 74 1 min 0,000 mm 1,9 UV-I 470 W/m 13,8 C 13,6 C 25,7 km/h (4 Bft) 95,65 %
16.06.2016 09:00 18,1 C 75 % 1001,5 hPa 0,0 l/m 18,2 km/h (3 Bft) NO 36 1 min 0,254 mm 2,2 UV-I 394 W/m 13,6 C 14,1 C 24,1 km/h (4 Bft) 96,67 %
16.06.2016 09:01 18,1 C 75 % 1001,6 hPa 0,0 l/m 17,4 km/h (3 Bft) O-NO 74 1 min 0,000 mm 2,2 UV-I 441 W/m 13,6 C 14,3 C 20,9 km/h (4 Bft) 95,65 %
16.06.2016 09:02 18,2 C 76 % 1001,4 hPa 0,0 l/m 18,7 km/h (3 Bft) O-NO 63 1 min 0,000 mm 2,2 UV-I 512 W/m 13,9 C 14,2 C 25,7 km/h (4 Bft) 100,00 %
16.06.2016 09:03 18,2 C 75 % 1001,5 hPa 0,0 l/m 20,7 km/h (4 Bft) O-NO 67 1 min 0,000 mm 2,2 UV-I 503 W/m 13,7 C 13,7 C 29,0 km/h (5 Bft) 96,55 %
16.06.2016 09:04 18,2 C 75 % 1001,5 hPa 0,0 l/m 21,8 km/h (4 Bft) O 88 1 min 0,000 mm 2,2 UV-I 496 W/m 13,7 C 13,5 C 27,4 km/h (4 Bft) 100,00 %
16.06.2016 09:05 18,2 C 76 % 1001,4 hPa 0,0 l/m 21,0 km/h (4 Bft) O-SO 115 1 min 0,000 mm 2,2 UV-I 480 W/m 13,9 C 13,7 C 25,7 km/h (4 Bft) 91,67 %
16.06.2016 09:06 18,2 C 76 % 1001,4 hPa 0,0 l/m 14,3 km/h (3 Bft) NO 43 1 min 0,000 mm 2,2 UV-I 462 W/m 13,9 C 15,3 C 19,3 km/h (3 Bft) 100,00 %
16.06.2016 09:07 18,2 C 76 % 1001,5 hPa 0,0 l/m 14,6 km/h (3 Bft) O 79 1 min 0,000 mm 2,2 UV-I 402 W/m 13,9 C 15,2 C 17,7 km/h (3 Bft) 96,30 %
16.06.2016 09:08 18,3 C 76 % 1001,5 hPa 0,0 l/m 11,6 km/h (2 Bft) O-NO 78 1 min 0,000 mm 2,2 UV-I 414 W/m 14,0 C 16,2 C 16,1 km/h (3 Bft) 100,00 %
16.06.2016 09:09 18,3 C 77 % 1001,5 hPa 0,0 l/m 22,0 km/h (4 Bft) NO 49 1 min 0,000 mm 2,3 UV-I 453 W/m 14,2 C 13,6 C 29,0 km/h (5 Bft) 96,30 %
16.06.2016 09:10 18,4 C 76 % 1001,5 hPa 0,0 l/m 17,4 km/h (3 Bft) O-NO 65 1 min 0,000 mm 2,2 UV-I 443 W/m 14,1 C 14,7 C 20,9 km/h (4 Bft) 96,55 %
16.06.2016 09:11 18,4 C 76 % 1001,5 hPa 0,0 l/m 17,9 km/h (3 Bft) O 85 1 min 0,000 mm 2,3 UV-I 434 W/m 14,1 C 14,6 C 25,7 km/h (4 Bft) 100,00 %
16.06.2016 09:12 18,4 C 75 % 1001,5 hPa 0,0 l/m 17,1 km/h (3 Bft) O-NO 68 1 min 0,000 mm 2,2 UV-I 420 W/m 13,9 C 14,8 C 22,5 km/h (4 Bft) 100,00 %
16.06.2016 09:13 18,5 C 76 % 1001,4 hPa 0,0 l/m 20,5 km/h (4 Bft) O 88 1 min 0,000 mm 2,2 UV-I 403 W/m 14,2 C 14,2 C 25,7 km/h (4 Bft) 96,67 %
16.06.2016 09:14 18,5 C 75 % 1001,4 hPa 0,0 l/m 19,9 km/h (4 Bft) NO 40 1 min 0,000 mm 2,2 UV-I 406 W/m 14,0 C 14,3 C 24,1 km/h (4 Bft) 100,00 %
16.06.2016 09:15 18,5 C 75 % 1001,4 hPa 0,0 l/m 17,4 km/h (3 Bft) O-NO 57 1 min 0,000 mm 2,3 UV-I 414 W/m 14,0 C 14,8 C 20,9 km/h (4 Bft) 100,00 %
16.06.2016 09:16 18,5 C 75 % 1001,4 hPa 0,0 l/m 20,0 km/h (4 Bft) O 100 1 min 0,000 mm 2,3 UV-I 417 W/m 14,0 C 14,3 C 27,4 km/h (4 Bft) 100,00 %
16.06.2016 09:17 18,5 C 74 % 1001,4 hPa 0,0 l/m 18,6 km/h (3 Bft) O 90 1 min 0,000 mm 2,2 UV-I 408 W/m 13,8 C 14,6 C 22,5 km/h (4 Bft) 100,00 %
16.06.2016 09:18 18,5 C 75 % 1001,4 hPa 0,0 l/m 19,7 km/h (3 Bft) O-NO 62 1 min 0,000 mm 2,2 UV-I 383 W/m 14,0 C 14,3 C 25,7 km/h (4 Bft) 100,00 %
16.06.2016 09:19 18,5 C 74 % 1001,3 hPa 0,0 l/m 18,6 km/h (3 Bft) NO 53 1 min 0,000 mm 2,2 UV-I 387 W/m 13,8 C 14,6 C 25,7 km/h (4 Bft) 100,00 %
16.06.2016 09:20 18,4 C 75 % 1001,3 hPa 0,0 l/m 17,8 km/h (3 Bft) O-NO 70 1 min 0,000 mm 2,2 UV-I 385 W/m 13,9 C 14,6 C 20,9 km/h (4 Bft) 100,00 %
16.06.2016 09:21 18,4 C 75 % 1001,4 hPa 0,0 l/m 17,8 km/h (3 Bft) NO 47 1 min 0,000 mm 2,2 UV-I 368 W/m 13,9 C 14,6 C 24,1 km/h (4 Bft) 96,30 %
16.06.2016 09:22 18,4 C 75 % 1001,3 hPa 0,0 l/m 21,0 km/h (4 Bft) O-NO 57 1 min 0,000 mm 2,2 UV-I 355 W/m 13,9 C 13,9 C 25,7 km/h (4 Bft) 100,00 %
16.06.2016 09:23 18,4 C 75 % 1001,3 hPa 0,0 l/m 15,6 km/h (3 Bft) NO 35 1 min 0,000 mm 2,2 UV-I 372 W/m 13,9 C 15,2 C 20,9 km/h (4 Bft) 96,55 %
16.06.2016 09:24 18,4 C 76 % 1001,3 hPa 0,0 l/m 18,5 km/h (3 Bft) O-NO 59 1 min 0,000 mm 2,2 UV-I 379 W/m 14,1 C 14,5 C 25,7 km/h (4 Bft) 91,67 %
16.06.2016 09:25 18,4 C 76 % 1001,3 hPa 0,0 l/m 17,8 km/h (3 Bft) NO 55 1 min 0,000 mm 2,2 UV-I 364 W/m 14,1 C 14,6 C 22,5 km/h (4 Bft) 100,00 %
16.06.2016 09:26 18,3 C 75 % 1001,3 hPa 0,0 l/m 16,9 km/h (3 Bft) NO 44 0 min 0,000 mm 2,2 UV-I 352 W/m 13,8 C 14,7 C 22,5 km/h (4 Bft) 100,00 %
16.06.2016 09:27 18,3 C 75 % 1001,2 hPa 0,0 l/m 16,1 km/h (3 Bft) O-NO 78 1 min 0,000 mm 2,2 UV-I 366 W/m 13,8 C 14,9 C 20,9 km/h (4 Bft) 100,00 %
16.06.2016 09:28 18,3 C 75 % 1001,2 hPa 0,0 l/m 18,1 km/h (3 Bft) O-NO 70 1 min 0,000 mm 2,2 UV-I 356 W/m 13,8 C 14,4 C 20,9 km/h (4 Bft) 96,30 %
16.06.2016 09:30 18,3 C 75 % 1001,2 hPa 0,0 l/m 18,4 km/h (3 Bft) O-NO 69 2 min 0,000 mm 2,3 UV-I 372 W/m 13,8 C 14,4 C 25,7 km/h (4 Bft) 100,00 %
16.06.2016 09:31 18,3 C 75 % 1001,2 hPa 0,0 l/m 17,7 km/h (3 Bft) NO 48 1 min 0,000 mm 2,3 UV-I 371 W/m 13,8 C 14,5 C 24,1 km/h (4 Bft) 100,00 %
16.06.2016 09:32 18,3 C 75 % 1001,2 hPa 0,0 l/m 17,9 km/h (3 Bft) O-NO 78 1 min 0,000 mm 2,2 UV-I 365 W/m 13,8 C 14,5 C 27,4 km/h (4 Bft) 100,00 %
16.06.2016 09:33 18,3 C 76 % 1001,2 hPa 0,0 l/m 18,2 km/h (3 Bft) O-NO 61 1 min 0,000 mm 2,4 UV-I 400 W/m 14,0 C 14,4 C 24,1 km/h (4 Bft) 100,00 %
16.06.2016 09:34 18,4 C 75 % 1001,2 hPa 0,0 l/m 16,7 km/h (3 Bft) O-NO 63 1 min 0,000 mm 2,5 UV-I 427 W/m 13,9 C 14,9 C 24,1 km/h (4 Bft) 100,00 %
16.06.2016 09:35 18,4 C 75 % 1001,3 hPa 0,0 l/m 16,5 km/h (3 Bft) O-NO 60 1 min 0,000 mm 2,6 UV-I 444 W/m 13,9 C 14,9 C 22,5 km/h (4 Bft) 100,00 %
16.06.2016 09:36 18,4 C 75 % 1001,2 hPa 0,0 l/m 16,0 km/h (3 Bft) O 92 1 min 0,000 mm 2,6 UV-I 442 W/m 13,9 C 15,1 C 20,9 km/h (4 Bft) 100,00 %
16.06.2016 09:38 18,4 C 76 % 1001,2 hPa 0,0 l/m 6,4 km/h (2 Bft) O-NO 57 2 min 0,000 mm 2,6 UV-I 427 W/m 14,1 C 18,4 C 6,4 km/h (2 Bft) 100,00 %
16.06.2016 09:40 18,6 C 75 % 1001,2 hPa 0,0 l/m 13,9 km/h (3 Bft) O-NO 67 2 min 0,000 mm 2,8 UV-I 476 W/m 14,1 C 15,9 C 17,7 km/h (3 Bft) 100,00 %
16.06.2016 09:42 18,7 C 76 % 1001,0 hPa 0,0 l/m 12,3 km/h (3 Bft) NO 34 2 min 0,000 mm 2,8 UV-I 493 W/m 14,4 C 16,4 C 17,7 km/h (3 Bft) 100,00 %
16.06.2016 09:44 18,8 C 74 % 1000,9 hPa 0,0 l/m 14,3 km/h (3 Bft) O-NO 63 2 min 0,000 mm 2,8 UV-I 496 W/m 14,1 C 16,0 C 20,9 km/h (4 Bft) 100,00 %
16.06.2016 09:46 18,9 C 74 % 1000,8 hPa 0,0 l/m 16,5 km/h (3 Bft) O-NO 59 2 min 0,000 mm 2,7 UV-I 463 W/m 14,2 C 15,5 C 20,9 km/h (4 Bft) 100,00 %
16.06.2016 09:48 18,9 C 73 % 1000,9 hPa 0,0 l/m 15,0 km/h (3 Bft) N-NO 28 2 min 0,000 mm 2,8 UV-I 483 W/m 13,9 C 15,9 C 20,9 km/h (4 Bft) 100,00 %
16.06.2016 09:50 18,9 C 75 % 1000,8 hPa 0,0 l/m 16,2 km/h (3 Bft) NO 54 2 min 0,000 mm 2,8 UV-I 485 W/m 14,4 C 15,6 C 22,5 km/h (4 Bft) 100,00 %
16.06.2016 09:52 18,9 C 75 % 1000,8 hPa 0,0 l/m 16,1 km/h (3 Bft) O-NO 61 2 min 0,000 mm 2,9 UV-I 494 W/m 14,4 C 15,6 C 16,1 km/h (3 Bft) 100,00 %
16.06.2016 09:54 19,1 C 75 % 1000,8 hPa 0,0 l/m 13,1 km/h (3 Bft) NO 46 2 min 0,000 mm 3,3 UV-I 586 W/m 14,6 C 16,7 C 22,5 km/h (4 Bft) 100,00 %
16.06.2016 09:56 19,2 C 76 % 1000,8 hPa 0,0 l/m 12,3 km/h (3 Bft) O-NO 61 2 min 0,000 mm 3,4 UV-I 634 W/m 14,9 C 17,0 C 17,7 km/h (3 Bft) 98,11 %
16.06.2016 09:58 19,4 C 75 % 1000,8 hPa 0,0 l/m 12,2 km/h (2 Bft) O 86 2 min 0,000 mm 3,6 UV-I 670 W/m 14,8 C 17,3 C 19,3 km/h (3 Bft) 100,00 %
16.06.2016 10:00 19,6 C 75 % 1000,8 hPa 0,0 l/m 11,1 km/h (2 Bft) O-NO 67 2 min 0,000 mm 3,5 UV-I 654 W/m 15,0 C 17,8 C 19,3 km/h (3 Bft) 100,00 %
16.06.2016 10:02 19,7 C 75 % 1000,8 hPa 0,0 l/m 10,0 km/h (2 Bft) N-NO 32 2 min 0,304 mm 3,5 UV-I 659 W/m 15,1 C 18,3 C 16,1 km/h (3 Bft) 100,00 %
16.06.2016 10:04 19,7 C 73 % 1000,8 hPa 0,0 l/m 12,9 km/h (3 Bft) O 94 2 min 0,000 mm 3,2 UV-I 569 W/m 14,7 C 17,4 C 17,7 km/h (3 Bft) 97,87 %
16.06.2016 10:06 19,8 C 73 % 1000,9 hPa 0,0 l/m 13,3 km/h (3 Bft) O 83 2 min 0,000 mm 3,1 UV-I 512 W/m 14,8 C 17,4 C 19,3 km/h (3 Bft) 100,00 %
16.06.2016 10:08 19,8 C 73 % 1000,9 hPa 0,0 l/m 9,1 km/h (2 Bft) NO 38 2 min 0,000 mm 3,2 UV-I 547 W/m 14,8 C 18,7 C 14,5 km/h (3 Bft) 98,11 %
16.06.2016 10:10 19,8 C 72 % 1000,8 hPa 0,0 l/m 11,4 km/h (2 Bft) NO 46 2 min 0,000 mm 3,2 UV-I 519 W/m 14,6 C 18,0 C 17,7 km/h (3 Bft) 100,00 %
16.06.2016 10:12 19,8 C 73 % 1000,9 hPa 0,0 l/m 11,4 km/h (2 Bft) O 82 2 min 0,000 mm 3,1 UV-I 507 W/m 14,8 C 18,0 C 16,1 km/h (3 Bft) 100,00 %
16.06.2016 10:14 19,9 C 72 % 1000,8 hPa 0,0 l/m 16,3 km/h (3 Bft) O 92 2 min 0,000 mm 3,5 UV-I 586 W/m 14,7 C 16,8 C 24,1 km/h (4 Bft) 100,00 %
16.06.2016 10:16 19,9 C 73 % 1000,9 hPa 0,0 l/m 13,1 km/h (3 Bft) O-NO 63 2 min 0,000 mm 3,8 UV-I 648 W/m 14,9 C 17,6 C 19,3 km/h (3 Bft) 100,00 %
16.06.2016 10:18 20,0 C 72 % 1000,8 hPa 0,0 l/m 14,8 km/h (3 Bft) O-NO 71 2 min 0,000 mm 3,8 UV-I 621 W/m 14,8 C 17,3 C 22,5 km/h (4 Bft) 98,46 %
16.06.2016 10:20 20,1 C 72 % 1000,7 hPa 0,0 l/m 13,4 km/h (3 Bft) O-NO 57 2 min 0,000 mm 3,5 UV-I 653 W/m 14,9 C 17,8 C 22,5 km/h (4 Bft) 100,00 %
16.06.2016 10:22 20,1 C 72 % 1000,8 hPa 0,0 l/m 13,5 km/h (3 Bft) O-NO 66 0 min 0,000 mm 3,5 UV-I 369 W/m 14,9 C 17,7 C 20,9 km/h (4 Bft) 98,00 %
16.06.2016 10:24 20,0 C 71 % 1000,7 hPa 0,0 l/m 8,8 km/h (2 Bft) O 88 2 min 0,000 mm 3,4 UV-I 489 W/m 14,6 C 19,1 C 16,1 km/h (3 Bft) 100,00 %
16.06.2016 10:26 20,0 C 72 % 1000,6 hPa 0,0 l/m 15,3 km/h (3 Bft) O 97 2 min 0,000 mm 3,1 UV-I 488 W/m 14,8 C 17,2 C 22,5 km/h (4 Bft) 100,00 %
16.06.2016 10:28 20,0 C 73 % 1000,6 hPa 0,0 l/m 15,1 km/h (3 Bft) NO 44 2 min 0,000 mm 3,7 UV-I 421 W/m 15,0 C 17,2 C 19,3 km/h (3 Bft) 95,12 %
16.06.2016 10:30 20,1 C 72 % 1000,6 hPa 0,0 l/m 11,4 km/h (2 Bft) O-NO 58 2 min 0,000 mm 4,5 UV-I 758 W/m 14,9 C 18,3 C 16,1 km/h (3 Bft) 100,00 %
16.06.2016 10:32 20,3 C 73 % 1000,6 hPa 0,0 l/m 11,4 km/h (2 Bft) NO 37 2 min 0,000 mm 4,5 UV-I 760 W/m 15,3 C 18,5 C 16,1 km/h (3 Bft) 100,00 %
16.06.2016 10:34 20,4 C 71 % 1000,5 hPa 0,0 l/m 13,7 km/h (3 Bft) O-NO 74 2 min 0,000 mm 4,5 UV-I 759 W/m 15,0 C 18,0 C 17,7 km/h (3 Bft) 97,87 %
16.06.2016 10:36 20,6 C 74 % 1000,5 hPa 0,0 l/m 14,6 km/h (3 Bft) NO 38 2 min 0,000 mm 4,6 UV-I 774 W/m 15,8 C 18,1 C 22,5 km/h (4 Bft) 95,45 %
16.06.2016 10:38 20,8 C 73 % 1000,5 hPa 0,0 l/m 15,9 km/h (3 Bft) O 79 2 min 0,000 mm 4,4 UV-I 699 W/m 15,8 C 18,0 C 22,5 km/h (4 Bft) 94,00 %
16.06.2016 10:40 20,9 C 73 % 1000,5 hPa 0,0 l/m 11,7 km/h (2 Bft) O-NO 59 2 min 0,000 mm 4,4 UV-I 722 W/m 15,9 C 19,1 C 16,1 km/h (3 Bft) 97,56 %
16.06.2016 10:45 21,1 C 69 % 1000,4 hPa 0,0 l/m 12,9 km/h (3 Bft) NO 45 5 min 0,000 mm 4,1 UV-I 653 W/m 15,2 C 19,1 C 24,1 km/h (4 Bft) 99,12 %
16.06.2016 10:50 21,1 C 70 % 1000,3 hPa 0,0 l/m 11,3 km/h (2 Bft) O-NO 67 5 min 0,000 mm 3,9 UV-I 518 W/m 15,4 C 19,5 C 20,9 km/h (4 Bft) 100,00 %
16.06.2016 10:56 21,2 C 70 % 1000,2 hPa 0,0 l/m 13,0 km/h (3 Bft) N 11 6 min 0,000 mm 4,9 UV-I 755 W/m 15,5 C 19,2 C 19,3 km/h (3 Bft) 97,33 %
16.06.2016 10:58 21,3 C 69 % 1000,2 hPa 0,0 l/m 14,9 km/h (3 Bft) NO 41 2 min 0,000 mm 5,1 UV-I 785 W/m 15,4 C 18,8 C 22,5 km/h (4 Bft) 93,62 %
16.06.2016 11:00 21,6 C 69 % 1000,3 hPa 0,0 l/m 11,9 km/h (2 Bft) NO 42 2 min 0,407 mm 5,1 UV-I 781 W/m 15,7 C 19,9 C 17,7 km/h (3 Bft) 96,00 %
16.06.2016 11:02 21,6 C 68 % 1000,3 hPa 0,0 l/m 13,3 km/h (3 Bft) N-NO 30 2 min 0,000 mm 5,1 UV-I 766 W/m 15,4 C 19,6 C 17,7 km/h (3 Bft) 97,78 %
16.06.2016 11:04 21,7 C 69 % 1000,3 hPa 0,0 l/m 12,6 km/h (3 Bft) O-NO 72 2 min 0,000 mm 5,3 UV-I 794 W/m 15,8 C 19,8 C 20,9 km/h (4 Bft) 96,15 %
16.06.2016 11:06 21,8 C 71 % 1000,2 hPa 0,0 l/m 15,4 km/h (3 Bft) N-NO 24 2 min 0,000 mm 5,4 UV-I 792 W/m 16,3 C 19,3 C 19,3 km/h (3 Bft) 100,00 %
16.06.2016 11:08 21,8 C 70 % 1000,2 hPa 0,0 l/m 13,0 km/h (3 Bft) O-NO 61 2 min 0,000 mm 5,3 UV-I 804 W/m 16,1 C 19,9 C 17,7 km/h (3 Bft) 100,00 %
16.06.2016 11:10 21,9 C 70 % 1000,1 hPa 0,0 l/m 11,3 km/h (2 Bft) O-NO 63 2 min 0,000 mm 5,4 UV-I 828 W/m 16,2 C 20,4 C 17,7 km/h (3 Bft) 97,87 %
16.06.2016 11:12 22,0 C 68 % 1000,1 hPa 0,0 l/m 12,8 km/h (3 Bft) O-NO 63 2 min 0,000 mm 5,5 UV-I 820 W/m 15,8 C 20,1 C 19,3 km/h (3 Bft) 100,00 %
16.06.2016 11:14 22,1 C 67 % 1000,1 hPa 0,0 l/m 11,4 km/h (2 Bft) O-NO 66 2 min 0,000 mm 5,5 UV-I 807 W/m 15,7 C 20,6 C 19,3 km/h (3 Bft) 100,00 %
16.06.2016 11:16 22,2 C 67 % 1000,2 hPa 0,0 l/m 9,6 km/h (2 Bft) NO 37 2 min 0,000 mm 5,7 UV-I 846 W/m 15,8 C 21,2 C 14,5 km/h (3 Bft) 100,00 %
16.06.2016 11:18 22,3 C 66 % 1000,2 hPa 0,0 l/m 11,5 km/h (2 Bft) O-NO 67 2 min 0,000 mm 5,7 UV-I 831 W/m 15,6 C 20,8 C 20,9 km/h (4 Bft) 98,11 %
16.06.2016 11:20 22,3 C 66 % 1000,1 hPa 0,0 l/m 17,5 km/h (3 Bft) O-NO 57 2 min 0,000 mm 5,7 UV-I 827 W/m 15,6 C 19,6 C 20,9 km/h (4 Bft) 100,00 %
16.06.2016 11:22 22,2 C 65 % 1000,1 hPa 0,0 l/m 16,3 km/h (3 Bft) O-NO 72 2 min 0,000 mm 5,8 UV-I 851 W/m 15,3 C 19,7 C 20,9 km/h (4 Bft) 100,00 %
16.06.2016 11:24 22,3 C 72 % 1000,0 hPa 0,0 l/m 10,4 km/h (2 Bft) O-NO 71 2 min 0,000 mm 5,7 UV-I 855 W/m 17,0 C 21,1 C 19,3 km/h (3 Bft) 100,00 %
16.06.2016 11:26 22,4 C 69 % 1000,0 hPa 0,0 l/m 16,7 km/h (3 Bft) O-NO 59 2 min 0,000 mm 5,8 UV-I 867 W/m 16,4 C 19,8 C 22,5 km/h (4 Bft) 100,00 %
16.06.2016 11:28 22,6 C 66 % 1000,1 hPa 0,0 l/m 9,6 km/h (2 Bft) O-NO 71 2 min 0,000 mm 6,0 UV-I 886 W/m 15,9 C 21,6 C 17,7 km/h (3 Bft) 100,00 %
16.06.2016 11:30 22,8 C 67 % 1000,1 hPa 0,0 l/m 11,4 km/h (2 Bft) O-NO 66 2 min 0,000 mm 6,1 UV-I 907 W/m 16,3 C 21,4 C 16,1 km/h (3 Bft) 100,00 %
16.06.2016 11:32 22,9 C 69 % 1000,1 hPa 0,0 l/m 16,4 km/h (3 Bft) NO 40 2 min 0,000 mm 6,0 UV-I 894 W/m 16,9 C 20,5 C 22,5 km/h (4 Bft) 100,00 %
16.06.2016 11:34 22,8 C 68 % 1000,1 hPa 0,0 l/m 15,0 km/h (3 Bft) O-NO 78 2 min 0,000 mm 5,6 UV-I 804 W/m 16,6 C 20,6 C 24,1 km/h (4 Bft) 100,00 %
16.06.2016 11:36 22,9 C 65 % 1000,1 hPa 0,0 l/m 13,2 km/h (3 Bft) O-SO 113 2 min 0,000 mm 5,4 UV-I 772 W/m 16,0 C 21,1 C 19,3 km/h (3 Bft) 100,00 %
16.06.2016 11:38 22,9 C 66 % 1000,0 hPa 0,0 l/m 12,8 km/h (3 Bft) NO 56 2 min 0,000 mm 5,1 UV-I 726 W/m 16,2 C 21,2 C 22,5 km/h (4 Bft) 100,00 %
16.06.2016 11:40 22,9 C 65 % 1000,0 hPa 0,0 l/m 14,2 km/h (3 Bft) O-NO 68 2 min 0,000 mm 4,4 UV-I 688 W/m 16,0 C 20,9 C 20,9 km/h (4 Bft) 100,00 %
16.06.2016 11:42 22,9 C 67 % 1000,0 hPa 0,0 l/m 10,4 km/h (2 Bft) O 97 2 min 0,000 mm 4,9 UV-I 670 W/m 16,4 C 21,7 C 16,1 km/h (3 Bft) 98,28 %
16.06.2016 11:44 22,9 C 65 % 1000,0 hPa 0,0 l/m 8,7 km/h (2 Bft) NO 55 2 min 0,000 mm 4,6 UV-I 595 W/m 16,0 C 22,2 C 12,9 km/h (3 Bft) 100,00 %
16.06.2016 11:46 22,9 C 68 % 1000,0 hPa 0,0 l/m 10,5 km/h (2 Bft) NO 34 2 min 0,000 mm 4,2 UV-I 520 W/m 16,7 C 21,7 C 19,3 km/h (3 Bft) 97,37 %
16.06.2016 11:48 22,8 C 66 % 1000,0 hPa 0,0 l/m 13,4 km/h (3 Bft) NO 53 2 min 0,000 mm 3,9 UV-I 478 W/m 16,1 C 21,0 C 19,3 km/h (3 Bft) 100,00 %
16.06.2016 11:50 22,8 C 66 % 1000,0 hPa 0,0 l/m 11,7 km/h (2 Bft) NO 51 2 min 0,000 mm 4,3 UV-I 547 W/m 16,1 C 21,3 C 17,7 km/h (3 Bft) 100,00 %
16.06.2016 11:52 22,8 C 67 % 999,9 hPa 0,0 l/m 10,0 km/h (2 Bft) NO 53 2 min 0,000 mm 4,4 UV-I 601 W/m 16,3 C 21,7 C 17,7 km/h (3 Bft) 97,56 %
16.06.2016 11:54 22,8 C 66 % 1000,0 hPa 0,0 l/m 8,5 km/h (2 Bft) NO 48 2 min 0,000 mm 4,9 UV-I 656 W/m 16,1 C 22,1 C 19,3 km/h (3 Bft) 100,00 %
16.06.2016 11:56 22,9 C 66 % 999,9 hPa 0,0 l/m 13,5 km/h (3 Bft) NO 55 2 min 0,000 mm 5,5 UV-I 702 W/m 16,2 C 21,1 C 20,9 km/h (4 Bft) 100,00 %
16.06.2016 11:58 23,1 C 66 % 999,9 hPa 0,0 l/m 9,4 km/h (2 Bft) O-NO 65 2 min 0,000 mm 6,0 UV-I 835 W/m 16,4 C 22,2 C 17,7 km/h (3 Bft) 100,00 %
16.06.2016 12:00 23,3 C 66 % 999,9 hPa 0,0 l/m 15,2 km/h (3 Bft) O-NO 65 2 min 0,508 mm 6,1 UV-I 831 W/m 16,6 C 21,2 C 20,9 km/h (4 Bft) 100,00 %
16.06.2016 12:02 23,4 C 64 % 999,9 hPa 0,0 l/m 12,6 km/h (3 Bft) NO 47 2 min 0,000 mm 6,3 UV-I 894 W/m 16,2 C 21,8 C 19,3 km/h (3 Bft) 100,00 %
16.06.2016 12:04 23,6 C 65 % 999,9 hPa 0,0 l/m 11,0 km/h (2 Bft) O 84 2 min 0,000 mm 6,2 UV-I 899 W/m 16,6 C 22,4 C 19,3 km/h (3 Bft) 98,21 %
16.06.2016 12:06 23,7 C 65 % 999,9 hPa 0,0 l/m 12,6 km/h (3 Bft) NO 43 2 min 0,000 mm 6,1 UV-I 821 W/m 16,7 C 22,2 C 16,1 km/h (3 Bft) 100,00 %
16.06.2016 12:08 23,9 C 66 % 999,9 hPa 0,0 l/m 8,4 km/h (2 Bft) NO 47 2 min 0,000 mm 6,3 UV-I 855 W/m 17,1 C 23,3 C 16,1 km/h (3 Bft) 100,00 %
16.06.2016 12:10 24,2 C 67 % 999,9 hPa 0,0 l/m 13,0 km/h (3 Bft) O-NO 77 2 min 0,000 mm 6,4 UV-I 870 W/m 17,7 C 22,7 C 20,9 km/h (4 Bft) 100,00 %
16.06.2016 12:12 24,2 C 62 % 999,9 hPa 0,0 l/m 11,4 km/h (2 Bft) NO 55 2 min 0,000 mm 6,5 UV-I 896 W/m 16,4 C 23,0 C 16,1 km/h (3 Bft) 100,00 %
16.06.2016 12:14 24,3 C 64 % 999,9 hPa 0,0 l/m 12,0 km/h (2 Bft) O 98 2 min 0,000 mm 6,2 UV-I 851 W/m 17,0 C 23,0 C 17,7 km/h (3 Bft) 100,00 %
16.06.2016 12:16 24,4 C 64 % 999,9 hPa 0,0 l/m 11,1 km/h (2 Bft) O-NO 78 2 min 0,000 mm 6,6 UV-I 903 W/m 17,1 C 23,3 C 16,1 km/h (3 Bft) 97,44 %
16.06.2016 12:18 24,5 C 62 % 999,9 hPa 0,0 l/m 11,1 km/h (2 Bft) O 86 2 min 0,000 mm 6,2 UV-I 836 W/m 16,7 C 23,4 C 16,1 km/h (3 Bft) 100,00 %
16.06.2016 12:20 24,5 C 61 % 999,9 hPa 0,0 l/m 11,8 km/h (2 Bft) O 80 2 min 0,000 mm 6,4 UV-I 884 W/m 16,5 C 23,2 C 16,1 km/h (3 Bft) 100,00 %
16.06.2016 12:22 24,6 C 61 % 999,8 hPa 0,0 l/m 8,4 km/h (2 Bft) NO 55 2 min 0,000 mm 6,0 UV-I 796 W/m 16,6 C 24,1 C 14,5 km/h (3 Bft) 100,00 %
16.06.2016 12:24 24,6 C 61 % 999,8 hPa 0,0 l/m 14,2 km/h (3 Bft) O 86 2 min 0,000 mm 5,6 UV-I 746 W/m 16,6 C 22,9 C 20,9 km/h (4 Bft) 100,00 %
16.06.2016 12:26 24,7 C 61 % 999,8 hPa 0,0 l/m 16,8 km/h (3 Bft) O 80 2 min 0,000 mm 5,8 UV-I 772 W/m 16,7 C 22,7 C 20,9 km/h (4 Bft) 100,00 %
16.06.2016 12:28 24,7 C 60 % 999,7 hPa 0,0 l/m 12,7 km/h (3 Bft) O 92 2 min 0,000 mm 6,0 UV-I 813 W/m 16,4 C 23,3 C 22,5 km/h (4 Bft) 100,00 %
16.06.2016 12:30 24,7 C 60 % 999,7 hPa 0,0 l/m 12,5 km/h (3 Bft) O-NO 65 2 min 0,000 mm 5,3 UV-I 744 W/m 16,4 C 23,4 C 17,7 km/h (3 Bft) 97,56 %
16.06.2016 12:32 24,7 C 58 % 999,5 hPa 0,0 l/m 12,6 km/h (3 Bft) NO 36 2 min 0,000 mm 5,3 UV-I 687 W/m 15,9 C 23,3 C 16,1 km/h (3 Bft) 98,00 %
16.06.2016 12:34 24,8 C 60 % 999,5 hPa 0,0 l/m 10,1 km/h (2 Bft) O-NO 59 2 min 0,000 mm 5,1 UV-I 673 W/m 16,5 C 23,9 C 16,1 km/h (3 Bft) 97,56 %
16.06.2016 12:36 25,0 C 61 % 999,4 hPa 0,0 l/m 7,9 km/h (2 Bft) NO 50 2 min 0,000 mm 6,2 UV-I 499 W/m 16,9 C 24,6 C 16,1 km/h (3 Bft) 97,87 %
16.06.2016 12:38 25,2 C 63 % 999,4 hPa 0,0 l/m 12,4 km/h (3 Bft) NO 51 2 min 0,000 mm 5,9 UV-I 728 W/m 17,6 C 24,0 C 19,3 km/h (3 Bft) 95,74 %
16.06.2016 12:40 25,2 C 60 % 999,4 hPa 0,0 l/m 12,4 km/h (3 Bft) O 94 2 min 0,000 mm 4,8 UV-I 835 W/m 16,9 C 24,0 C 17,7 km/h (3 Bft) 98,11 %
16.06.2016 12:42 25,2 C 58 % 999,4 hPa 0,0 l/m 10,7 km/h (2 Bft) NO 51 2 min 0,000 mm 4,4 UV-I 499 W/m 16,3 C 24,3 C 14,5 km/h (3 Bft) 95,12 %
16.06.2016 12:44 25,2 C 61 % 999,4 hPa 0,0 l/m 8,0 km/h (2 Bft) NO 46 2 min 0,000 mm 5,9 UV-I 541 W/m 17,1 C 24,8 C 16,1 km/h (3 Bft) 97,87 %
16.06.2016 12:46 25,3 C 61 % 999,4 hPa 0,0 l/m 8,9 km/h (2 Bft) NO 40 2 min 0,000 mm 6,2 UV-I 681 W/m 17,2 C 24,7 C 14,5 km/h (3 Bft) 97,73 %
16.06.2016 12:48 25,4 C 60 % 999,3 hPa 0,0 l/m 7,6 km/h (2 Bft) O-NO 63 2 min 0,000 mm 6,2 UV-I 846 W/m 17,1 C 25,1 C 12,9 km/h (3 Bft) 97,56 %
16.06.2016 12:50 25,5 C 63 % 999,4 hPa 0,0 l/m 7,0 km/h (2 Bft) NO 44 2 min 0,000 mm 6,4 UV-I 911 W/m 17,9 C 25,4 C 14,5 km/h (3 Bft) 98,21 %
16.06.2016 12:52 25,6 C 61 % 999,4 hPa 0,0 l/m 7,5 km/h (2 Bft) NO 36 2 min 0,000 mm 6,7 UV-I 949 W/m 17,5 C 25,3 C 16,1 km/h (3 Bft) 98,11 %
16.06.2016 12:54 25,6 C 63 % 999,4 hPa 0,0 l/m 8,8 km/h (2 Bft) NO 52 2 min 0,000 mm 6,1 UV-I 827 W/m 18,0 C 25,1 C 14,5 km/h (3 Bft) 97,37 %
16.06.2016 12:56 25,7 C 60 % 999,4 hPa 0,0 l/m 7,7 km/h (2 Bft) O-NO 59 2 min 0,000 mm 6,0 UV-I 776 W/m 17,3 C 25,4 C 14,5 km/h (3 Bft) 98,11 %
16.06.2016 12:58 25,7 C 60 % 999,4 hPa 0,0 l/m 6,5 km/h (2 Bft) N-NO 25 2 min 0,000 mm 6,3 UV-I 791 W/m 17,3 C 25,7 C 14,5 km/h (3 Bft) 100,00 %
16.06.2016 13:00 25,8 C 55 % 999,4 hPa 0,0 l/m 13,0 km/h (3 Bft) O-NO 73 2 min 0,559 mm 5,7 UV-I 761 W/m 16,1 C 24,6 C 20,9 km/h (4 Bft) 96,43 %
16.06.2016 13:02 25,9 C 54 % 999,4 hPa 0,0 l/m 8,2 km/h (2 Bft) O-NO 69 2 min 0,000 mm 5,1 UV-I 686 W/m 15,9 C 25,5 C 16,1 km/h (3 Bft) 100,00 %
16.06.2016 13:04 25,8 C 47 % 999,5 hPa 0,0 l/m 12,1 km/h (2 Bft) O-SO 103 2 min 0,000 mm 4,9 UV-I 601 W/m 13,6 C 24,7 C 20,9 km/h (4 Bft) 100,00 %
16.06.2016 13:06 25,8 C 49 % 999,4 hPa 0,0 l/m 9,9 km/h (2 Bft) O-SO 115 2 min 0,000 mm 4,9 UV-I 603 W/m 14,3 C 25,1 C 19,3 km/h (3 Bft) 95,45 %
16.06.2016 13:08 25,8 C 52 % 999,5 hPa 0,0 l/m 6,4 km/h (2 Bft) SO 140 2 min 0,000 mm 4,5 UV-I 572 W/m 15,2 C 25,8 C 14,5 km/h (3 Bft) 93,62 %
16.06.2016 13:10 25,8 C 49 % 999,5 hPa 0,0 l/m 7,5 km/h (2 Bft) S 177 2 min 0,000 mm 5,2 UV-I 568 W/m 14,3 C 25,6 C 14,5 km/h (3 Bft) 100,00 %
16.06.2016 13:12 25,8 C 47 % 999,5 hPa 0,0 l/m 6,4 km/h (2 Bft) SO 142 2 min 0,000 mm 5,5 UV-I 685 W/m 13,6 C 25,8 C 11,3 km/h (2 Bft) 100,00 %
16.06.2016 13:14 25,8 C 48 % 999,5 hPa 0,0 l/m 10,8 km/h (2 Bft) O 91 2 min 0,000 mm 6,2 UV-I 829 W/m 13,9 C 24,9 C 16,1 km/h (3 Bft) 98,11 %
16.06.2016 13:16 26,0 C 51 % 999,5 hPa 0,0 l/m 6,6 km/h (2 Bft) O-SO 103 2 min 0,000 mm 6,9 UV-I 896 W/m 15,1 C 26,0 C 14,5 km/h (3 Bft) 100,00 %
16.06.2016 13:18 26,2 C 52 % 999,4 hPa 0,0 l/m 12,6 km/h (3 Bft) NO 38 2 min 0,000 mm 7,1 UV-I 937 W/m 15,6 C 25,1 C 22,5 km/h (4 Bft) 100,00 %
16.06.2016 13:20 26,3 C 47 % 999,4 hPa 0,0 l/m 12,9 km/h (3 Bft) O-SO 107 2 min 0,000 mm 6,1 UV-I 891 W/m 14,1 C 25,2 C 17,7 km/h (3 Bft) 98,11 %
16.06.2016 13:22 26,3 C 49 % 999,5 hPa 0,0 l/m 10,3 km/h (2 Bft) O-NO 61 2 min 0,000 mm 6,1 UV-I 707 W/m 14,7 C 25,5 C 14,5 km/h (3 Bft) 100,00 %
16.06.2016 13:24 26,3 C 48 % 999,4 hPa 0,0 l/m 11,3 km/h (2 Bft) O-NO 63 2 min 0,000 mm 5,0 UV-I 624 W/m 14,4 C 25,4 C 17,7 km/h (3 Bft) 100,00 %
16.06.2016 13:26 26,2 C 50 % 999,4 hPa 0,0 l/m 8,6 km/h (2 Bft) O 98 2 min 0,000 mm 5,2 UV-I 602 W/m 14,9 C 25,7 C 14,5 km/h (3 Bft) 97,14 %
16.06.2016 13:28 26,1 C 49 % 999,4 hPa 0,0 l/m 9,3 km/h (2 Bft) O 101 2 min 0,000 mm 4,6 UV-I 614 W/m 14,5 C 25,5 C 17,7 km/h (3 Bft) 100,00 %
16.06.2016 13:30 26,0 C 48 % 999,4 hPa 0,0 l/m 14,4 km/h (3 Bft) O-SO 109 2 min 0,000 mm 4,7 UV-I 625 W/m 14,1 C 24,6 C 20,9 km/h (4 Bft) 100,00 %
16.06.2016 13:32 25,9 C 50 % 999,4 hPa 0,0 l/m 11,3 km/h (2 Bft) O-NO 71 2 min 0,000 mm 4,3 UV-I 545 W/m 14,7 C 24,9 C 17,7 km/h (3 Bft) 100,00 %
16.06.2016 13:34 25,8 C 49 % 999,4 hPa 0,0 l/m 8,3 km/h (2 Bft) O-NO 63 2 min 0,000 mm 4,6 UV-I 583 W/m 14,3 C 25,4 C 14,5 km/h (3 Bft) 100,00 %
16.06.2016 13:36 25,8 C 48 % 999,3 hPa 0,0 l/m 11,4 km/h (2 Bft) O 80 2 min 0,000 mm 5,3 UV-I 646 W/m 13,9 C 24,8 C 16,1 km/h (3 Bft) 100,00 %
16.06.2016 13:38 25,9 C 49 % 999,3 hPa 0,0 l/m 8,2 km/h (2 Bft) NO 34 2 min 0,000 mm 5,5 UV-I 788 W/m 14,4 C 25,5 C 12,9 km/h (3 Bft) 100,00 %
16.06.2016 13:40 26,2 C 51 % 999,3 hPa 0,0 l/m 9,4 km/h (2 Bft) O 101 2 min 0,000 mm 5,9 UV-I 825 W/m 15,2 C 25,6 C 14,5 km/h (3 Bft) 100,00 %
16.06.2016 13:42 26,3 C 48 % 999,3 hPa 0,0 l/m 13,0 km/h (3 Bft) O 96 2 min 0,000 mm 5,9 UV-I 864 W/m 14,4 C 25,1 C 16,1 km/h (3 Bft) 100,00 %
16.06.2016 13:44 26,3 C 46 % 999,3 hPa 0,0 l/m 11,5 km/h (2 Bft) O 84 2 min 0,000 mm 5,5 UV-I 726 W/m 13,7 C 25,4 C 19,3 km/h (3 Bft) 100,00 %
16.06.2016 13:46 26,3 C 47 % 999,3 hPa 0,0 l/m 14,8 km/h (3 Bft) O 80 2 min 0,000 mm 5,4 UV-I 714 W/m 14,1 C 24,9 C 19,3 km/h (3 Bft) 100,00 %
16.06.2016 13:48 26,4 C 48 % 999,3 hPa 0,0 l/m 14,2 km/h (3 Bft) O-SO 114 2 min 0,000 mm 5,6 UV-I 755 W/m 14,5 C 25,1 C 17,7 km/h (3 Bft) 98,00 %
16.06.2016 13:50 26,4 C 47 % 999,3 hPa 0,0 l/m 16,2 km/h (3 Bft) O-SO 119 2 min 0,000 mm 5,6 UV-I 730 W/m 14,2 C 24,9 C 22,5 km/h (4 Bft) 100,00 %
16.06.2016 13:52 26,5 C 50 % 999,3 hPa 0,0 l/m 13,3 km/h (3 Bft) O-SO 104 2 min 0,000 mm 6,1 UV-I 694 W/m 15,2 C 25,3 C 20,9 km/h (4 Bft) 100,00 %
16.06.2016 13:54 26,6 C 49 % 999,3 hPa 0,0 l/m 11,8 km/h (2 Bft) O 90 2 min 0,000 mm 5,4 UV-I 945 W/m 15,0 C 25,7 C 19,3 km/h (3 Bft) 100,00 %
16.06.2016 13:56 26,7 C 44 % 999,3 hPa 0,0 l/m 11,1 km/h (2 Bft) O-SO 108 2 min 0,000 mm 6,2 UV-I 795 W/m 13,4 C 25,9 C 16,1 km/h (3 Bft) 100,00 %
16.06.2016 13:58 26,8 C 47 % 999,2 hPa 0,0 l/m 7,0 km/h (2 Bft) O 94 2 min 0,000 mm 6,5 UV-I 953 W/m 14,5 C 26,7 C 12,9 km/h (3 Bft) 98,21 %
16.06.2016 14:00 27,1 C 47 % 999,2 hPa 0,0 l/m 10,7 km/h (2 Bft) NO 53 2 min 0,558 mm 6,6 UV-I 968 W/m 14,8 C 26,4 C 16,1 km/h (3 Bft) 100,00 %
16.06.2016 14:02 27,1 C 43 % 999,2 hPa 0,0 l/m 14,0 km/h (3 Bft) O-NO 63 2 min 0,000 mm 5,9 UV-I 872 W/m 13,4 C 26,0 C 20,9 km/h (4 Bft) 98,00 %
16.06.2016 14:04 27,1 C 44 % 999,2 hPa 0,0 l/m 13,8 km/h (3 Bft) SO 142 2 min 0,000 mm 5,4 UV-I 803 W/m 13,8 C 26,0 C 19,3 km/h (3 Bft) 100,00 %
16.06.2016 14:06 27,1 C 46 % 999,2 hPa 0,0 l/m 14,1 km/h (3 Bft) O-NO 76 2 min 0,000 mm 6,4 UV-I 954 W/m 14,5 C 26,0 C 24,1 km/h (4 Bft) 100,00 %
16.06.2016 14:08 27,2 C 45 % 999,2 hPa 0,0 l/m 8,1 km/h (2 Bft) NO 47 2 min 0,000 mm 6,6 UV-I 1062 W/m 14,2 C 26,9 C 12,9 km/h (3 Bft) 97,37 %
16.06.2016 14:10 27,2 C 46 % 999,2 hPa 0,0 l/m 12,2 km/h (2 Bft) O-SO 115 2 min 0,000 mm 6,2 UV-I 986 W/m 14,6 C 26,3 C 20,9 km/h (4 Bft) 100,00 %
16.06.2016 14:12 27,3 C 46 % 999,2 hPa 0,0 l/m 9,2 km/h (2 Bft) O-NO 78 2 min 0,000 mm 5,0 UV-I 899 W/m 14,6 C 26,8 C 22,5 km/h (4 Bft) 98,00 %
16.06.2016 14:14 27,2 C 45 % 999,2 hPa 0,0 l/m 13,1 km/h (3 Bft) O-NO 63 2 min 0,000 mm 4,6 UV-I 557 W/m 14,2 C 26,2 C 19,3 km/h (3 Bft) 100,00 %
16.06.2016 14:16 27,1 C 45 % 999,1 hPa 0,0 l/m 12,3 km/h (3 Bft) NO 45 2 min 0,000 mm 4,9 UV-I 601 W/m 14,1 C 26,2 C 17,7 km/h (3 Bft) 100,00 %
16.06.2016 14:18 27,1 C 45 % 999,1 hPa 0,0 l/m 13,9 km/h (3 Bft) O-SO 111 2 min 0,000 mm 5,7 UV-I 809 W/m 14,1 C 26,0 C 19,3 km/h (3 Bft) 97,78 %
16.06.2016 14:20 27,1 C 46 % 999,1 hPa 0,0 l/m 11,8 km/h (2 Bft) N-NO 30 2 min 0,000 mm 5,9 UV-I 875 W/m 14,5 C 26,2 C 16,1 km/h (3 Bft) 100,00 %
16.06.2016 14:22 27,1 C 45 % 999,0 hPa 0,0 l/m 14,2 km/h (3 Bft) NO 48 2 min 0,000 mm 5,8 UV-I 848 W/m 14,1 C 25,9 C 20,9 km/h (4 Bft) 100,00 %
16.06.2016 14:24 27,2 C 46 % 999,0 hPa 0,0 l/m 14,6 km/h (3 Bft) O-NO 63 2 min 0,000 mm 5,6 UV-I 728 W/m 14,6 C 26,0 C 24,1 km/h (4 Bft) 98,00 %
16.06.2016 14:26 27,2 C 46 % 998,9 hPa 0,0 l/m 11,7 km/h (2 Bft) O 82 2 min 0,000 mm 6,1 UV-I 833 W/m 14,6 C 26,4 C 20,9 km/h (4 Bft) 98,11 %
16.06.2016 14:28 27,2 C 45 % 998,9 hPa 0,0 l/m 9,8 km/h (2 Bft) NO 46 2 min 0,000 mm 5,9 UV-I 785 W/m 14,2 C 26,6 C 19,3 km/h (3 Bft) 97,37 %
16.06.2016 14:30 27,2 C 45 % 998,9 hPa 0,0 l/m 11,4 km/h (2 Bft) O-NO 67 2 min 0,000 mm 5,2 UV-I 789 W/m 14,2 C 26,4 C 17,7 km/h (3 Bft) 96,43 %
16.06.2016 14:32 27,2 C 43 % 998,8 hPa 0,0 l/m 14,0 km/h (3 Bft) O-SO 113 2 min 0,000 mm 5,0 UV-I 797 W/m 13,5 C 26,1 C 19,3 km/h (3 Bft) 95,45 %
16.06.2016 14:34 27,1 C 46 % 998,8 hPa 0,0 l/m 14,7 km/h (3 Bft) O-SO 107 2 min 0,000 mm 4,3 UV-I 613 W/m 14,5 C 25,9 C 24,1 km/h (4 Bft) 98,00 %
16.06.2016 14:36 26,9 C 44 % 998,8 hPa 0,0 l/m 13,6 km/h (3 Bft) O-SO 115 2 min 0,000 mm 4,6 UV-I 631 W/m 13,6 C 25,8 C 19,3 km/h (3 Bft) 94,74 %
16.06.2016 14:38 26,8 C 46 % 998,7 hPa 0,0 l/m 7,9 km/h (2 Bft) O 90 2 min 0,000 mm 5,1 UV-I 683 W/m 14,2 C 26,5 C 14,5 km/h (3 Bft) 98,00 %
16.06.2016 14:40 26,9 C 47 % 998,7 hPa 0,0 l/m 13,2 km/h (3 Bft) O-NO 61 2 min 0,000 mm 5,3 UV-I 678 W/m 14,6 C 25,8 C 22,5 km/h (4 Bft) 97,56 %
16.06.2016 14:42 27,0 C 47 % 998,7 hPa 0,0 l/m 17,8 km/h (3 Bft) O 100 2 min 0,000 mm 5,3 UV-I 807 W/m 14,7 C 25,4 C 24,1 km/h (4 Bft) 96,43 %
16.06.2016 14:44 27,1 C 45 % 998,7 hPa 0,0 l/m 16,0 km/h (3 Bft) O-NO 58 2 min 0,000 mm 5,9 UV-I 895 W/m 14,1 C 25,7 C 22,5 km/h (4 Bft) 97,73 %
16.06.2016 14:46 27,1 C 42 % 998,7 hPa 0,0 l/m 12,0 km/h (2 Bft) O 90 2 min 0,000 mm 4,9 UV-I 886 W/m 13,1 C 26,2 C 17,7 km/h (3 Bft) 98,00 %
16.06.2016 14:48 27,2 C 44 % 998,7 hPa 0,0 l/m 8,2 km/h (2 Bft) O-NO 64 2 min 0,000 mm 5,6 UV-I 888 W/m 13,9 C 26,9 C 12,9 km/h (3 Bft) 95,74 %
16.06.2016 14:50 27,3 C 43 % 998,7 hPa 0,0 l/m 11,4 km/h (2 Bft) O-NO 64 2 min 0,000 mm 5,7 UV-I 835 W/m 13,6 C 26,5 C 16,1 km/h (3 Bft) 95,83 %
16.06.2016 14:52 27,4 C 44 % 998,7 hPa 0,0 l/m 9,6 km/h (2 Bft) O 84 2 min 0,000 mm 6,0 UV-I 901 W/m 14,0 C 26,9 C 14,5 km/h (3 Bft) 98,39 %
16.06.2016 14:54 27,4 C 42 % 998,7 hPa 0,0 l/m 15,1 km/h (3 Bft) O-NO 67 2 min 0,000 mm 5,9 UV-I 894 W/m 13,3 C 26,2 C 20,9 km/h (4 Bft) 98,08 %
16.06.2016 14:56 27,5 C 44 % 998,6 hPa 0,0 l/m 14,3 km/h (3 Bft) O-NO 70 2 min 0,000 mm 5,9 UV-I 888 W/m 14,1 C 26,4 C 22,5 km/h (4 Bft) 96,00 %
16.06.2016 14:58 27,6 C 44 % 998,6 hPa 0,0 l/m 15,0 km/h (3 Bft) NO 55 2 min 0,000 mm 5,6 UV-I 827 W/m 14,2 C 26,5 C 19,3 km/h (3 Bft) 97,44 %
16.06.2016 15:00 27,6 C 46 % 998,6 hPa 0,0 l/m 10,6 km/h (2 Bft) O-NO 71 2 min 0,610 mm 5,2 UV-I 793 W/m 14,9 C 27,0 C 16,1 km/h (3 Bft) 100,00 %
16.06.2016 15:02 27,6 C 43 % 998,6 hPa 0,0 l/m 10,5 km/h (2 Bft) O-NO 69 2 min 0,000 mm 4,0 UV-I 630 W/m 13,9 C 27,0 C 17,7 km/h (3 Bft) 98,21 %
16.06.2016 15:04 27,5 C 44 % 998,5 hPa 0,0 l/m 11,1 km/h (2 Bft) O-NO 76 2 min 0,000 mm 4,3 UV-I 468 W/m 14,1 C 26,8 C 17,7 km/h (3 Bft) 97,56 %
16.06.2016 15:06 27,4 C 43 % 998,5 hPa 0,0 l/m 16,3 km/h (3 Bft) O-NO 75 0 min 0,000 mm 3,1 UV-I 428 W/m 13,7 C 26,1 C 20,9 km/h (4 Bft) 95,12 %
16.06.2016 15:08 27,2 C 41 % 998,5 hPa 0,0 l/m 14,6 km/h (3 Bft) O-NO 69 0 min 0,000 mm 2,7 UV-I 215 W/m 12,8 C 26,0 C 19,3 km/h (3 Bft) 100,00 %
16.06.2016 15:10 27,0 C 42 % 998,5 hPa 0,0 l/m 12,5 km/h (3 Bft) O-NO 74 0 min 0,000 mm 3,3 UV-I 319 W/m 13,0 C 26,0 C 16,1 km/h (3 Bft) 100,00 %
16.06.2016 15:12 27,0 C 46 % 998,4 hPa 0,0 l/m 9,4 km/h (2 Bft) O-NO 65 2 min 0,000 mm 4,6 UV-I 686 W/m 14,4 C 26,5 C 14,5 km/h (3 Bft) 100,00 %
16.06.2016 15:14 27,1 C 45 % 998,4 hPa 0,0 l/m 10,8 km/h (2 Bft) NO 37 2 min 0,000 mm 3,8 UV-I 751 W/m 14,1 C 26,4 C 16,1 km/h (3 Bft) 96,23 %
16.06.2016 15:16 27,1 C 42 % 998,3 hPa 0,0 l/m 18,2 km/h (3 Bft) O 82 2 min 0,000 mm 4,8 UV-I 699 W/m 13,1 C 25,5 C 24,1 km/h (4 Bft) 98,00 %
16.06.2016 15:18 27,2 C 42 % 998,3 hPa 0,0 l/m 13,9 km/h (3 Bft) O-NO 69 2 min 0,000 mm 4,7 UV-I 626 W/m 13,2 C 26,1 C 20,9 km/h (4 Bft) 100,00 %
16.06.2016 15:20 27,3 C 43 % 998,3 hPa 0,0 l/m 11,3 km/h (2 Bft) NO 38 2 min 0,000 mm 4,8 UV-I 701 W/m 13,6 C 26,5 C 17,7 km/h (3 Bft) 100,00 %
16.06.2016 15:22 27,5 C 44 % 998,3 hPa 0,0 l/m 9,8 km/h (2 Bft) N-NO 26 2 min 0,000 mm 4,3 UV-I 652 W/m 14,1 C 27,0 C 14,5 km/h (3 Bft) 98,00 %
16.06.2016 15:24 27,6 C 47 % 998,2 hPa 0,0 l/m 8,6 km/h (2 Bft) O-NO 65 2 min 0,000 mm 4,6 UV-I 683 W/m 15,3 C 27,2 C 17,7 km/h (3 Bft) 100,00 %
16.06.2016 15:26 27,7 C 44 % 998,1 hPa 0,0 l/m 13,8 km/h (3 Bft) NO 53 2 min 0,000 mm 5,1 UV-I 836 W/m 14,3 C 26,7 C 22,5 km/h (4 Bft) 100,00 %
16.06.2016 15:28 27,8 C 43 % 998,2 hPa 0,0 l/m 14,2 km/h (3 Bft) O-NO 61 2 min 0,000 mm 5,0 UV-I 807 W/m 14,1 C 26,8 C 22,5 km/h (4 Bft) 100,00 %
16.06.2016 15:30 27,8 C 44 % 998,2 hPa 0,0 l/m 16,1 km/h (3 Bft) O-NO 62 2 min 0,000 mm 4,9 UV-I 746 W/m 14,4 C 26,6 C 22,5 km/h (4 Bft) 96,30 %
16.06.2016 15:32 27,8 C 48 % 998,1 hPa 0,0 l/m 13,4 km/h (3 Bft) NO 40 2 min 0,000 mm 4,9 UV-I 783 W/m 15,8 C 26,9 C 19,3 km/h (3 Bft) 100,00 %
16.06.2016 15:34 27,9 C 46 % 998,1 hPa 0,0 l/m 14,2 km/h (3 Bft) O-NO 65 2 min 0,000 mm 4,8 UV-I 775 W/m 15,2 C 26,9 C 22,5 km/h (4 Bft) 100,00 %
16.06.2016 15:36 27,9 C 47 % 998,1 hPa 0,0 l/m 16,3 km/h (3 Bft) O-NO 58 2 min 0,000 mm 4,8 UV-I 767 W/m 15,5 C 26,7 C 22,5 km/h (4 Bft) 100,00 %
16.06.2016 15:38 27,9 C 44 % 998,1 hPa 0,0 l/m 14,4 km/h (3 Bft) NO 56 2 min 0,000 mm 4,7 UV-I 763 W/m 14,5 C 26,9 C 22,5 km/h (4 Bft) 100,00 %
16.06.2016 15:40 27,9 C 49 % 998,1 hPa 0,0 l/m 17,5 km/h (3 Bft) N-NO 25 2 min 0,000 mm 4,6 UV-I 764 W/m 16,2 C 26,6 C 25,7 km/h (4 Bft) 100,00 %
16.06.2016 15:42 27,8 C 45 % 998,1 hPa 0,0 l/m 13,9 km/h (3 Bft) O-NO 67 2 min 0,000 mm 4,6 UV-I 763 W/m 14,8 C 26,8 C 22,5 km/h (4 Bft) 98,11 %
16.06.2016 15:44 27,9 C 50 % 998,0 hPa 0,0 l/m 11,9 km/h (2 Bft) O-NO 62 2 min 0,000 mm 4,5 UV-I 737 W/m 16,5 C 27,1 C 20,9 km/h (4 Bft) 100,00 %
16.06.2016 15:46 28,1 C 45 % 998,1 hPa 0,0 l/m 12,4 km/h (3 Bft) O-NO 68 2 min 0,000 mm 4,2 UV-I 683 W/m 15,0 C 27,3 C 24,1 km/h (4 Bft) 100,00 %
16.06.2016 15:48 28,2 C 45 % 998,0 hPa 0,0 l/m 16,1 km/h (3 Bft) O-NO 63 2 min 0,000 mm 3,8 UV-I 618 W/m 15,1 C 27,1 C 25,7 km/h (4 Bft) 100,00 %
16.06.2016 15:50 28,1 C 42 % 998,0 hPa 0,0 l/m 17,8 km/h (3 Bft) O-NO 76 2 min 0,000 mm 3,0 UV-I 459 W/m 14,0 C 26,8 C 22,5 km/h (4 Bft) 100,00 %
16.06.2016 15:52 27,8 C 42 % 998,0 hPa 0,0 l/m 14,8 km/h (3 Bft) O-NO 60 0 min 0,000 mm 2,7 UV-I 320 W/m 13,7 C 26,7 C 22,5 km/h (4 Bft) 97,56 %
16.06.2016 15:54 27,7 C 43 % 998,0 hPa 0,0 l/m 16,8 km/h (3 Bft) O-NO 62 0 min 0,000 mm 2,8 UV-I 331 W/m 14,0 C 26,4 C 27,4 km/h (4 Bft) 100,00 %
16.06.2016 15:56 27,4 C 43 % 998,0 hPa 0,0 l/m 15,9 km/h (3 Bft) O-NO 65 0 min 0,000 mm 2,7 UV-I 328 W/m 13,7 C 26,1 C 20,9 km/h (4 Bft) 98,31 %
16.06.2016 15:58 27,3 C 45 % 998,0 hPa 0,0 l/m 15,8 km/h (3 Bft) O-NO 78 0 min 0,000 mm 2,6 UV-I 304 W/m 14,3 C 26,0 C 20,9 km/h (4 Bft) 100,00 %
16.06.2016 16:00 27,3 C 44 % 998,0 hPa 0,0 l/m 15,5 km/h (3 Bft) O-NO 78 0 min 0,508 mm 2,6 UV-I 313 W/m 14,0 C 26,0 C 20,9 km/h (4 Bft) 100,00 %
16.06.2016 16:02 27,3 C 44 % 997,9 hPa 0,0 l/m 16,1 km/h (3 Bft) O-NO 65 2 min 0,000 mm 3,5 UV-I 467 W/m 14,0 C 26,0 C 24,1 km/h (4 Bft) 98,21 %
16.06.2016 16:04 27,4 C 44 % 997,9 hPa 0,0 l/m 16,7 km/h (3 Bft) O 96 2 min 0,000 mm 3,5 UV-I 553 W/m 14,0 C 26,0 C 22,5 km/h (4 Bft) 100,00 %
16.06.2016 16:06 27,6 C 43 % 997,9 hPa 0,0 l/m 12,2 km/h (2 Bft) O-NO 59 2 min 0,000 mm 3,8 UV-I 625 W/m 13,9 C 26,8 C 17,7 km/h (3 Bft) 100,00 %
16.06.2016 16:08 27,8 C 43 % 997,9 hPa 0,0 l/m 14,7 km/h (3 Bft) NO 54 2 min 0,000 mm 3,9 UV-I 733 W/m 14,1 C 26,7 C 20,9 km/h (4 Bft) 97,37 %
16.06.2016 16:10 28,0 C 44 % 997,8 hPa 0,0 l/m 11,8 km/h (2 Bft) O-NO 57 2 min 0,000 mm 3,9 UV-I 724 W/m 14,6 C 27,3 C 19,3 km/h (3 Bft) 100,00 %
16.06.2016 16:12 28,1 C 44 % 997,8 hPa 0,0 l/m 17,5 km/h (3 Bft) O-NO 62 2 min 0,000 mm 3,7 UV-I 648 W/m 14,7 C 26,9 C 24,1 km/h (4 Bft) 100,00 %
16.06.2016 16:14 28,2 C 45 % 997,8 hPa 0,0 l/m 18,6 km/h (3 Bft) O-NO 76 2 min 0,000 mm 3,4 UV-I 595 W/m 15,1 C 26,9 C 22,5 km/h (4 Bft) 100,00 %
16.06.2016 16:16 28,2 C 44 % 997,7 hPa 0,0 l/m 15,2 km/h (3 Bft) O-NO 67 2 min 0,000 mm 3,5 UV-I 663 W/m 14,8 C 27,2 C 20,9 km/h (4 Bft) 100,00 %
16.06.2016 16:18 28,2 C 45 % 997,7 hPa 0,0 l/m 11,3 km/h (2 Bft) NO 50 2 min 0,000 mm 3,0 UV-I 477 W/m 15,1 C 27,5 C 17,7 km/h (3 Bft) 100,00 %
16.06.2016 16:20 28,2 C 45 % 997,6 hPa 0,0 l/m 14,7 km/h (3 Bft) O-NO 63 2 min 0,000 mm 3,0 UV-I 498 W/m 15,1 C 27,2 C 20,9 km/h (4 Bft) 100,00 %
16.06.2016 16:22 28,1 C 47 % 997,6 hPa 0,0 l/m 18,8 km/h (3 Bft) NO 49 2 min 0,000 mm 3,1 UV-I 521 W/m 15,7 C 26,8 C 29,0 km/h (5 Bft) 96,00 %
16.06.2016 16:24 27,9 C 47 % 997,6 hPa 0,0 l/m 16,1 km/h (3 Bft) O-NO 63 2 min 0,000 mm 3,5 UV-I 668 W/m 15,5 C 26,7 C 25,7 km/h (4 Bft) 97,73 %
16.06.2016 16:26 28,0 C 44 % 997,6 hPa 0,0 l/m 11,8 km/h (2 Bft) NO 44 2 min 0,000 mm 3,5 UV-I 684 W/m 14,6 C 27,3 C 16,1 km/h (3 Bft) 97,56 %
16.06.2016 16:28 28,0 C 45 % 997,6 hPa 0,0 l/m 16,4 km/h (3 Bft) NO 43 2 min 0,000 mm 3,4 UV-I 671 W/m 14,9 C 26,8 C 20,9 km/h (4 Bft) 97,73 %
16.06.2016 16:30 28,1 C 45 % 997,5 hPa 0,0 l/m 15,1 km/h (3 Bft) NO 40 2 min 0,000 mm 3,4 UV-I 654 W/m 15,0 C 27,1 C 20,9 km/h (4 Bft) 96,61 %
16.06.2016 16:32 28,2 C 47 % 997,5 hPa 0,0 l/m 12,7 km/h (3 Bft) NO 36 2 min 0,000 mm 3,3 UV-I 649 W/m 15,8 C 27,4 C 19,3 km/h (3 Bft) 97,87 %
16.06.2016 16:34 28,2 C 45 % 997,5 hPa 0,0 l/m 13,4 km/h (3 Bft) N-NO 22 2 min 0,000 mm 3,2 UV-I 641 W/m 15,1 C 27,3 C 20,9 km/h (4 Bft) 97,37 %
16.06.2016 16:36 28,2 C 44 % 997,5 hPa 0,0 l/m 16,3 km/h (3 Bft) NO 44 2 min 0,000 mm 3,2 UV-I 635 W/m 14,8 C 27,1 C 24,1 km/h (4 Bft) 96,00 %
16.06.2016 16:38 28,2 C 44 % 997,5 hPa 0,0 l/m 17,8 km/h (3 Bft) O-NO 76 2 min 0,000 mm 3,1 UV-I 628 W/m 14,8 C 27,0 C 22,5 km/h (4 Bft) 98,00 %
16.06.2016 16:40 28,3 C 41 % 997,5 hPa 0,0 l/m 16,2 km/h (3 Bft) O-NO 63 2 min 0,000 mm 3,1 UV-I 624 W/m 13,8 C 27,2 C 25,7 km/h (4 Bft) 96,00 %
16.06.2016 16:42 28,3 C 45 % 997,4 hPa 0,0 l/m 13,2 km/h (3 Bft) NO 53 2 min 0,000 mm 3,1 UV-I 618 W/m 15,2 C 27,5 C 19,3 km/h (3 Bft) 97,56 %
16.06.2016 16:44 28,4 C 44 % 997,4 hPa 0,0 l/m 13,3 km/h (3 Bft) O-NO 60 2 min 0,000 mm 2,8 UV-I 527 W/m 14,9 C 27,6 C 22,5 km/h (4 Bft) 98,11 %
16.06.2016 16:46 28,4 C 42 % 997,4 hPa 0,0 l/m 15,8 km/h (3 Bft) O-SO 114 2 min 0,000 mm 2,7 UV-I 527 W/m 14,2 C 27,4 C 22,5 km/h (4 Bft) 97,87 %
16.06.2016 16:48 28,4 C 43 % 997,4 hPa 0,0 l/m 11,4 km/h (2 Bft) O-NO 67 2 min 0,000 mm 2,9 UV-I 536 W/m 14,6 C 27,8 C 24,1 km/h (4 Bft) 97,37 %
16.06.2016 16:50 28,3 C 42 % 997,3 hPa 0,0 l/m 17,7 km/h (3 Bft) O-NO 78 2 min 0,000 mm 2,8 UV-I 610 W/m 14,1 C 27,1 C 27,4 km/h (4 Bft) 97,22 %
16.06.2016 16:52 28,3 C 41 % 997,3 hPa 0,0 l/m 19,3 km/h (3 Bft) O-NO 57 2 min 0,000 mm 2,8 UV-I 599 W/m 13,8 C 27,0 C 32,2 km/h (5 Bft) 98,21 %
16.06.2016 16:54 28,3 C 42 % 997,2 hPa 0,0 l/m 21,8 km/h (4 Bft) NO 55 2 min 0,000 mm 2,8 UV-I 596 W/m 14,1 C 26,8 C 30,6 km/h (5 Bft) 97,56 %
16.06.2016 16:56 28,2 C 42 % 997,2 hPa 0,0 l/m 21,1 km/h (4 Bft) O 99 2 min 0,000 mm 2,6 UV-I 554 W/m 14,0 C 26,7 C 29,0 km/h (5 Bft) 100,00 %
16.06.2016 16:58 28,2 C 45 % 997,2 hPa 0,0 l/m 14,7 km/h (3 Bft) O-NO 71 2 min 0,000 mm 2,4 UV-I 581 W/m 15,1 C 27,2 C 22,5 km/h (4 Bft) 98,11 %
16.06.2016 17:00 28,1 C 42 % 997,2 hPa 0,0 l/m 12,9 km/h (3 Bft) O 80 2 min 0,533 mm 2,1 UV-I 476 W/m 14,0 C 27,3 C 20,9 km/h (4 Bft) 100,00 %
16.06.2016 17:02 28,0 C 44 % 997,2 hPa 0,0 l/m 12,9 km/h (3 Bft) O-SO 119 2 min 0,000 mm 2,2 UV-I 474 W/m 14,6 C 27,1 C 19,3 km/h (3 Bft) 100,00 %
16.06.2016 17:04 28,1 C 43 % 997,1 hPa 0,0 l/m 9,3 km/h (2 Bft) NO 53 2 min 0,000 mm 2,5 UV-I 597 W/m 14,3 C 27,7 C 14,5 km/h (3 Bft) 100,00 %
16.06.2016 17:06 27,9 C 42 % 997,1 hPa 0,0 l/m 10,2 km/h (2 Bft) O-NO 77 0 min 0,000 mm 1,6 UV-I 292 W/m 13,8 C 27,3 C 20,9 km/h (4 Bft) 100,00 %
16.06.2016 17:08 27,8 C 43 % 997,0 hPa 0,0 l/m 12,7 km/h (3 Bft) O-NO 74 0 min 0,000 mm 1,4 UV-I 85 W/m 14,1 C 26,9 C 20,9 km/h (4 Bft) 100,00 %
16.06.2016 17:10 27,6 C 42 % 997,0 hPa 0,0 l/m 11,8 km/h (2 Bft) O-NO 66 0 min 0,000 mm 1,5 UV-I 111 W/m 13,5 C 26,8 C 22,5 km/h (4 Bft) 100,00 %
16.06.2016 17:12 27,4 C 43 % 996,9 hPa 0,0 l/m 13,4 km/h (3 Bft) O-NO 65 0 min 0,000 mm 1,8 UV-I 141 W/m 13,7 C 26,4 C 22,5 km/h (4 Bft) 97,56 %
16.06.2016 17:14 27,4 C 43 % 996,9 hPa 0,0 l/m 11,6 km/h (2 Bft) O 83 2 min 0,000 mm 1,9 UV-I 432 W/m 13,7 C 26,6 C 22,5 km/h (4 Bft) 100,00 %
16.06.2016 17:16 27,4 C 43 % 996,9 hPa 0,0 l/m 12,1 km/h (2 Bft) O 85 2 min 0,000 mm 1,7 UV-I 529 W/m 13,7 C 26,5 C 19,3 km/h (3 Bft) 100,00 %
16.06.2016 17:18 27,4 C 42 % 996,9 hPa 0,0 l/m 16,9 km/h (3 Bft) O-SO 103 2 min 0,000 mm 1,7 UV-I 529 W/m 13,3 C 26,0 C 24,1 km/h (4 Bft) 100,00 %
16.06.2016 17:20 27,4 C 43 % 996,9 hPa 0,0 l/m 15,2 km/h (3 Bft) O-SO 119 0 min 0,000 mm 1,6 UV-I 192 W/m 13,7 C 26,2 C 22,5 km/h (4 Bft) 98,11 %
16.06.2016 17:22 27,4 C 43 % 996,9 hPa 0,0 l/m 12,7 km/h (3 Bft) O 92 0 min 0,000 mm 1,8 UV-I 129 W/m 13,7 C 26,5 C 19,3 km/h (3 Bft) 100,00 %
16.06.2016 17:24 27,4 C 43 % 996,9 hPa 0,0 l/m 13,3 km/h (3 Bft) O 96 0 min 0,000 mm 2,1 UV-I 180 W/m 13,7 C 26,4 C 22,5 km/h (4 Bft) 100,00 %
16.06.2016 17:26 27,6 C 43 % 996,7 hPa 0,0 l/m 12,4 km/h (3 Bft) O 81 2 min 0,000 mm 2,0 UV-I 358 W/m 13,9 C 26,7 C 19,3 km/h (3 Bft) 98,11 %
16.06.2016 17:28 27,7 C 43 % 996,8 hPa 0,0 l/m 7,7 km/h (2 Bft) O 82 2 min 0,000 mm 2,0 UV-I 532 W/m 14,0 C 27,5 C 12,9 km/h (3 Bft) 97,44 %
16.06.2016 17:30 27,8 C 44 % 996,7 hPa 0,0 l/m 9,6 km/h (2 Bft) O-NO 65 2 min 0,000 mm 1,9 UV-I 516 W/m 14,4 C 27,3 C 19,3 km/h (3 Bft) 100,00 %
16.06.2016 17:32 27,9 C 42 % 996,7 hPa 0,0 l/m 15,0 km/h (3 Bft) O-NO 67 2 min 0,000 mm 1,8 UV-I 510 W/m 13,8 C 26,8 C 30,6 km/h (5 Bft) 97,44 %
16.06.2016 17:34 27,8 C 42 % 996,7 hPa 0,0 l/m 14,7 km/h (3 Bft) O-NO 73 0 min 0,000 mm 1,2 UV-I 118 W/m 13,7 C 26,7 C 25,7 km/h (4 Bft) 100,00 %
16.06.2016 17:36 27,6 C 44 % 996,7 hPa 0,0 l/m 17,5 km/h (3 Bft) O-NO 76 0 min 0,000 mm 1,5 UV-I 134 W/m 14,2 C 26,2 C 24,1 km/h (4 Bft) 98,11 %
16.06.2016 17:38 27,6 C 43 % 996,7 hPa 0,0 l/m 15,5 km/h (3 Bft) O-SO 111 2 min 0,000 mm 1,8 UV-I 485 W/m 13,9 C 26,4 C 20,9 km/h (4 Bft) 100,00 %
16.06.2016 17:40 27,7 C 43 % 996,7 hPa 0,0 l/m 17,3 km/h (3 Bft) O 101 2 min 0,000 mm 1,5 UV-I 454 W/m 14,0 C 26,4 C 22,5 km/h (4 Bft) 100,00 %
16.06.2016 17:42 27,7 C 43 % 996,7 hPa 0,0 l/m 10,2 km/h (2 Bft) O 80 2 min 0,000 mm 1,6 UV-I 284 W/m 14,0 C 27,1 C 17,7 km/h (3 Bft) 100,00 %
16.06.2016 17:44 27,8 C 44 % 996,7 hPa 0,0 l/m 11,9 km/h (2 Bft) O 94 2 min 0,000 mm 1,6 UV-I 470 W/m 14,4 C 27,0 C 17,7 km/h (3 Bft) 100,00 %
16.06.2016 17:46 27,9 C 43 % 996,7 hPa 0,0 l/m 9,8 km/h (2 Bft) O-SO 114 2 min 0,000 mm 1,6 UV-I 450 W/m 14,1 C 27,4 C 19,3 km/h (3 Bft) 100,00 %
16.06.2016 17:48 28,1 C 43 % 996,6 hPa 0,0 l/m 10,0 km/h (2 Bft) O-SO 115 2 min 0,000 mm 1,5 UV-I 463 W/m 14,3 C 27,6 C 16,1 km/h (3 Bft) 100,00 %
16.06.2016 17:50 28,1 C 42 % 996,5 hPa 0,0 l/m 7,8 km/h (2 Bft) O-NO 58 2 min 0,000 mm 1,5 UV-I 461 W/m 14,0 C 27,9 C 16,1 km/h (3 Bft) 100,00 %
16.06.2016 17:52 28,2 C 42 % 996,5 hPa 0,0 l/m 12,3 km/h (3 Bft) O 79 2 min 0,000 mm 1,5 UV-I 452 W/m 14,0 C 27,4 C 19,3 km/h (3 Bft) 100,00 %
16.06.2016 17:54 28,2 C 44 % 996,5 hPa 0,0 l/m 12,0 km/h (2 Bft) O-NO 57 2 min 0,000 mm 1,4 UV-I 435 W/m 14,8 C 27,5 C 16,1 km/h (3 Bft) 98,11 %
16.06.2016 17:56 28,2 C 41 % 996,5 hPa 0,0 l/m 15,4 km/h (3 Bft) O-NO 65 2 min 0,000 mm 1,2 UV-I 416 W/m 13,7 C 27,1 C 22,5 km/h (4 Bft) 100,00 %
16.06.2016 17:58 28,2 C 44 % 996,4 hPa 0,0 l/m 8,3 km/h (2 Bft) O-NO 77 2 min 0,000 mm 1,3 UV-I 427 W/m 14,8 C 27,9 C 16,1 km/h (3 Bft) 100,00 %
16.06.2016 18:00 28,2 C 45 % 996,4 hPa 0,0 l/m 12,4 km/h (3 Bft) O-NO 67 2 min 0,000 mm 1,3 UV-I 422 W/m 15,1 C 27,4 C 20,9 km/h (4 Bft) 100,00 %
16.06.2016 18:02 28,2 C 43 % 996,3 hPa 0,0 l/m 8,2 km/h (2 Bft) O 86 2 min 0,356 mm 1,3 UV-I 412 W/m 14,4 C 27,9 C 14,5 km/h (3 Bft) 100,00 %
16.06.2016 18:04 28,2 C 42 % 996,3 hPa 0,0 l/m 12,5 km/h (3 Bft) O-SO 109 2 min 0,000 mm 1,2 UV-I 403 W/m 14,0 C 27,4 C 19,3 km/h (3 Bft) 100,00 %
16.06.2016 18:06 28,2 C 43 % 996,3 hPa 0,0 l/m 10,0 km/h (2 Bft) O-SO 112 2 min 0,000 mm 1,2 UV-I 397 W/m 14,4 C 27,7 C 16,1 km/h (3 Bft) 100,00 %
16.06.2016 18:08 28,1 C 43 % 996,3 hPa 0,0 l/m 9,2 km/h (2 Bft) O-SO 107 2 min 0,000 mm 1,1 UV-I 390 W/m 14,3 C 27,7 C 12,9 km/h (3 Bft) 100,00 %
16.06.2016 18:10 28,1 C 42 % 996,4 hPa 0,0 l/m 10,2 km/h (2 Bft) O-NO 71 2 min 0,000 mm 1,1 UV-I 382 W/m 14,0 C 27,6 C 19,3 km/h (3 Bft) 100,00 %
16.06.2016 18:12 28,1 C 42 % 996,4 hPa 0,0 l/m 12,7 km/h (3 Bft) O 101 2 min 0,000 mm 1,0 UV-I 380 W/m 14,0 C 27,3 C 25,7 km/h (4 Bft) 100,00 %
16.06.2016 18:14 28,1 C 41 % 996,5 hPa 0,0 l/m 12,7 km/h (3 Bft) O-SO 111 2 min 0,000 mm 1,0 UV-I 372 W/m 13,6 C 27,3 C 19,3 km/h (3 Bft) 100,00 %
16.06.2016 18:16 28,1 C 42 % 996,5 hPa 0,0 l/m 5,8 km/h (2 Bft) O 86 2 min 0,000 mm 1,0 UV-I 305 W/m 14,0 C 28,1 C 12,9 km/h (3 Bft) 97,73 %
16.06.2016 18:18 28,0 C 42 % 996,4 hPa 0,0 l/m 5,7 km/h (1 Bft) O-SO 113 2 min 0,000 mm 0,9 UV-I 330 W/m 13,9 C 28,0 C 12,9 km/h (3 Bft) 95,45 %
16.06.2016 18:20 27,9 C 42 % 996,4 hPa 0,0 l/m 6,4 km/h (2 Bft) SO 134 2 min 0,000 mm 0,8 UV-I 258 W/m 13,8 C 27,9 C 12,9 km/h (3 Bft) 96,23 %
16.06.2016 18:22 27,7 C 43 % 996,4 hPa 0,0 l/m 8,9 km/h (2 Bft) O-SO 111 0 min 0,000 mm 0,9 UV-I 118 W/m 14,0 C 27,3 C 16,1 km/h (3 Bft) 94,00 %
16.06.2016 18:24 27,7 C 43 % 996,5 hPa 0,0 l/m 9,2 km/h (2 Bft) O-SO 119 2 min 0,000 mm 0,8 UV-I 362 W/m 14,0 C 27,3 C 16,1 km/h (3 Bft) 95,12 %
16.06.2016 18:26 27,7 C 44 % 996,5 hPa 0,0 l/m 8,6 km/h (2 Bft) O-SO 116 2 min 0,000 mm 0,9 UV-I 368 W/m 14,3 C 27,3 C 16,1 km/h (3 Bft) 95,45 %
16.06.2016 18:28 27,7 C 42 % 996,5 hPa 0,0 l/m 13,3 km/h (3 Bft) O 89 2 min 0,000 mm 0,9 UV-I 374 W/m 13,6 C 26,8 C 19,3 km/h (3 Bft) 98,11 %
16.06.2016 18:30 27,7 C 43 % 996,5 hPa 0,0 l/m 17,7 km/h (3 Bft) O-SO 111 2 min 0,000 mm 0,8 UV-I 366 W/m 14,0 C 26,3 C 25,7 km/h (4 Bft) 94,74 %
16.06.2016 18:32 27,7 C 42 % 996,5 hPa 0,0 l/m 12,8 km/h (3 Bft) O-SO 105 2 min 0,000 mm 0,7 UV-I 249 W/m 13,6 C 26,8 C 22,5 km/h (4 Bft) 98,00 %
16.06.2016 18:34 27,6 C 44 % 996,5 hPa 0,0 l/m 13,9 km/h (3 Bft) O-SO 111 0 min 0,000 mm 0,7 UV-I 131 W/m 14,2 C 26,6 C 20,9 km/h (4 Bft) 97,73 %
16.06.2016 18:36 27,4 C 45 % 996,7 hPa 0,0 l/m 11,3 km/h (2 Bft) O-NO 76 2 min 0,000 mm 0,7 UV-I 260 W/m 14,4 C 26,6 C 20,9 km/h (4 Bft) 98,31 %
16.06.2016 18:38 27,4 C 43 % 996,7 hPa 0,0 l/m 10,3 km/h (2 Bft) O-SO 122 2 min 0,000 mm 0,6 UV-I 355 W/m 13,7 C 26,8 C 17,7 km/h (3 Bft) 96,30 %
16.06.2016 18:40 27,3 C 43 % 996,6 hPa 0,0 l/m 11,9 km/h (2 Bft) O 82 0 min 0,000 mm 0,6 UV-I 95 W/m 13,6 C 26,4 C 17,7 km/h (3 Bft) 98,18 %
16.06.2016 18:42 27,1 C 44 % 996,7 hPa 0,0 l/m 10,7 km/h (2 Bft) O 101 0 min 0,000 mm 0,5 UV-I 90 W/m 13,8 C 26,4 C 17,7 km/h (3 Bft) 96,43 %
16.06.2016 18:44 26,8 C 45 % 996,6 hPa 0,0 l/m 9,2 km/h (2 Bft) SO 131 0 min 0,000 mm 0,5 UV-I 66 W/m 13,9 C 26,3 C 12,9 km/h (3 Bft) 97,87 %
16.06.2016 18:46 26,6 C 45 % 996,6 hPa 0,0 l/m 10,3 km/h (2 Bft) O-NO 68 0 min 0,000 mm 0,2 UV-I 56 W/m 13,7 C 25,9 C 16,1 km/h (3 Bft) 97,87 %
16.06.2016 18:48 26,5 C 45 % 996,5 hPa 0,0 l/m 10,1 km/h (2 Bft) NO 55 0 min 0,000 mm 0,0 UV-I 50 W/m 13,6 C 25,8 C 17,7 km/h (3 Bft) 100,00 %
16.06.2016 18:50 26,4 C 45 % 996,5 hPa 0,0 l/m 8,6 km/h (2 Bft) O 90 0 min 0,000 mm 0,0 UV-I 47 W/m 13,5 C 26,0 C 14,5 km/h (3 Bft) 100,00 %
16.06.2016 18:52 26,2 C 45 % 996,5 hPa 0,0 l/m 9,0 km/h (2 Bft) O 82 0 min 0,000 mm 0,0 UV-I 47 W/m 13,3 C 25,7 C 16,1 km/h (3 Bft) 100,00 %
16.06.2016 18:54 26,1 C 46 % 996,5 hPa 0,0 l/m 10,1 km/h (2 Bft) O 86 0 min 0,000 mm 0,0 UV-I 60 W/m 13,6 C 25,4 C 17,7 km/h (3 Bft) 100,00 %
16.06.2016 18:56 25,9 C 47 % 996,6 hPa 0,0 l/m 8,1 km/h (2 Bft) O-SO 120 0 min 0,000 mm 0,0 UV-I 62 W/m 13,7 C 25,5 C 14,5 km/h (3 Bft) 98,00 %
16.06.2016 18:58 25,8 C 46 % 996,5 hPa 0,0 l/m 9,8 km/h (2 Bft) O 80 0 min 0,000 mm 0,0 UV-I 62 W/m 13,3 C 25,1 C 14,5 km/h (3 Bft) 100,00 %
16.06.2016 19:00 25,8 C 47 % 996,5 hPa 0,0 l/m 9,3 km/h (2 Bft) O-NO 65 0 min 0,000 mm 0,0 UV-I 72 W/m 13,6 C 25,2 C 16,1 km/h (3 Bft) 100,00 %
16.06.2016 19:02 25,8 C 48 % 996,5 hPa 0,0 l/m 7,4 km/h (2 Bft) O 92 0 min 0,254 mm 0,0 UV-I 82 W/m 13,9 C 25,6 C 12,9 km/h (3 Bft) 97,87 %
16.06.2016 19:04 25,7 C 48 % 996,6 hPa 0,0 l/m 4,8 km/h (1 Bft) O-NO 74 0 min 0,000 mm 0,0 UV-I 80 W/m 13,9 C 25,7 C 9,7 km/h (2 Bft) 98,21 %
16.06.2016 19:06 25,7 C 48 % 996,6 hPa 0,0 l/m 6,2 km/h (2 Bft) O-NO 67 0 min 0,000 mm 0,0 UV-I 46 W/m 13,9 C 25,7 C 9,7 km/h (2 Bft) 100,00 %
16.06.2016 19:08 25,6 C 49 % 996,7 hPa 0,0 l/m 6,6 km/h (2 Bft) O 97 0 min 0,000 mm 0,0 UV-I 31 W/m 14,1 C 25,6 C 9,7 km/h (2 Bft) 100,00 %
16.06.2016 19:10 25,5 C 49 % 996,7 hPa 0,0 l/m 5,2 km/h (1 Bft) O 87 0 min 0,000 mm 0,0 UV-I 26 W/m 14,0 C 25,5 C 9,7 km/h (2 Bft) 100,00 %
16.06.2016 19:12 25,3 C 51 % 996,7 hPa 0,0 l/m 5,9 km/h (2 Bft) O-SO 107 0 min 0,000 mm 0,0 UV-I 31 W/m 14,4 C 25,3 C 9,7 km/h (2 Bft) 100,00 %
16.06.2016 19:14 25,2 C 48 % 996,8 hPa 0,0 l/m 6,0 km/h (2 Bft) O 92 0 min 0,000 mm 0,0 UV-I 43 W/m 13,4 C 25,2 C 9,7 km/h (2 Bft) 100,00 %
16.06.2016 19:16 25,2 C 49 % 996,9 hPa 0,0 l/m 10,4 km/h (2 Bft) O 85 0 min 0,000 mm 0,0 UV-I 43 W/m 13,7 C 24,3 C 14,5 km/h (3 Bft) 100,00 %
16.06.2016 19:18 25,2 C 49 % 996,9 hPa 0,0 l/m 9,0 km/h (2 Bft) O-SO 111 0 min 0,000 mm 0,0 UV-I 45 W/m 13,7 C 24,6 C 12,9 km/h (3 Bft) 100,00 %
16.06.2016 19:20 25,2 C 50 % 996,8 hPa 0,0 l/m 7,4 km/h (2 Bft) O 84 0 min 0,000 mm 0,0 UV-I 57 W/m 14,0 C 25,0 C 9,7 km/h (2 Bft) 100,00 %
16.06.2016 19:22 25,2 C 49 % 996,6 hPa 0,0 l/m 5,9 km/h (2 Bft) O 97 0 min 0,000 mm 0,0 UV-I 56 W/m 13,7 C 25,2 C 11,3 km/h (2 Bft) 100,00 %
16.06.2016 19:24 25,3 C 49 % 996,5 hPa 0,0 l/m 3,9 km/h (1 Bft) O 90 0 min 0,000 mm 0,0 UV-I 53 W/m 13,8 C 25,3 C 4,8 km/h (1 Bft) 100,00 %
16.06.2016 19:26 25,3 C 50 % 996,6 hPa 0,0 l/m 6,4 km/h (2 Bft) SO 130 0 min 0,000 mm 0,0 UV-I 47 W/m 14,1 C 25,3 C 9,7 km/h (2 Bft) 100,00 %
16.06.2016 19:28 25,2 C 49 % 996,7 hPa 0,0 l/m 3,2 km/h (1 Bft) S-SO 147 0 min 0,000 mm 0,0 UV-I 42 W/m 13,7 C 25,2 C 6,4 km/h (2 Bft) 100,00 %
16.06.2016 19:30 25,3 C 50 % 996,9 hPa 0,0 l/m 3,6 km/h (1 Bft) S-SO 156 0 min 0,000 mm 0,0 UV-I 39 W/m 14,1 C 25,3 C 6,4 km/h (2 Bft) 100,00 %
16.06.2016 19:32 25,2 C 50 % 996,9 hPa 0,0 l/m 2,7 km/h (1 Bft) S-SO 157 0 min 0,000 mm 0,0 UV-I 37 W/m 14,0 C 25,2 C 4,8 km/h (1 Bft) 100,00 %
16.06.2016 19:34 25,2 C 50 % 997,0 hPa 0,0 l/m 5,4 km/h (1 Bft) S 178 0 min 0,000 mm 0,0 UV-I 35 W/m 14,0 C 25,2 C 11,3 km/h (2 Bft) 100,00 %
16.06.2016 19:36 25,2 C 49 % 997,2 hPa 0,0 l/m 12,9 km/h (3 Bft) S-SO 160 0 min 0,000 mm 0,0 UV-I 36 W/m 13,7 C 23,9 C 22,5 km/h (4 Bft) 97,73 %
16.06.2016 19:38 25,2 C 48 % 997,2 hPa 0,0 l/m 17,4 km/h (3 Bft) SW 216 0 min 0,000 mm 0,0 UV-I 32 W/m 13,4 C 23,2 C 37,0 km/h (5 Bft) 97,56 %
16.06.2016 19:40 25,2 C 52 % 997,4 hPa 0,0 l/m 20,3 km/h (4 Bft) S-SO 151 0 min 0,000 mm 0,0 UV-I 27 W/m 14,6 C 22,9 C 38,6 km/h (5 Bft) 100,00 %
16.06.2016 19:42 25,2 C 55 % 997,3 hPa 0,0 l/m 24,8 km/h (4 Bft) W-SW 238 0 min 0,000 mm 0,0 UV-I 20 W/m 15,5 C 22,4 C 33,8 km/h (5 Bft) 100,00 %
16.06.2016 19:44 25,1 C 57 % 997,7 hPa 0,0 l/m 22,8 km/h (4 Bft) S 189 0 min 0,000 mm 0,0 UV-I 15 W/m 16,0 C 22,5 C 38,6 km/h (5 Bft) 97,37 %
16.06.2016 19:46 25,0 C 59 % 997,6 hPa 0,0 l/m 21,4 km/h (4 Bft) SW 234 0 min 0,000 mm 0,0 UV-I 12 W/m 16,4 C 22,5 C 33,8 km/h (5 Bft) 97,87 %
16.06.2016 19:48 24,8 C 60 % 997,8 hPa 0,0 l/m 22,2 km/h (4 Bft) SW 220 0 min 0,000 mm 0,0 UV-I 11 W/m 16,5 C 22,2 C 38,6 km/h (5 Bft) 100,00 %
16.06.2016 19:50 24,7 C 61 % 998,0 hPa 0,0 l/m 26,0 km/h (4 Bft) S-SW 207 0 min 0,000 mm 0,0 UV-I 11 W/m 16,7 C 21,7 C 48,3 km/h (6 Bft) 97,56 %
16.06.2016 19:52 24,4 C 64 % 998,1 hPa 0,0 l/m 25,8 km/h (4 Bft) S-SW 213 0 min 0,000 mm 0,0 UV-I 10 W/m 17,1 C 21,3 C 43,5 km/h (6 Bft) 100,00 %
16.06.2016 19:54 24,2 C 65 % 998,3 hPa 0,0 l/m 26,3 km/h (4 Bft) W 260 0 min 0,000 mm 0,0 UV-I 9 W/m 17,2 C 20,9 C 41,8 km/h (6 Bft) 100,00 %
16.06.2016 19:56 23,8 C 67 % 998,4 hPa 0,0 l/m 21,4 km/h (4 Bft) W 265 0 min 0,000 mm 0,0 UV-I 9 W/m 17,3 C 20,9 C 37,0 km/h (5 Bft) 100,00 %
16.06.2016 19:58 23,6 C 68 % 998,5 hPa 0,0 l/m 29,7 km/h (5 Bft) SW 232 0 min 0,000 mm 0,0 UV-I 12 W/m 17,3 C 19,8 C 41,8 km/h (6 Bft) 100,00 %
16.06.2016 20:00 23,3 C 70 % 998,5 hPa 0,0 l/m 20,1 km/h (4 Bft) W-SW 257 0 min 0,000 mm 0,0 UV-I 18 W/m 17,5 C 20,5 C 30,6 km/h (5 Bft) 100,00 %
16.06.2016 20:02 23,0 C 71 % 998,5 hPa 0,0 l/m 20,3 km/h (4 Bft) S 174 0 min 0,127 mm 0,0 UV-I 25 W/m 17,4 C 20,0 C 29,0 km/h (5 Bft) 100,00 %
16.06.2016 20:04 22,7 C 73 % 998,5 hPa 0,0 l/m 28,0 km/h (4 Bft) SW 236 0 min 0,000 mm 0,0 UV-I 31 W/m 17,6 C 18,7 C 37,0 km/h (5 Bft) 97,62 %
16.06.2016 20:06 22,5 C 74 % 998,5 hPa 0,0 l/m 21,7 km/h (4 Bft) W-SW 244 0 min 0,000 mm 0,0 UV-I 32 W/m 17,6 C 19,2 C 33,8 km/h (5 Bft) 100,00 %
16.06.2016 20:08 22,3 C 74 % 998,3 hPa 0,0 l/m 19,8 km/h (3 Bft) SW 221 0 min 0,000 mm 0,0 UV-I 31 W/m 17,4 C 19,2 C 37,0 km/h (5 Bft) 97,78 %
16.06.2016 20:10 22,1 C 76 % 998,2 hPa 0,0 l/m 22,4 km/h (4 Bft) W-SW 243 0 min 0,000 mm 0,0 UV-I 27 W/m 17,7 C 18,6 C 32,2 km/h (5 Bft) 97,96 %
16.06.2016 20:12 21,9 C 76 % 998,3 hPa 0,0 l/m 15,1 km/h (3 Bft) SW 219 0 min 0,000 mm 0,0 UV-I 25 W/m 17,5 C 19,5 C 22,5 km/h (4 Bft) 97,92 %
16.06.2016 20:14 21,7 C 78 % 998,2 hPa 0,0 l/m 12,2 km/h (2 Bft) W-SW 242 0 min 0,000 mm 0,0 UV-I 23 W/m 17,7 C 19,9 C 17,7 km/h (3 Bft) 97,56 %
16.06.2016 20:16 21,5 C 78 % 998,2 hPa 0,0 l/m 14,0 km/h (3 Bft) W-SW 249 0 min 0,000 mm 0,0 UV-I 23 W/m 17,5 C 19,3 C 19,3 km/h (3 Bft) 97,87 %
16.06.2016 20:18 21,3 C 80 % 998,3 hPa 0,0 l/m 14,4 km/h (3 Bft) SW 232 0 min 0,000 mm 0,0 UV-I 25 W/m 17,7 C 19,0 C 24,1 km/h (4 Bft) 97,73 %
16.06.2016 20:20 21,2 C 80 % 998,4 hPa 0,0 l/m 18,5 km/h (3 Bft) W 273 0 min 0,000 mm 0,0 UV-I 24 W/m 17,6 C 18,0 C 30,6 km/h (5 Bft) 95,45 %
16.06.2016 20:22 21,0 C 80 % 998,4 hPa 0,0 l/m 16,3 km/h (3 Bft) SW 223 0 min 0,000 mm 0,0 UV-I 22 W/m 17,4 C 18,2 C 25,7 km/h (4 Bft) 98,11 %
16.06.2016 20:24 20,9 C 81 % 998,3 hPa 0,0 l/m 20,4 km/h (4 Bft) W-SW 248 0 min 0,000 mm 0,0 UV-I 20 W/m 17,5 C 17,3 C 30,6 km/h (5 Bft) 97,56 %
16.06.2016 20:26 20,8 C 80 % 998,3 hPa 0,0 l/m 20,6 km/h (4 Bft) W 270 0 min 0,000 mm 0,0 UV-I 18 W/m 17,2 C 17,1 C 29,0 km/h (5 Bft) 94,74 %
16.06.2016 20:28 20,7 C 80 % 998,3 hPa 0,0 l/m 20,5 km/h (4 Bft) W-SW 253 0 min 0,000 mm 0,0 UV-I 17 W/m 17,1 C 17,0 C 30,6 km/h (5 Bft) 96,77 %
16.06.2016 20:30 20,6 C 80 % 998,4 hPa 0,0 l/m 17,3 km/h (3 Bft) W-SW 237 0 min 0,000 mm 0,0 UV-I 15 W/m 17,0 C 17,5 C 27,4 km/h (4 Bft) 95,12 %
16.06.2016 20:32 20,5 C 81 % 998,4 hPa 0,0 l/m 17,2 km/h (3 Bft) W-SW 257 0 min 0,000 mm 0,0 UV-I 13 W/m 17,1 C 17,4 C 25,7 km/h (4 Bft) 98,00 %
16.06.2016 20:34 20,4 C 81 % 998,4 hPa 0,0 l/m 18,5 km/h (3 Bft) W-SW 257 0 min 0,000 mm 0,0 UV-I 11 W/m 17,0 C 17,0 C 24,1 km/h (4 Bft) 97,56 %
16.06.2016 20:36 20,3 C 81 % 998,4 hPa 0,0 l/m 19,0 km/h (3 Bft) W-SW 248 0 min 0,000 mm 0,0 UV-I 9 W/m 16,9 C 16,8 C 29,0 km/h (5 Bft) 96,23 %
16.06.2016 20:38 20,2 C 82 % 998,3 hPa 0,0 l/m 16,8 km/h (3 Bft) W-SW 253 0 min 0,000 mm 0,0 UV-I 9 W/m 17,0 C 17,1 C 24,1 km/h (4 Bft) 95,74 %
16.06.2016 20:40 20,1 C 82 % 998,3 hPa 0,0 l/m 17,3 km/h (3 Bft) SW 227 0 min 0,000 mm 0,0 UV-I 7 W/m 16,9 C 16,9 C 25,7 km/h (4 Bft) 97,73 %
16.06.2016 20:42 20,0 C 82 % 998,4 hPa 0,0 l/m 16,7 km/h (3 Bft) W 261 0 min 0,000 mm 0,0 UV-I 7 W/m 16,8 C 16,9 C 22,5 km/h (4 Bft) 96,43 %
16.06.2016 20:44 19,9 C 83 % 998,5 hPa 0,0 l/m 17,7 km/h (3 Bft) W-SW 244 0 min 0,000 mm 0,0 UV-I 6 W/m 16,9 C 16,5 C 24,1 km/h (4 Bft) 100,00 %
16.06.2016 20:46 19,8 C 83 % 998,6 hPa 0,0 l/m 14,7 km/h (3 Bft) SW 229 0 min 0,000 mm 0,0 UV-I 5 W/m 16,8 C 17,1 C 27,4 km/h (4 Bft) 100,00 %
16.06.2016 20:48 19,7 C 83 % 998,7 hPa 0,0 l/m 16,3 km/h (3 Bft) SW 235 0 min 0,000 mm 0,0 UV-I 4 W/m 16,7 C 16,6 C 25,7 km/h (4 Bft) 100,00 %
16.06.2016 20:50 19,7 C 84 % 998,7 hPa 0,0 l/m 18,8 km/h (3 Bft) W-SW 244 0 min 0,000 mm 0,0 UV-I 0 W/m 16,9 C 16,1 C 30,6 km/h (5 Bft) 100,00 %
16.06.2016 20:52 19,6 C 84 % 998,9 hPa 0,0 l/m 18,1 km/h (3 Bft) SW 236 0 min 0,000 mm 0,0 UV-I 0 W/m 16,8 C 16,1 C 25,7 km/h (4 Bft) 97,56 %
16.06.2016 20:54 19,5 C 84 % 998,8 hPa 0,0 l/m 17,2 km/h (3 Bft) S-SW 211 0 min 0,000 mm 0,0 UV-I 0 W/m 16,7 C 16,1 C 27,4 km/h (4 Bft) 100,00 %
16.06.2016 20:56 19,4 C 84 % 998,8 hPa 0,0 l/m 15,5 km/h (3 Bft) W 259 0 min 0,000 mm 0,0 UV-I 0 W/m 16,6 C 16,4 C 29,0 km/h (5 Bft) 98,00 %
16.06.2016 20:58 19,3 C 84 % 998,8 hPa 0,0 l/m 18,3 km/h (3 Bft) S-SW 200 0 min 0,000 mm 0,0 UV-I 0 W/m 16,5 C 15,6 C 24,1 km/h (4 Bft) 100,00 %
16.06.2016 21:00 19,2 C 84 % 999,0 hPa 0,0 l/m 21,7 km/h (4 Bft) W-SW 246 0 min 0,051 mm 0,0 UV-I 0 W/m 16,4 C 14,9 C 33,8 km/h (5 Bft) 97,87 %
16.06.2016 21:02 19,2 C 84 % 998,8 hPa 0,0 l/m 17,7 km/h (3 Bft) SW 225 0 min 0,000 mm 0,0 UV-I 0 W/m 16,4 C 15,6 C 25,7 km/h (4 Bft) 98,11 %
16.06.2016 21:04 19,1 C 84 % 998,8 hPa 0,0 l/m 17,9 km/h (3 Bft) SW 224 0 min 0,000 mm 0,0 UV-I 0 W/m 16,3 C 15,5 C 24,1 km/h (4 Bft) 100,00 %
16.06.2016 21:06 19,1 C 84 % 999,1 hPa 0,0 l/m 18,9 km/h (3 Bft) S-SW 205 0 min 0,000 mm 0,0 UV-I 0 W/m 16,3 C 15,3 C 29,0 km/h (5 Bft) 94,34 %
16.06.2016 21:08 18,9 C 84 % 999,0 hPa 0,0 l/m 17,6 km/h (3 Bft) S-SO 158 0 min 0,000 mm 0,0 UV-I 0 W/m 16,1 C 15,3 C 32,2 km/h (5 Bft) 100,00 %
16.06.2016 21:10 18,9 C 84 % 999,0 hPa 0,0 l/m 18,7 km/h (3 Bft) W-SW 251 0 min 0,000 mm 0,0 UV-I 0 W/m 16,1 C 15,1 C 27,4 km/h (4 Bft) 100,00 %
16.06.2016 21:12 18,9 C 84 % 999,1 hPa 0,0 l/m 19,6 km/h (3 Bft) S 191 0 min 0,000 mm 0,0 UV-I 0 W/m 16,1 C 14,9 C 25,7 km/h (4 Bft) 97,87 %
16.06.2016 21:14 18,8 C 84 % 999,1 hPa 0,0 l/m 15,1 km/h (3 Bft) SW 224 0 min 0,000 mm 0,0 UV-I 0 W/m 16,0 C 15,8 C 27,4 km/h (4 Bft) 100,00 %
16.06.2016 21:16 18,8 C 84 % 999,1 hPa 0,0 l/m 16,6 km/h (3 Bft) W-SW 244 0 min 0,000 mm 0,0 UV-I 0 W/m 16,0 C 15,4 C 22,5 km/h (4 Bft) 98,18 %
16.06.2016 21:18 18,8 C 84 % 999,2 hPa 0,0 l/m 21,4 km/h (4 Bft) W-SW 252 0 min 0,000 mm 0,0 UV-I 0 W/m 16,0 C 14,4 C 30,6 km/h (5 Bft) 98,21 %
16.06.2016 21:20 18,7 C 84 % 999,4 hPa 0,0 l/m 19,4 km/h (3 Bft) W-SW 242 0 min 0,000 mm 0,0 UV-I 0 W/m 15,9 C 14,6 C 29,0 km/h (5 Bft) 100,00 %
16.06.2016 21:22 18,7 C 84 % 999,5 hPa 0,0 l/m 17,4 km/h (3 Bft) SW 225 0 min 0,000 mm 0,0 UV-I 0 W/m 15,9 C 15,1 C 29,0 km/h (5 Bft) 97,44 %
16.06.2016 21:24 18,6 C 84 % 999,5 hPa 0,0 l/m 18,8 km/h (3 Bft) SW 230 0 min 0,000 mm 0,0 UV-I 0 W/m 15,8 C 14,6 C 29,0 km/h (5 Bft) 100,00 %
16.06.2016 21:26 18,6 C 84 % 999,6 hPa 0,0 l/m 20,9 km/h (4 Bft) S-SW 207 0 min 0,000 mm 0,0 UV-I 0 W/m 15,8 C 14,2 C 30,6 km/h (5 Bft) 100,00 %
16.06.2016 21:28 18,5 C 85 % 999,8 hPa 0,0 l/m 23,9 km/h (4 Bft) SW 221 0 min 0,000 mm 0,0 UV-I 0 W/m 15,9 C 13,5 C 30,6 km/h (5 Bft) 100,00 %
16.06.2016 21:30 18,5 C 85 % 999,7 hPa 0,0 l/m 20,7 km/h (4 Bft) W-SW 252 0 min 0,000 mm 0,0 UV-I 0 W/m 15,9 C 14,1 C 32,2 km/h (5 Bft) 100,00 %
16.06.2016 21:32 18,4 C 85 % 999,7 hPa 0,0 l/m 19,6 km/h (3 Bft) W-SW 247 0 min 0,000 mm 0,0 UV-I 0 W/m 15,8 C 14,2 C 29,0 km/h (5 Bft) 100,00 %
16.06.2016 21:34 18,4 C 85 % 999,7 hPa 0,0 l/m 16,4 km/h (3 Bft) W-SW 258 0 min 0,000 mm 0,0 UV-I 0 W/m 15,8 C 15,0 C 27,4 km/h (4 Bft) 96,43 %
16.06.2016 21:36 18,3 C 85 % 999,7 hPa 0,0 l/m 19,9 km/h (4 Bft) W-SW 244 0 min 0,000 mm 0,0 UV-I 0 W/m 15,7 C 14,0 C 29,0 km/h (5 Bft) 100,00 %
16.06.2016 21:38 18,3 C 86 % 999,6 hPa 0,0 l/m 14,3 km/h (3 Bft) W 263 0 min 0,000 mm 0,0 UV-I 0 W/m 15,9 C 15,4 C 24,1 km/h (4 Bft) 100,00 %
16.06.2016 21:40 18,2 C 86 % 999,5 hPa 0,0 l/m 13,3 km/h (3 Bft) W-SW 241 0 min 0,000 mm 0,0 UV-I 0 W/m 15,8 C 15,6 C 20,9 km/h (4 Bft) 100,00 %
16.06.2016 21:42 18,2 C 86 % 999,6 hPa 0,0 l/m 13,9 km/h (3 Bft) W-SW 249 0 min 0,000 mm 0,0 UV-I 0 W/m 15,8 C 15,4 C 20,9 km/h (4 Bft) 98,15 %
16.06.2016 21:44 18,1 C 86 % 999,7 hPa 0,0 l/m 14,0 km/h (3 Bft) W-SW 254 0 min 0,000 mm 0,0 UV-I 0 W/m 15,7 C 15,2 C 20,9 km/h (4 Bft) 100,00 %
16.06.2016 21:46 18,1 C 87 % 999,8 hPa 0,0 l/m 13,2 km/h (3 Bft) S 188 0 min 0,000 mm 0,0 UV-I 0 W/m 15,9 C 15,5 C 19,3 km/h (3 Bft) 100,00 %
16.06.2016 21:48 18,0 C 86 % 999,9 hPa 0,0 l/m 11,6 km/h (2 Bft) W-SW 237 0 min 0,000 mm 0,0 UV-I 0 W/m 15,6 C 15,9 C 17,7 km/h (3 Bft) 100,00 %
16.06.2016 21:50 17,9 C 87 % 999,9 hPa 0,0 l/m 12,4 km/h (3 Bft) W-SW 251 0 min 0,000 mm 0,0 UV-I 0 W/m 15,7 C 15,5 C 17,7 km/h (3 Bft) 98,31 %
16.06.2016 21:52 17,9 C 87 % 1000,0 hPa 0,0 l/m 15,5 km/h (3 Bft) SW 228 0 min 0,000 mm 0,0 UV-I 0 W/m 15,7 C 14,6 C 24,1 km/h (4 Bft) 100,00 %
16.06.2016 21:54 17,8 C 87 % 1000,0 hPa 0,0 l/m 12,4 km/h (3 Bft) S-SW 208 0 min 0,000 mm 0,0 UV-I 0 W/m 15,6 C 15,4 C 16,1 km/h (3 Bft) 97,87 %
16.06.2016 21:56 17,8 C 87 % 1000,0 hPa 0,0 l/m 13,2 km/h (3 Bft) W-SW 238 0 min 0,000 mm 0,0 UV-I 0 W/m 15,6 C 15,1 C 22,5 km/h (4 Bft) 100,00 %
16.06.2016 21:58 17,8 C 87 % 1000,0 hPa 0,0 l/m 13,4 km/h (3 Bft) W-SW 257 0 min 0,000 mm 0,0 UV-I 0 W/m 15,6 C 15,1 C 19,3 km/h (3 Bft) 100,00 %
16.06.2016 22:00 17,7 C 87 % 1000,0 hPa 0,0 l/m 12,7 km/h (3 Bft) W 262 0 min 0,000 mm 0,0 UV-I 0 W/m 15,5 C 15,2 C 17,7 km/h (3 Bft) 100,00 %
16.06.2016 22:02 17,7 C 88 % 1000,1 hPa 0,0 l/m 11,5 km/h (2 Bft) W-SW 237 0 min 0,025 mm 0,0 UV-I 0 W/m 15,7 C 15,6 C 17,7 km/h (3 Bft) 100,00 %
16.06.2016 22:04 17,6 C 88 % 1000,1 hPa 0,0 l/m 14,4 km/h (3 Bft) SW 232 0 min 0,000 mm 0,0 UV-I 0 W/m 15,6 C 14,5 C 22,5 km/h (4 Bft) 98,18 %
16.06.2016 22:06 17,6 C 88 % 1000,2 hPa 0,0 l/m 9,7 km/h (2 Bft) SW 236 0 min 0,000 mm 0,0 UV-I 0 W/m 15,6 C 16,1 C 17,7 km/h (3 Bft) 100,00 %
16.06.2016 22:08 17,6 C 88 % 1000,1 hPa 0,0 l/m 13,1 km/h (3 Bft) S-SW 197 0 min 0,000 mm 0,0 UV-I 0 W/m 15,6 C 14,9 C 19,3 km/h (3 Bft) 98,00 %
16.06.2016 22:10 17,5 C 88 % 1000,1 hPa 0,0 l/m 12,7 km/h (3 Bft) SW 218 0 min 0,000 mm 0,0 UV-I 0 W/m 15,5 C 14,9 C 20,9 km/h (4 Bft) 97,87 %
16.06.2016 22:12 17,4 C 88 % 1000,1 hPa 0,0 l/m 12,6 km/h (3 Bft) SW 218 0 min 0,000 mm 0,0 UV-I 0 W/m 15,4 C 14,8 C 19,3 km/h (3 Bft) 97,37 %
16.06.2016 22:14 17,4 C 88 % 1000,2 hPa 0,0 l/m 9,6 km/h (2 Bft) SW 232 0 min 0,000 mm 0,0 UV-I 0 W/m 15,4 C 15,9 C 14,5 km/h (3 Bft) 96,23 %
16.06.2016 22:16 17,3 C 88 % 1000,2 hPa 0,0 l/m 14,1 km/h (3 Bft) W-SW 248 0 min 0,000 mm 0,0 UV-I 0 W/m 15,3 C 14,2 C 24,1 km/h (4 Bft) 97,37 %
16.06.2016 22:18 17,2 C 88 % 1000,3 hPa 0,0 l/m 12,7 km/h (3 Bft) W-SW 254 0 min 0,000 mm 0,0 UV-I 0 W/m 15,2 C 14,6 C 17,7 km/h (3 Bft) 96,61 %
16.06.2016 22:20 17,2 C 88 % 1000,3 hPa 0,0 l/m 13,3 km/h (3 Bft) SW 233 0 min 0,000 mm 0,0 UV-I 0 W/m 15,2 C 14,4 C 19,3 km/h (3 Bft) 94,29 %
16.06.2016 22:22 17,1 C 89 % 1000,4 hPa 0,0 l/m 17,0 km/h (3 Bft) W-SW 250 0 min 0,000 mm 0,0 UV-I 0 W/m 15,3 C 13,2 C 24,1 km/h (4 Bft) 96,00 %
16.06.2016 22:24 17,1 C 89 % 1000,4 hPa 0,2 l/m 12,5 km/h (3 Bft) SW 221 0 min 0,000 mm 0,0 UV-I 0 W/m 15,3 C 14,5 C 22,5 km/h (4 Bft) 97,96 %
16.06.2016 22:26 17,1 C 89 % 1000,3 hPa 0,0 l/m 14,2 km/h (3 Bft) SW 221 0 min 0,000 mm 0,0 UV-I 0 W/m 15,3 C 14,0 C 20,9 km/h (4 Bft) 94,00 %
16.06.2016 22:28 16,9 C 89 % 1000,2 hPa 0,0 l/m 13,5 km/h (3 Bft) W-SW 257 0 min 0,000 mm 0,0 UV-I 0 W/m 15,1 C 14,0 C 20,9 km/h (4 Bft) 100,00 %
16.06.2016 22:30 16,9 C 89 % 1000,2 hPa 0,0 l/m 15,4 km/h (3 Bft) SW 232 0 min 0,000 mm 0,0 UV-I 0 W/m 15,1 C 13,4 C 22,5 km/h (4 Bft) 96,23 %
16.06.2016 22:32 16,8 C 89 % 1000,3 hPa 0,0 l/m 11,0 km/h (2 Bft) W-SW 238 0 min 0,000 mm 0,0 UV-I 0 W/m 15,0 C 14,7 C 16,1 km/h (3 Bft) 98,00 %
16.06.2016 22:34 16,8 C 89 % 1000,4 hPa 0,0 l/m 13,8 km/h (3 Bft) SW 234 0 min 0,000 mm 0,0 UV-I 0 W/m 15,0 C 13,7 C 19,3 km/h (3 Bft) 97,56 %
16.06.2016 22:36 16,8 C 89 % 1000,6 hPa 0,0 l/m 12,4 km/h (3 Bft) SW 235 0 min 0,000 mm 0,0 UV-I 0 W/m 15,0 C 14,2 C 19,3 km/h (3 Bft) 98,11 %
16.06.2016 22:38 16,7 C 89 % 1000,7 hPa 0,0 l/m 12,8 km/h (3 Bft) SW 216 0 min 0,000 mm 0,0 UV-I 0 W/m 14,9 C 14,0 C 19,3 km/h (3 Bft) 97,37 %
16.06.2016 22:40 16,7 C 89 % 1000,7 hPa 0,0 l/m 12,4 km/h (3 Bft) SW 234 0 min 0,000 mm 0,0 UV-I 0 W/m 14,9 C 14,1 C 17,7 km/h (3 Bft) 95,24 %
16.06.2016 22:42 16,6 C 89 % 1000,8 hPa 0,0 l/m 11,7 km/h (2 Bft) SW 225 0 min 0,000 mm 0,0 UV-I 0 W/m 14,8 C 14,2 C 14,5 km/h (3 Bft) 98,33 %
16.06.2016 22:44 16,6 C 89 % 1000,8 hPa 0,0 l/m 15,7 km/h (3 Bft) W-SW 238 0 min 0,000 mm 0,0 UV-I 0 W/m 14,8 C 12,9 C 22,5 km/h (4 Bft) 94,87 %
16.06.2016 22:46 16,5 C 89 % 1000,8 hPa 0,0 l/m 15,4 km/h (3 Bft) SW 229 0 min 0,000 mm 0,0 UV-I 0 W/m 14,7 C 12,9 C 20,9 km/h (4 Bft) 97,56 %
16.06.2016 22:48 16,4 C 89 % 1000,8 hPa 0,0 l/m 11,5 km/h (2 Bft) SW 227 0 min 0,000 mm 0,0 UV-I 0 W/m 14,6 C 14,1 C 19,3 km/h (3 Bft) 98,39 %
16.06.2016 22:50 16,4 C 89 % 1000,8 hPa 0,0 l/m 10,8 km/h (2 Bft) SW 221 0 min 0,000 mm 0,0 UV-I 0 W/m 14,6 C 14,3 C 14,5 km/h (3 Bft) 100,00 %
16.06.2016 22:52 16,4 C 89 % 1000,7 hPa 0,0 l/m 7,4 km/h (2 Bft) W-SW 250 0 min 0,000 mm 0,0 UV-I 0 W/m 14,6 C 15,9 C 12,9 km/h (3 Bft) 100,00 %
16.06.2016 22:54 16,3 C 89 % 1000,6 hPa 0,0 l/m 11,4 km/h (2 Bft) SW 224 0 min 0,000 mm 0,0 UV-I 0 W/m 14,5 C 14,0 C 22,5 km/h (4 Bft) 100,00 %
16.06.2016 22:56 16,3 C 90 % 1000,4 hPa 0,0 l/m 8,4 km/h (2 Bft) W-SW 254 0 min 0,000 mm 0,0 UV-I 0 W/m 14,7 C 15,3 C 14,5 km/h (3 Bft) 100,00 %
16.06.2016 22:58 16,3 C 90 % 1000,4 hPa 0,0 l/m 7,6 km/h (2 Bft) W-SW 244 0 min 0,000 mm 0,0 UV-I 0 W/m 14,7 C 15,7 C 11,3 km/h (2 Bft) 100,00 %
16.06.2016 23:00 16,3 C 90 % 1000,5 hPa 0,0 l/m 9,2 km/h (2 Bft) W-SW 248 0 min 0,026 mm 0,0 UV-I 0 W/m 14,7 C 14,9 C 12,9 km/h (3 Bft) 100,00 %
16.06.2016 23:02 16,3 C 89 % 1000,5 hPa 0,0 l/m 10,5 km/h (2 Bft) W-SW 248 0 min 0,000 mm 0,0 UV-I 0 W/m 14,5 C 14,3 C 14,5 km/h (3 Bft) 100,00 %
16.06.2016 23:04 16,3 C 90 % 1000,7 hPa 0,0 l/m 11,0 km/h (2 Bft) W-SW 248 0 min 0,000 mm 0,0 UV-I 0 W/m 14,7 C 14,1 C 19,3 km/h (3 Bft) 100,00 %
16.06.2016 23:06 16,2 C 90 % 1000,8 hPa 0,0 l/m 9,4 km/h (2 Bft) W-SW 251 0 min 0,000 mm 0,0 UV-I 0 W/m 14,6 C 14,7 C 14,5 km/h (3 Bft) 97,56 %
16.06.2016 23:08 16,2 C 90 % 1000,8 hPa 0,0 l/m 11,6 km/h (2 Bft) SW 221 0 min 0,000 mm 0,0 UV-I 0 W/m 14,6 C 13,8 C 19,3 km/h (3 Bft) 100,00 %
16.06.2016 23:10 16,2 C 89 % 1000,8 hPa 0,0 l/m 9,8 km/h (2 Bft) W-SW 238 0 min 0,000 mm 0,0 UV-I 0 W/m 14,4 C 14,5 C 17,7 km/h (3 Bft) 100,00 %
16.06.2016 23:12 16,2 C 89 % 1000,8 hPa 0,0 l/m 10,5 km/h (2 Bft) S-SW 209 0 min 0,000 mm 0,0 UV-I 0 W/m 14,4 C 14,2 C 16,1 km/h (3 Bft) 100,00 %
16.06.2016 23:14 16,2 C 89 % 1000,8 hPa 0,0 l/m 11,7 km/h (2 Bft) W 261 0 min 0,000 mm 0,0 UV-I 0 W/m 14,4 C 13,8 C 19,3 km/h (3 Bft) 100,00 %
16.06.2016 23:16 16,2 C 89 % 1000,6 hPa 0,0 l/m 12,8 km/h (3 Bft) W-SW 255 0 min 0,000 mm 0,0 UV-I 0 W/m 14,4 C 13,4 C 20,9 km/h (4 Bft) 100,00 %
16.06.2016 23:18 16,2 C 89 % 1000,5 hPa 0,0 l/m 13,7 km/h (3 Bft) W 262 0 min 0,000 mm 0,0 UV-I 0 W/m 14,4 C 13,1 C 19,3 km/h (3 Bft) 100,00 %
16.06.2016 23:20 16,2 C 89 % 1000,5 hPa 0,0 l/m 11,4 km/h (2 Bft) W 260 0 min 0,000 mm 0,0 UV-I 0 W/m 14,4 C 13,9 C 17,7 km/h (3 Bft) 97,44 %
16.06.2016 23:22 16,2 C 89 % 1000,4 hPa 0,0 l/m 8,9 km/h (2 Bft) W-SW 245 0 min 0,000 mm 0,0 UV-I 0 W/m 14,4 C 14,9 C 12,9 km/h (3 Bft) 100,00 %
16.06.2016 23:24 16,2 C 89 % 1000,4 hPa 0,0 l/m 7,8 km/h (2 Bft) W-SW 248 0 min 0,000 mm 0,0 UV-I 0 W/m 14,4 C 15,5 C 14,5 km/h (3 Bft) 98,00 %
16.06.2016 23:26 16,2 C 89 % 1000,4 hPa 0,0 l/m 11,6 km/h (2 Bft) SW 235 0 min 0,000 mm 0,0 UV-I 0 W/m 14,4 C 13,8 C 16,1 km/h (3 Bft) 100,00 %
16.06.2016 23:28 16,1 C 89 % 1000,4 hPa 0,0 l/m 8,8 km/h (2 Bft) W 262 0 min 0,000 mm 0,0 UV-I 0 W/m 14,3 C 14,9 C 14,5 km/h (3 Bft) 95,12 %
16.06.2016 23:30 16,1 C 89 % 1000,3 hPa 0,0 l/m 12,6 km/h (3 Bft) W 261 0 min 0,000 mm 0,0 UV-I 0 W/m 14,3 C 13,3 C 19,3 km/h (3 Bft) 98,21 %
16.06.2016 23:32 16,1 C 89 % 1000,1 hPa 0,0 l/m 11,2 km/h (2 Bft) W-SW 252 0 min 0,000 mm 0,0 UV-I 0 W/m 14,3 C 13,8 C 16,1 km/h (3 Bft) 100,00 %
16.06.2016 23:34 16,1 C 89 % 1000,0 hPa 0,0 l/m 11,7 km/h (2 Bft) W-SW 238 0 min 0,000 mm 0,0 UV-I 0 W/m 14,3 C 13,7 C 14,5 km/h (3 Bft) 100,00 %
16.06.2016 23:36 16,1 C 89 % 1000,2 hPa 0,0 l/m 7,5 km/h (2 Bft) SW 221 0 min 0,000 mm 0,0 UV-I 0 W/m 14,3 C 15,5 C 12,9 km/h (3 Bft) 100,00 %
16.06.2016 23:38 16,1 C 89 % 1000,2 hPa 0,0 l/m 8,0 km/h (2 Bft) S-SW 213 0 min 0,000 mm 0,0 UV-I 0 W/m 14,3 C 15,3 C 12,9 km/h (3 Bft) 100,00 %
16.06.2016 23:40 16,1 C 89 % 1000,2 hPa 0,0 l/m 7,9 km/h (2 Bft) W-SW 242 0 min 0,000 mm 0,0 UV-I 0 W/m 14,3 C 15,3 C 11,3 km/h (2 Bft) 100,00 %
16.06.2016 23:42 16,1 C 89 % 1000,1 hPa 0,0 l/m 7,3 km/h (2 Bft) W 261 0 min 0,000 mm 0,0 UV-I 0 W/m 14,3 C 15,6 C 12,9 km/h (3 Bft) 100,00 %
16.06.2016 23:44 16,1 C 89 % 1000,0 hPa 0,0 l/m 7,7 km/h (2 Bft) SW 234 0 min 0,000 mm 0,0 UV-I 0 W/m 14,3 C 15,4 C 11,3 km/h (2 Bft) 97,37 %
16.06.2016 23:46 16,0 C 89 % 1000,2 hPa 0,0 l/m 9,8 km/h (2 Bft) SW 227 0 min 0,000 mm 0,0 UV-I 0 W/m 14,2 C 14,3 C 17,7 km/h (3 Bft) 100,00 %
16.06.2016 23:48 16,0 C 89 % 1000,2 hPa 0,0 l/m 12,8 km/h (3 Bft) W-SW 238 0 min 0,000 mm 0,0 UV-I 0 W/m 14,2 C 13,1 C 19,3 km/h (3 Bft) 100,00 %
16.06.2016 23:50 16,0 C 89 % 1000,2 hPa 0,0 l/m 7,3 km/h (2 Bft) SW 231 0 min 0,000 mm 0,0 UV-I 0 W/m 14,2 C 15,5 C 11,3 km/h (2 Bft) 100,00 %
16.06.2016 23:52 15,9 C 89 % 1000,2 hPa 0,0 l/m 8,4 km/h (2 Bft) S-SW 212 0 min 0,000 mm 0,0 UV-I 0 W/m 14,1 C 14,8 C 14,5 km/h (3 Bft) 98,00 %
16.06.2016 23:54 15,9 C 89 % 1000,2 hPa 0,0 l/m 8,1 km/h (2 Bft) S-SW 207 0 min 0,000 mm 0,0 UV-I 0 W/m 14,1 C 15,0 C 14,5 km/h (3 Bft) 98,11 %
16.06.2016 23:56 15,9 C 89 % 1000,2 hPa 0,0 l/m 8,7 km/h (2 Bft) W-SW 255 0 min 0,000 mm 0,0 UV-I 0 W/m 14,1 C 14,7 C 14,5 km/h (3 Bft) 97,37 %
16.06.2016 23:58 15,9 C 89 % 1000,1 hPa 0,0 l/m 7,6 km/h (2 Bft) SW 229 0 min 0,000 mm 0,0 UV-I 0 W/m 14,1 C 15,3 C 16,1 km/h (3 Bft) 100,00 %
_ Min-Zeit 05:07 15:08 18:02 - 00:12 - - - - - - 05:07 07:00 00:12 03:03
Minimum _ 12,3 C 41 % 996,3 hPa - 0,0 km/h (0 Bft) - - - - - - 11,4 C 11,0 C 0,0 km/h (0 Bft) 86,96 %
_ Max-Zeit 16:44 05:34 01:13 22:24 19:58 - - 10:56 15:00 13:18 14:08 12:54 18:16 19:50 00:00
Maximum _ 28,4 C 96 % 1004,8 hPa 0,2 l/m 29,7 km/h
SW (5 Bft)
- - 6 min 0,610 mm 7,1 UV-I 1062 W/m 18,0 C 28,1 C 48,3 km/h
S (6 Bft)
100,00 %
Durchschnitt _ 19,7 C 73 % 1000,6 hPa #0,2 l/m 10,1 km/h (2 Bft) O-NO - #11:03 h #5,309 mm 3,5 UV-I 433 W/m 14,1 C 18,5 C 15,4 km/h (3 Bft) 98,77 %